<?xml version="1.0" encoding="UTF-8" standalone="no" ?>
<gpx xmlns="http://www.topografix.com/GPX/1/1" xmlns:xsi="http://www.w3.org/2001/XMLSchema-instance" xsi:schemaLocation="http://www.topografix.com/GPX/1/1 http://www.topografix.com/GPX/1/1/gpx.xsd" version="1.1" creator="VisuGPX - https://www.visugpx.com">
  <metadata>
    <name>VTT - Autour du tarn</name>
    <desc><![CDATA[Belle rando bien sympa avec des panoramas grandioses.
La 1er descente est un peu chaotique et pas toujours super roulante mais avis aux trialistes ;)]]></desc>
  </metadata>
  <trk>
    <name><![CDATA[08-JUIN-14 16:40:44]]></name>
    <trkseg>
      <trkpt lat="44.38514" lon="3.87536">
        <ele>1300.8</ele>
        <time>2014-06-08T09:27:05Z</time>
      </trkpt>
      <trkpt lat="44.38514" lon="3.87536">
        <ele>1300.8</ele>
        <time>2014-06-08T09:27:06Z</time>
      </trkpt>
      <trkpt lat="44.38513" lon="3.87536">
        <ele>1304.65</ele>
        <time>2014-06-08T09:27:08Z</time>
      </trkpt>
      <trkpt lat="44.38513" lon="3.87536">
        <ele>1308.49</ele>
        <time>2014-06-08T09:27:09Z</time>
      </trkpt>
      <trkpt lat="44.38512" lon="3.87537">
        <ele>1312.34</ele>
        <time>2014-06-08T09:27:10Z</time>
      </trkpt>
      <trkpt lat="44.38511" lon="3.87537">
        <ele>1316.18</ele>
        <time>2014-06-08T09:27:11Z</time>
      </trkpt>
      <trkpt lat="44.3851" lon="3.87538">
        <ele>1319.55</ele>
        <time>2014-06-08T09:27:12Z</time>
      </trkpt>
      <trkpt lat="44.3851" lon="3.87538">
        <ele>1323.39</ele>
        <time>2014-06-08T09:27:13Z</time>
      </trkpt>
      <trkpt lat="44.3851" lon="3.87538">
        <ele>1326.76</ele>
        <time>2014-06-08T09:27:14Z</time>
      </trkpt>
      <trkpt lat="44.3851" lon="3.87538">
        <ele>1332.52</ele>
        <time>2014-06-08T09:27:16Z</time>
      </trkpt>
      <trkpt lat="44.38511" lon="3.87537">
        <ele>1337.81</ele>
        <time>2014-06-08T09:27:18Z</time>
      </trkpt>
      <trkpt lat="44.38511" lon="3.87536">
        <ele>1343.1</ele>
        <time>2014-06-08T09:27:20Z</time>
      </trkpt>
      <trkpt lat="44.38511" lon="3.87536">
        <ele>1348.39</ele>
        <time>2014-06-08T09:27:22Z</time>
      </trkpt>
      <trkpt lat="44.38511" lon="3.87536">
        <ele>1352.71</ele>
        <time>2014-06-08T09:27:24Z</time>
      </trkpt>
      <trkpt lat="44.38511" lon="3.87536">
        <ele>1357.52</ele>
        <time>2014-06-08T09:27:26Z</time>
      </trkpt>
      <trkpt lat="44.38511" lon="3.87536">
        <ele>1361.84</ele>
        <time>2014-06-08T09:27:28Z</time>
      </trkpt>
      <trkpt lat="44.38512" lon="3.87535">
        <ele>1369.54</ele>
        <time>2014-06-08T09:27:31Z</time>
      </trkpt>
      <trkpt lat="44.38512" lon="3.87535">
        <ele>1373.38</ele>
        <time>2014-06-08T09:27:34Z</time>
      </trkpt>
      <trkpt lat="44.38508" lon="3.87534">
        <ele>1300.8</ele>
        <time>2014-06-08T09:32:25Z</time>
      </trkpt>
      <trkpt lat="44.38508" lon="3.87535">
        <ele>1300.8</ele>
        <time>2014-06-08T09:32:26Z</time>
      </trkpt>
      <trkpt lat="44.38511" lon="3.87535">
        <ele>1305.13</ele>
        <time>2014-06-08T09:32:29Z</time>
      </trkpt>
      <trkpt lat="44.38513" lon="3.87541">
        <ele>1309.45</ele>
        <time>2014-06-08T09:32:30Z</time>
      </trkpt>
      <trkpt lat="44.38515" lon="3.87542">
        <ele>1308.97</ele>
        <time>2014-06-08T09:32:31Z</time>
      </trkpt>
      <trkpt lat="44.38519" lon="3.87545">
        <ele>1313.3</ele>
        <time>2014-06-08T09:32:33Z</time>
      </trkpt>
      <trkpt lat="44.38521" lon="3.87547">
        <ele>1317.14</ele>
        <time>2014-06-08T09:32:34Z</time>
      </trkpt>
      <trkpt lat="44.38525" lon="3.87547">
        <ele>1324.35</ele>
        <time>2014-06-08T09:32:36Z</time>
      </trkpt>
      <trkpt lat="44.38527" lon="3.87546">
        <ele>1327.72</ele>
        <time>2014-06-08T09:32:37Z</time>
      </trkpt>
      <trkpt lat="44.3853" lon="3.87544">
        <ele>1331.08</ele>
        <time>2014-06-08T09:32:38Z</time>
      </trkpt>
      <trkpt lat="44.38534" lon="3.87539">
        <ele>1337.33</ele>
        <time>2014-06-08T09:32:40Z</time>
      </trkpt>
      <trkpt lat="44.38536" lon="3.87536">
        <ele>1340.7</ele>
        <time>2014-06-08T09:32:41Z</time>
      </trkpt>
      <trkpt lat="44.3854" lon="3.8753">
        <ele>1346.94</ele>
        <time>2014-06-08T09:32:43Z</time>
      </trkpt>
      <trkpt lat="44.38541" lon="3.87527">
        <ele>1349.83</ele>
        <time>2014-06-08T09:32:44Z</time>
      </trkpt>
      <trkpt lat="44.38545" lon="3.87522">
        <ele>1355.12</ele>
        <time>2014-06-08T09:32:46Z</time>
      </trkpt>
      <trkpt lat="44.38548" lon="3.87518">
        <ele>1360.4</ele>
        <time>2014-06-08T09:32:48Z</time>
      </trkpt>
      <trkpt lat="44.38552" lon="3.87513">
        <ele>1365.21</ele>
        <time>2014-06-08T09:32:50Z</time>
      </trkpt>
      <trkpt lat="44.38557" lon="3.8751">
        <ele>1369.54</ele>
        <time>2014-06-08T09:32:52Z</time>
      </trkpt>
      <trkpt lat="44.38561" lon="3.87508">
        <ele>1373.86</ele>
        <time>2014-06-08T09:32:54Z</time>
      </trkpt>
      <trkpt lat="44.38565" lon="3.87506">
        <ele>1377.71</ele>
        <time>2014-06-08T09:32:56Z</time>
      </trkpt>
      <trkpt lat="44.38569" lon="3.87506">
        <ele>1381.07</ele>
        <time>2014-06-08T09:32:58Z</time>
      </trkpt>
      <trkpt lat="44.38573" lon="3.87506">
        <ele>1384.44</ele>
        <time>2014-06-08T09:33:00Z</time>
      </trkpt>
      <trkpt lat="44.38576" lon="3.87506">
        <ele>1387.32</ele>
        <time>2014-06-08T09:33:02Z</time>
      </trkpt>
      <trkpt lat="44.38576" lon="3.87505">
        <ele>1390.68</ele>
        <time>2014-06-08T09:33:04Z</time>
      </trkpt>
      <trkpt lat="44.38576" lon="3.87505">
        <ele>1394.53</ele>
        <time>2014-06-08T09:33:07Z</time>
      </trkpt>
      <trkpt lat="44.38576" lon="3.87504">
        <ele>1397.89</ele>
        <time>2014-06-08T09:33:10Z</time>
      </trkpt>
      <trkpt lat="44.38576" lon="3.87504">
        <ele>1400.78</ele>
        <time>2014-06-08T09:33:13Z</time>
      </trkpt>
      <trkpt lat="44.38579" lon="3.87504">
        <ele>1404.62</ele>
        <time>2014-06-08T09:33:17Z</time>
      </trkpt>
      <trkpt lat="44.38588" lon="3.87502">
        <ele>1408.47</ele>
        <time>2014-06-08T09:33:21Z</time>
      </trkpt>
      <trkpt lat="44.38597" lon="3.87496">
        <ele>1411.83</ele>
        <time>2014-06-08T09:33:25Z</time>
      </trkpt>
      <trkpt lat="44.38605" lon="3.87492">
        <ele>1414.72</ele>
        <time>2014-06-08T09:33:29Z</time>
      </trkpt>
      <trkpt lat="44.38611" lon="3.8749">
        <ele>1416.64</ele>
        <time>2014-06-08T09:33:32Z</time>
      </trkpt>
      <trkpt lat="44.38615" lon="3.87487">
        <ele>1417.6</ele>
        <time>2014-06-08T09:33:34Z</time>
      </trkpt>
      <trkpt lat="44.38627" lon="3.87472">
        <ele>1420.97</ele>
        <time>2014-06-08T09:33:41Z</time>
      </trkpt>
      <trkpt lat="44.3864" lon="3.87469">
        <ele>1423.85</ele>
        <time>2014-06-08T09:33:46Z</time>
      </trkpt>
      <trkpt lat="44.38651" lon="3.87457">
        <ele>1427.21</ele>
        <time>2014-06-08T09:33:53Z</time>
      </trkpt>
      <trkpt lat="44.38656" lon="3.87445">
        <ele>1430.58</ele>
        <time>2014-06-08T09:33:58Z</time>
      </trkpt>
      <trkpt lat="44.38659" lon="3.87436">
        <ele>1432.02</ele>
        <time>2014-06-08T09:34:02Z</time>
      </trkpt>
      <trkpt lat="44.38667" lon="3.87421">
        <ele>1435.39</ele>
        <time>2014-06-08T09:34:09Z</time>
      </trkpt>
      <trkpt lat="44.38674" lon="3.87408">
        <ele>1437.79</ele>
        <time>2014-06-08T09:34:17Z</time>
      </trkpt>
      <trkpt lat="44.38687" lon="3.87388">
        <ele>1441.15</ele>
        <time>2014-06-08T09:34:29Z</time>
      </trkpt>
      <trkpt lat="44.38703" lon="3.87364">
        <ele>1444.04</ele>
        <time>2014-06-08T09:34:44Z</time>
      </trkpt>
      <trkpt lat="44.38722" lon="3.87337">
        <ele>1446.92</ele>
        <time>2014-06-08T09:35:01Z</time>
      </trkpt>
      <trkpt lat="44.38742" lon="3.87313">
        <ele>1449.81</ele>
        <time>2014-06-08T09:35:18Z</time>
      </trkpt>
      <trkpt lat="44.38748" lon="3.87311">
        <ele>1450.77</ele>
        <time>2014-06-08T09:35:22Z</time>
      </trkpt>
      <trkpt lat="44.38763" lon="3.87297">
        <ele>1452.21</ele>
        <time>2014-06-08T09:35:35Z</time>
      </trkpt>
      <trkpt lat="44.38767" lon="3.87293">
        <ele>1452.69</ele>
        <time>2014-06-08T09:35:38Z</time>
      </trkpt>
      <trkpt lat="44.38786" lon="3.87278">
        <ele>1454.13</ele>
        <time>2014-06-08T09:35:54Z</time>
      </trkpt>
      <trkpt lat="44.38804" lon="3.87265">
        <ele>1456.05</ele>
        <time>2014-06-08T09:36:09Z</time>
      </trkpt>
      <trkpt lat="44.38825" lon="3.8726">
        <ele>1457.98</ele>
        <time>2014-06-08T09:36:22Z</time>
      </trkpt>
      <trkpt lat="44.38835" lon="3.87258">
        <ele>1458.94</ele>
        <time>2014-06-08T09:36:28Z</time>
      </trkpt>
      <trkpt lat="44.38839" lon="3.87258">
        <ele>1459.42</ele>
        <time>2014-06-08T09:36:30Z</time>
      </trkpt>
      <trkpt lat="44.38841" lon="3.87255">
        <ele>1459.42</ele>
        <time>2014-06-08T09:36:33Z</time>
      </trkpt>
      <trkpt lat="44.38857" lon="3.87249">
        <ele>1461.34</ele>
        <time>2014-06-08T09:36:45Z</time>
      </trkpt>
      <trkpt lat="44.38883" lon="3.87239">
        <ele>1463.74</ele>
        <time>2014-06-08T09:37:01Z</time>
      </trkpt>
      <trkpt lat="44.38889" lon="3.87239">
        <ele>1464.71</ele>
        <time>2014-06-08T09:37:04Z</time>
      </trkpt>
      <trkpt lat="44.3891" lon="3.87232">
        <ele>1466.63</ele>
        <time>2014-06-08T09:37:19Z</time>
      </trkpt>
      <trkpt lat="44.38923" lon="3.8723">
        <ele>1467.59</ele>
        <time>2014-06-08T09:37:27Z</time>
      </trkpt>
      <trkpt lat="44.38948" lon="3.87223">
        <ele>1469.99</ele>
        <time>2014-06-08T09:37:44Z</time>
      </trkpt>
      <trkpt lat="44.3897" lon="3.87223">
        <ele>1470.95</ele>
        <time>2014-06-08T09:37:57Z</time>
      </trkpt>
      <trkpt lat="44.38991" lon="3.87215">
        <ele>1472.88</ele>
        <time>2014-06-08T09:38:12Z</time>
      </trkpt>
      <trkpt lat="44.39007" lon="3.87199">
        <ele>1474.8</ele>
        <time>2014-06-08T09:38:25Z</time>
      </trkpt>
      <trkpt lat="44.39029" lon="3.87182">
        <ele>1476.24</ele>
        <time>2014-06-08T09:38:38Z</time>
      </trkpt>
      <trkpt lat="44.39049" lon="3.87164">
        <ele>1477.2</ele>
        <time>2014-06-08T09:38:51Z</time>
      </trkpt>
      <trkpt lat="44.39067" lon="3.87144">
        <ele>1478.16</ele>
        <time>2014-06-08T09:39:03Z</time>
      </trkpt>
      <trkpt lat="44.39089" lon="3.87124">
        <ele>1480.09</ele>
        <time>2014-06-08T09:39:18Z</time>
      </trkpt>
      <trkpt lat="44.39107" lon="3.87106">
        <ele>1481.53</ele>
        <time>2014-06-08T09:39:31Z</time>
      </trkpt>
      <trkpt lat="44.39124" lon="3.87087">
        <ele>1483.93</ele>
        <time>2014-06-08T09:39:44Z</time>
      </trkpt>
      <trkpt lat="44.39133" lon="3.87073">
        <ele>1484.89</ele>
        <time>2014-06-08T09:39:52Z</time>
      </trkpt>
      <trkpt lat="44.39148" lon="3.87046">
        <ele>1487.3</ele>
        <time>2014-06-08T09:40:06Z</time>
      </trkpt>
      <trkpt lat="44.39151" lon="3.87019">
        <ele>1489.22</ele>
        <time>2014-06-08T09:40:17Z</time>
      </trkpt>
      <trkpt lat="44.39151" lon="3.87012">
        <ele>1489.7</ele>
        <time>2014-06-08T09:40:20Z</time>
      </trkpt>
      <trkpt lat="44.39158" lon="3.86986">
        <ele>1491.14</ele>
        <time>2014-06-08T09:40:30Z</time>
      </trkpt>
      <trkpt lat="44.39169" lon="3.86956">
        <ele>1493.06</ele>
        <time>2014-06-08T09:40:42Z</time>
      </trkpt>
      <trkpt lat="44.39175" lon="3.8693">
        <ele>1494.99</ele>
        <time>2014-06-08T09:40:52Z</time>
      </trkpt>
      <trkpt lat="44.39179" lon="3.86912">
        <ele>1496.43</ele>
        <time>2014-06-08T09:40:59Z</time>
      </trkpt>
      <trkpt lat="44.3919" lon="3.86922">
        <ele>1497.87</ele>
        <time>2014-06-08T09:41:09Z</time>
      </trkpt>
      <trkpt lat="44.39194" lon="3.8693">
        <ele>1498.35</ele>
        <time>2014-06-08T09:41:13Z</time>
      </trkpt>
      <trkpt lat="44.39206" lon="3.86966">
        <ele>1500.27</ele>
        <time>2014-06-08T09:41:28Z</time>
      </trkpt>
      <trkpt lat="44.39211" lon="3.86985">
        <ele>1501.72</ele>
        <time>2014-06-08T09:41:38Z</time>
      </trkpt>
      <trkpt lat="44.39211" lon="3.86993">
        <ele>1502.2</ele>
        <time>2014-06-08T09:41:42Z</time>
      </trkpt>
      <trkpt lat="44.39214" lon="3.87007">
        <ele>1503.16</ele>
        <time>2014-06-08T09:41:47Z</time>
      </trkpt>
      <trkpt lat="44.39212" lon="3.8702">
        <ele>1503.64</ele>
        <time>2014-06-08T09:41:52Z</time>
      </trkpt>
      <trkpt lat="44.39211" lon="3.87025">
        <ele>1503.64</ele>
        <time>2014-06-08T09:41:54Z</time>
      </trkpt>
      <trkpt lat="44.39206" lon="3.87038">
        <ele>1504.6</ele>
        <time>2014-06-08T09:42:00Z</time>
      </trkpt>
      <trkpt lat="44.39197" lon="3.87047">
        <ele>1505.08</ele>
        <time>2014-06-08T09:42:06Z</time>
      </trkpt>
      <trkpt lat="44.39205" lon="3.8706">
        <ele>1505.56</ele>
        <time>2014-06-08T09:42:10Z</time>
      </trkpt>
      <trkpt lat="44.3921" lon="3.8707">
        <ele>1506.04</ele>
        <time>2014-06-08T09:42:13Z</time>
      </trkpt>
      <trkpt lat="44.39214" lon="3.87082">
        <ele>1507</ele>
        <time>2014-06-08T09:42:17Z</time>
      </trkpt>
      <trkpt lat="44.39215" lon="3.87089">
        <ele>1507.48</ele>
        <time>2014-06-08T09:42:19Z</time>
      </trkpt>
      <trkpt lat="44.3923" lon="3.87098">
        <ele>1508.93</ele>
        <time>2014-06-08T09:42:30Z</time>
      </trkpt>
      <trkpt lat="44.39233" lon="3.87082">
        <ele>1509.41</ele>
        <time>2014-06-08T09:42:37Z</time>
      </trkpt>
      <trkpt lat="44.39243" lon="3.87049">
        <ele>1511.33</ele>
        <time>2014-06-08T09:42:52Z</time>
      </trkpt>
      <trkpt lat="44.39244" lon="3.87046">
        <ele>1511.81</ele>
        <time>2014-06-08T09:42:54Z</time>
      </trkpt>
      <trkpt lat="44.39247" lon="3.87038">
        <ele>1511.81</ele>
        <time>2014-06-08T09:42:58Z</time>
      </trkpt>
      <trkpt lat="44.3925" lon="3.87032">
        <ele>1512.29</ele>
        <time>2014-06-08T09:43:01Z</time>
      </trkpt>
      <trkpt lat="44.39256" lon="3.87022">
        <ele>1512.77</ele>
        <time>2014-06-08T09:43:06Z</time>
      </trkpt>
      <trkpt lat="44.39262" lon="3.87011">
        <ele>1513.25</ele>
        <time>2014-06-08T09:43:11Z</time>
      </trkpt>
      <trkpt lat="44.39265" lon="3.86997">
        <ele>1514.21</ele>
        <time>2014-06-08T09:43:18Z</time>
      </trkpt>
      <trkpt lat="44.39272" lon="3.86985">
        <ele>1515.18</ele>
        <time>2014-06-08T09:43:24Z</time>
      </trkpt>
      <trkpt lat="44.39275" lon="3.86977">
        <ele>1515.18</ele>
        <time>2014-06-08T09:43:28Z</time>
      </trkpt>
      <trkpt lat="44.39281" lon="3.86968">
        <ele>1515.66</ele>
        <time>2014-06-08T09:43:33Z</time>
      </trkpt>
      <trkpt lat="44.39297" lon="3.86936">
        <ele>1518.06</ele>
        <time>2014-06-08T09:43:49Z</time>
      </trkpt>
      <trkpt lat="44.39301" lon="3.86932">
        <ele>1518.54</ele>
        <time>2014-06-08T09:43:52Z</time>
      </trkpt>
      <trkpt lat="44.39309" lon="3.86919">
        <ele>1519.5</ele>
        <time>2014-06-08T09:43:59Z</time>
      </trkpt>
      <trkpt lat="44.3933" lon="3.86903">
        <ele>1520.94</ele>
        <time>2014-06-08T09:44:14Z</time>
      </trkpt>
      <trkpt lat="44.39351" lon="3.86896">
        <ele>1522.87</ele>
        <time>2014-06-08T09:44:26Z</time>
      </trkpt>
      <trkpt lat="44.39376" lon="3.86873">
        <ele>1525.75</ele>
        <time>2014-06-08T09:44:43Z</time>
      </trkpt>
      <trkpt lat="44.39396" lon="3.86844">
        <ele>1527.67</ele>
        <time>2014-06-08T09:44:58Z</time>
      </trkpt>
      <trkpt lat="44.39406" lon="3.86827">
        <ele>1528.15</ele>
        <time>2014-06-08T09:45:06Z</time>
      </trkpt>
      <trkpt lat="44.39413" lon="3.86818">
        <ele>1529.11</ele>
        <time>2014-06-08T09:45:11Z</time>
      </trkpt>
      <trkpt lat="44.39423" lon="3.86797">
        <ele>1530.56</ele>
        <time>2014-06-08T09:45:20Z</time>
      </trkpt>
      <trkpt lat="44.39431" lon="3.86777">
        <ele>1531.52</ele>
        <time>2014-06-08T09:45:29Z</time>
      </trkpt>
      <trkpt lat="44.39446" lon="3.86739">
        <ele>1533.92</ele>
        <time>2014-06-08T09:45:45Z</time>
      </trkpt>
      <trkpt lat="44.39466" lon="3.86702">
        <ele>1536.32</ele>
        <time>2014-06-08T09:46:02Z</time>
      </trkpt>
      <trkpt lat="44.39482" lon="3.86679">
        <ele>1538.73</ele>
        <time>2014-06-08T09:46:14Z</time>
      </trkpt>
      <trkpt lat="44.39488" lon="3.86669">
        <ele>1539.21</ele>
        <time>2014-06-08T09:46:19Z</time>
      </trkpt>
      <trkpt lat="44.39494" lon="3.86663">
        <ele>1540.17</ele>
        <time>2014-06-08T09:46:23Z</time>
      </trkpt>
      <trkpt lat="44.39512" lon="3.86639">
        <ele>1542.57</ele>
        <time>2014-06-08T09:46:37Z</time>
      </trkpt>
      <trkpt lat="44.3953" lon="3.86616">
        <ele>1544.5</ele>
        <time>2014-06-08T09:46:51Z</time>
      </trkpt>
      <trkpt lat="44.39549" lon="3.86587">
        <ele>1546.42</ele>
        <time>2014-06-08T09:47:07Z</time>
      </trkpt>
      <trkpt lat="44.39564" lon="3.86562">
        <ele>1548.34</ele>
        <time>2014-06-08T09:47:20Z</time>
      </trkpt>
      <trkpt lat="44.39573" lon="3.86541">
        <ele>1550.26</ele>
        <time>2014-06-08T09:47:30Z</time>
      </trkpt>
      <trkpt lat="44.39577" lon="3.86526">
        <ele>1551.22</ele>
        <time>2014-06-08T09:47:36Z</time>
      </trkpt>
      <trkpt lat="44.39585" lon="3.86486">
        <ele>1553.63</ele>
        <time>2014-06-08T09:47:52Z</time>
      </trkpt>
      <trkpt lat="44.39579" lon="3.86449">
        <ele>1555.07</ele>
        <time>2014-06-08T09:48:07Z</time>
      </trkpt>
      <trkpt lat="44.39571" lon="3.86406">
        <ele>1556.51</ele>
        <time>2014-06-08T09:48:23Z</time>
      </trkpt>
      <trkpt lat="44.39564" lon="3.86369">
        <ele>1558.43</ele>
        <time>2014-06-08T09:48:37Z</time>
      </trkpt>
      <trkpt lat="44.3956" lon="3.86334">
        <ele>1559.88</ele>
        <time>2014-06-08T09:48:50Z</time>
      </trkpt>
      <trkpt lat="44.39561" lon="3.86302">
        <ele>1561.8</ele>
        <time>2014-06-08T09:49:02Z</time>
      </trkpt>
      <trkpt lat="44.39561" lon="3.86262">
        <ele>1563.24</ele>
        <time>2014-06-08T09:49:17Z</time>
      </trkpt>
      <trkpt lat="44.39565" lon="3.86224">
        <ele>1565.16</ele>
        <time>2014-06-08T09:49:32Z</time>
      </trkpt>
      <trkpt lat="44.3957" lon="3.86196">
        <ele>1567.09</ele>
        <time>2014-06-08T09:49:44Z</time>
      </trkpt>
      <trkpt lat="44.39571" lon="3.8619">
        <ele>1567.09</ele>
        <time>2014-06-08T09:49:46Z</time>
      </trkpt>
      <trkpt lat="44.39577" lon="3.86151">
        <ele>1569.01</ele>
        <time>2014-06-08T09:50:02Z</time>
      </trkpt>
      <trkpt lat="44.39579" lon="3.86142">
        <ele>1569.49</ele>
        <time>2014-06-08T09:50:07Z</time>
      </trkpt>
      <trkpt lat="44.39582" lon="3.86119">
        <ele>1570.93</ele>
        <time>2014-06-08T09:50:17Z</time>
      </trkpt>
      <trkpt lat="44.39585" lon="3.86105">
        <ele>1571.89</ele>
        <time>2014-06-08T09:50:22Z</time>
      </trkpt>
      <trkpt lat="44.39591" lon="3.8608">
        <ele>1573.82</ele>
        <time>2014-06-08T09:50:32Z</time>
      </trkpt>
      <trkpt lat="44.39597" lon="3.86039">
        <ele>1575.74</ele>
        <time>2014-06-08T09:50:47Z</time>
      </trkpt>
      <trkpt lat="44.3959" lon="3.86003">
        <ele>1577.18</ele>
        <time>2014-06-08T09:51:01Z</time>
      </trkpt>
      <trkpt lat="44.39589" lon="3.85999">
        <ele>1577.18</ele>
        <time>2014-06-08T09:51:03Z</time>
      </trkpt>
      <trkpt lat="44.39585" lon="3.85986">
        <ele>1578.14</ele>
        <time>2014-06-08T09:51:09Z</time>
      </trkpt>
      <trkpt lat="44.39572" lon="3.85953">
        <ele>1580.06</ele>
        <time>2014-06-08T09:51:23Z</time>
      </trkpt>
      <trkpt lat="44.39559" lon="3.85921">
        <ele>1581.99</ele>
        <time>2014-06-08T09:51:36Z</time>
      </trkpt>
      <trkpt lat="44.39554" lon="3.85907">
        <ele>1582.95</ele>
        <time>2014-06-08T09:51:42Z</time>
      </trkpt>
      <trkpt lat="44.39547" lon="3.85886">
        <ele>1584.39</ele>
        <time>2014-06-08T09:51:51Z</time>
      </trkpt>
      <trkpt lat="44.39542" lon="3.85876">
        <ele>1584.87</ele>
        <time>2014-06-08T09:51:55Z</time>
      </trkpt>
      <trkpt lat="44.39526" lon="3.85843">
        <ele>1586.79</ele>
        <time>2014-06-08T09:52:08Z</time>
      </trkpt>
      <trkpt lat="44.39513" lon="3.85813">
        <ele>1588.72</ele>
        <time>2014-06-08T09:52:20Z</time>
      </trkpt>
      <trkpt lat="44.395" lon="3.85781">
        <ele>1590.16</ele>
        <time>2014-06-08T09:52:31Z</time>
      </trkpt>
      <trkpt lat="44.39494" lon="3.85763">
        <ele>1591.12</ele>
        <time>2014-06-08T09:52:38Z</time>
      </trkpt>
      <trkpt lat="44.3949" lon="3.8573">
        <ele>1592.56</ele>
        <time>2014-06-08T09:52:50Z</time>
      </trkpt>
      <trkpt lat="44.39507" lon="3.85701">
        <ele>1593.04</ele>
        <time>2014-06-08T09:53:02Z</time>
      </trkpt>
      <trkpt lat="44.39538" lon="3.85697">
        <ele>1593.52</ele>
        <time>2014-06-08T09:53:13Z</time>
      </trkpt>
      <trkpt lat="44.39571" lon="3.85694">
        <ele>1594.48</ele>
        <time>2014-06-08T09:53:26Z</time>
      </trkpt>
      <trkpt lat="44.39602" lon="3.8569">
        <ele>1594.96</ele>
        <time>2014-06-08T09:53:38Z</time>
      </trkpt>
      <trkpt lat="44.39621" lon="3.85688">
        <ele>1595.93</ele>
        <time>2014-06-08T09:53:47Z</time>
      </trkpt>
      <trkpt lat="44.39664" lon="3.85685">
        <ele>1597.37</ele>
        <time>2014-06-08T09:54:01Z</time>
      </trkpt>
      <trkpt lat="44.39696" lon="3.85697">
        <ele>1598.33</ele>
        <time>2014-06-08T09:54:12Z</time>
      </trkpt>
      <trkpt lat="44.39726" lon="3.85708">
        <ele>1599.29</ele>
        <time>2014-06-08T09:54:23Z</time>
      </trkpt>
      <trkpt lat="44.39752" lon="3.85719">
        <ele>1600.25</ele>
        <time>2014-06-08T09:54:34Z</time>
      </trkpt>
      <trkpt lat="44.39791" lon="3.85726">
        <ele>1600.73</ele>
        <time>2014-06-08T09:54:47Z</time>
      </trkpt>
      <trkpt lat="44.39828" lon="3.85712">
        <ele>1600.73</ele>
        <time>2014-06-08T09:54:58Z</time>
      </trkpt>
      <trkpt lat="44.39868" lon="3.85695">
        <ele>1601.21</ele>
        <time>2014-06-08T09:55:09Z</time>
      </trkpt>
      <trkpt lat="44.39896" lon="3.85665">
        <ele>1602.17</ele>
        <time>2014-06-08T09:55:19Z</time>
      </trkpt>
      <trkpt lat="44.39941" lon="3.85616">
        <ele>1602.66</ele>
        <time>2014-06-08T09:55:34Z</time>
      </trkpt>
      <trkpt lat="44.39977" lon="3.85563">
        <ele>1603.62</ele>
        <time>2014-06-08T09:55:50Z</time>
      </trkpt>
      <trkpt lat="44.3999" lon="3.85537">
        <ele>1605.06</ele>
        <time>2014-06-08T09:56:01Z</time>
      </trkpt>
      <trkpt lat="44.4" lon="3.85512">
        <ele>1606.02</ele>
        <time>2014-06-08T09:56:10Z</time>
      </trkpt>
      <trkpt lat="44.40003" lon="3.85513">
        <ele>1606.02</ele>
        <time>2014-06-08T09:56:11Z</time>
      </trkpt>
      <trkpt lat="44.40009" lon="3.85513">
        <ele>1606.5</ele>
        <time>2014-06-08T09:56:14Z</time>
      </trkpt>
      <trkpt lat="44.40017" lon="3.8551">
        <ele>1607.46</ele>
        <time>2014-06-08T09:56:18Z</time>
      </trkpt>
      <trkpt lat="44.4002" lon="3.85499">
        <ele>1607.94</ele>
        <time>2014-06-08T09:56:23Z</time>
      </trkpt>
      <trkpt lat="44.4002" lon="3.85494">
        <ele>1607.94</ele>
        <time>2014-06-08T09:56:25Z</time>
      </trkpt>
      <trkpt lat="44.40017" lon="3.85471">
        <ele>1608.42</ele>
        <time>2014-06-08T09:56:33Z</time>
      </trkpt>
      <trkpt lat="44.40016" lon="3.85464">
        <ele>1608.42</ele>
        <time>2014-06-08T09:56:35Z</time>
      </trkpt>
      <trkpt lat="44.40012" lon="3.85449">
        <ele>1608.42</ele>
        <time>2014-06-08T09:56:39Z</time>
      </trkpt>
      <trkpt lat="44.40015" lon="3.8544">
        <ele>1608.9</ele>
        <time>2014-06-08T09:56:42Z</time>
      </trkpt>
      <trkpt lat="44.40022" lon="3.85423">
        <ele>1609.86</ele>
        <time>2014-06-08T09:56:49Z</time>
      </trkpt>
      <trkpt lat="44.40021" lon="3.85419">
        <ele>1609.86</ele>
        <time>2014-06-08T09:57:04Z</time>
      </trkpt>
      <trkpt lat="44.4002" lon="3.85417">
        <ele>1610.35</ele>
        <time>2014-06-08T09:57:08Z</time>
      </trkpt>
      <trkpt lat="44.40016" lon="3.85412">
        <ele>1610.35</ele>
        <time>2014-06-08T09:57:12Z</time>
      </trkpt>
      <trkpt lat="44.4003" lon="3.85397">
        <ele>1612.27</ele>
        <time>2014-06-08T09:57:25Z</time>
      </trkpt>
      <trkpt lat="44.40037" lon="3.85394">
        <ele>1613.71</ele>
        <time>2014-06-08T09:57:34Z</time>
      </trkpt>
      <trkpt lat="44.40044" lon="3.85389">
        <ele>1615.15</ele>
        <time>2014-06-08T09:57:47Z</time>
      </trkpt>
      <trkpt lat="44.4005" lon="3.85383">
        <ele>1617.07</ele>
        <time>2014-06-08T09:57:55Z</time>
      </trkpt>
      <trkpt lat="44.40065" lon="3.85385">
        <ele>1619</ele>
        <time>2014-06-08T09:58:09Z</time>
      </trkpt>
      <trkpt lat="44.40073" lon="3.85381">
        <ele>1620.92</ele>
        <time>2014-06-08T09:58:22Z</time>
      </trkpt>
      <trkpt lat="44.40075" lon="3.85379">
        <ele>1621.4</ele>
        <time>2014-06-08T09:58:25Z</time>
      </trkpt>
      <trkpt lat="44.40092" lon="3.85364">
        <ele>1624.28</ele>
        <time>2014-06-08T09:58:42Z</time>
      </trkpt>
      <trkpt lat="44.40097" lon="3.85358">
        <ele>1625.25</ele>
        <time>2014-06-08T09:58:48Z</time>
      </trkpt>
      <trkpt lat="44.40102" lon="3.85349">
        <ele>1626.69</ele>
        <time>2014-06-08T09:58:56Z</time>
      </trkpt>
      <trkpt lat="44.40106" lon="3.85338">
        <ele>1628.13</ele>
        <time>2014-06-08T09:59:12Z</time>
      </trkpt>
      <trkpt lat="44.40106" lon="3.85338">
        <ele>1628.13</ele>
        <time>2014-06-08T09:59:33Z</time>
      </trkpt>
      <trkpt lat="44.40106" lon="3.85338">
        <ele>1628.61</ele>
        <time>2014-06-08T10:00:00Z</time>
      </trkpt>
      <trkpt lat="44.40106" lon="3.85339">
        <ele>1628.13</ele>
        <time>2014-06-08T10:00:29Z</time>
      </trkpt>
      <trkpt lat="44.40107" lon="3.85339">
        <ele>1627.65</ele>
        <time>2014-06-08T10:00:54Z</time>
      </trkpt>
      <trkpt lat="44.40107" lon="3.85339">
        <ele>1627.17</ele>
        <time>2014-06-08T10:01:37Z</time>
      </trkpt>
      <trkpt lat="44.40108" lon="3.85337">
        <ele>1628.13</ele>
        <time>2014-06-08T10:02:03Z</time>
      </trkpt>
      <trkpt lat="44.40108" lon="3.85337">
        <ele>1628.13</ele>
        <time>2014-06-08T10:02:04Z</time>
      </trkpt>
      <trkpt lat="44.40111" lon="3.8533">
        <ele>1628.13</ele>
        <time>2014-06-08T10:02:08Z</time>
      </trkpt>
      <trkpt lat="44.40117" lon="3.85314">
        <ele>1629.09</ele>
        <time>2014-06-08T10:02:14Z</time>
      </trkpt>
      <trkpt lat="44.40123" lon="3.85302">
        <ele>1629.57</ele>
        <time>2014-06-08T10:02:19Z</time>
      </trkpt>
      <trkpt lat="44.40126" lon="3.85296">
        <ele>1630.53</ele>
        <time>2014-06-08T10:02:22Z</time>
      </trkpt>
      <trkpt lat="44.40127" lon="3.85288">
        <ele>1631.49</ele>
        <time>2014-06-08T10:02:26Z</time>
      </trkpt>
      <trkpt lat="44.40129" lon="3.85282">
        <ele>1631.98</ele>
        <time>2014-06-08T10:02:35Z</time>
      </trkpt>
      <trkpt lat="44.40131" lon="3.85278">
        <ele>1631.98</ele>
        <time>2014-06-08T10:02:44Z</time>
      </trkpt>
      <trkpt lat="44.40134" lon="3.85271">
        <ele>1632.94</ele>
        <time>2014-06-08T10:02:55Z</time>
      </trkpt>
      <trkpt lat="44.40135" lon="3.85269">
        <ele>1632.94</ele>
        <time>2014-06-08T10:03:08Z</time>
      </trkpt>
      <trkpt lat="44.40135" lon="3.85268">
        <ele>1632.94</ele>
        <time>2014-06-08T10:03:22Z</time>
      </trkpt>
      <trkpt lat="44.40137" lon="3.85266">
        <ele>1632.94</ele>
        <time>2014-06-08T10:03:34Z</time>
      </trkpt>
      <trkpt lat="44.4015" lon="3.85243">
        <ele>1635.34</ele>
        <time>2014-06-08T10:03:46Z</time>
      </trkpt>
      <trkpt lat="44.40152" lon="3.85241">
        <ele>1635.34</ele>
        <time>2014-06-08T10:03:47Z</time>
      </trkpt>
      <trkpt lat="44.40155" lon="3.85232">
        <ele>1636.3</ele>
        <time>2014-06-08T10:03:52Z</time>
      </trkpt>
      <trkpt lat="44.40158" lon="3.85221">
        <ele>1636.3</ele>
        <time>2014-06-08T10:03:57Z</time>
      </trkpt>
      <trkpt lat="44.40159" lon="3.85217">
        <ele>1636.78</ele>
        <time>2014-06-08T10:03:59Z</time>
      </trkpt>
      <trkpt lat="44.40164" lon="3.85201">
        <ele>1637.74</ele>
        <time>2014-06-08T10:04:09Z</time>
      </trkpt>
      <trkpt lat="44.40164" lon="3.85201">
        <ele>1638.22</ele>
        <time>2014-06-08T10:04:25Z</time>
      </trkpt>
      <trkpt lat="44.40173" lon="3.85189">
        <ele>1639.19</ele>
        <time>2014-06-08T10:04:34Z</time>
      </trkpt>
      <trkpt lat="44.40176" lon="3.85181">
        <ele>1640.15</ele>
        <time>2014-06-08T10:04:43Z</time>
      </trkpt>
      <trkpt lat="44.40177" lon="3.85178">
        <ele>1640.15</ele>
        <time>2014-06-08T10:04:45Z</time>
      </trkpt>
      <trkpt lat="44.40186" lon="3.85159">
        <ele>1642.55</ele>
        <time>2014-06-08T10:04:56Z</time>
      </trkpt>
      <trkpt lat="44.40187" lon="3.85158">
        <ele>1643.03</ele>
        <time>2014-06-08T10:05:09Z</time>
      </trkpt>
      <trkpt lat="44.4019" lon="3.85154">
        <ele>1642.55</ele>
        <time>2014-06-08T10:05:27Z</time>
      </trkpt>
      <trkpt lat="44.40194" lon="3.85148">
        <ele>1643.03</ele>
        <time>2014-06-08T10:05:34Z</time>
      </trkpt>
      <trkpt lat="44.40203" lon="3.85136">
        <ele>1644.47</ele>
        <time>2014-06-08T10:05:47Z</time>
      </trkpt>
      <trkpt lat="44.40208" lon="3.85131">
        <ele>1645.91</ele>
        <time>2014-06-08T10:06:00Z</time>
      </trkpt>
      <trkpt lat="44.40209" lon="3.8513">
        <ele>1645.91</ele>
        <time>2014-06-08T10:06:04Z</time>
      </trkpt>
      <trkpt lat="44.40219" lon="3.85116">
        <ele>1646.88</ele>
        <time>2014-06-08T10:06:12Z</time>
      </trkpt>
      <trkpt lat="44.40227" lon="3.85107">
        <ele>1647.84</ele>
        <time>2014-06-08T10:06:20Z</time>
      </trkpt>
      <trkpt lat="44.40237" lon="3.8509">
        <ele>1649.28</ele>
        <time>2014-06-08T10:06:31Z</time>
      </trkpt>
      <trkpt lat="44.4024" lon="3.85089">
        <ele>1649.76</ele>
        <time>2014-06-08T10:06:33Z</time>
      </trkpt>
      <trkpt lat="44.40256" lon="3.85074">
        <ele>1651.2</ele>
        <time>2014-06-08T10:06:45Z</time>
      </trkpt>
      <trkpt lat="44.4026" lon="3.85071">
        <ele>1652.16</ele>
        <time>2014-06-08T10:06:56Z</time>
      </trkpt>
      <trkpt lat="44.4026" lon="3.85071">
        <ele>1651.68</ele>
        <time>2014-06-08T10:07:20Z</time>
      </trkpt>
      <trkpt lat="44.4026" lon="3.85071">
        <ele>1651.68</ele>
        <time>2014-06-08T10:07:43Z</time>
      </trkpt>
      <trkpt lat="44.4026" lon="3.85071">
        <ele>1652.16</ele>
        <time>2014-06-08T10:08:12Z</time>
      </trkpt>
      <trkpt lat="44.40262" lon="3.85071">
        <ele>1651.68</ele>
        <time>2014-06-08T10:08:28Z</time>
      </trkpt>
      <trkpt lat="44.40264" lon="3.85069">
        <ele>1652.16</ele>
        <time>2014-06-08T10:08:32Z</time>
      </trkpt>
      <trkpt lat="44.40275" lon="3.85055">
        <ele>1653.12</ele>
        <time>2014-06-08T10:08:43Z</time>
      </trkpt>
      <trkpt lat="44.4029" lon="3.85019">
        <ele>1654.09</ele>
        <time>2014-06-08T10:08:57Z</time>
      </trkpt>
      <trkpt lat="44.40307" lon="3.84999">
        <ele>1655.05</ele>
        <time>2014-06-08T10:09:08Z</time>
      </trkpt>
      <trkpt lat="44.40319" lon="3.84967">
        <ele>1655.05</ele>
        <time>2014-06-08T10:09:19Z</time>
      </trkpt>
      <trkpt lat="44.40326" lon="3.84945">
        <ele>1655.53</ele>
        <time>2014-06-08T10:09:27Z</time>
      </trkpt>
      <trkpt lat="44.40332" lon="3.84931">
        <ele>1656.01</ele>
        <time>2014-06-08T10:09:33Z</time>
      </trkpt>
      <trkpt lat="44.40336" lon="3.84903">
        <ele>1656.01</ele>
        <time>2014-06-08T10:09:43Z</time>
      </trkpt>
      <trkpt lat="44.40334" lon="3.84883">
        <ele>1656.49</ele>
        <time>2014-06-08T10:09:53Z</time>
      </trkpt>
      <trkpt lat="44.40333" lon="3.84883">
        <ele>1656.49</ele>
        <time>2014-06-08T10:09:59Z</time>
      </trkpt>
      <trkpt lat="44.40337" lon="3.84892">
        <ele>1656.49</ele>
        <time>2014-06-08T10:10:07Z</time>
      </trkpt>
      <trkpt lat="44.4034" lon="3.8488">
        <ele>1656.97</ele>
        <time>2014-06-08T10:10:12Z</time>
      </trkpt>
      <trkpt lat="44.40359" lon="3.84845">
        <ele>1657.93</ele>
        <time>2014-06-08T10:10:26Z</time>
      </trkpt>
      <trkpt lat="44.40361" lon="3.8484">
        <ele>1658.41</ele>
        <time>2014-06-08T10:10:28Z</time>
      </trkpt>
      <trkpt lat="44.4038" lon="3.8481">
        <ele>1657.93</ele>
        <time>2014-06-08T10:10:40Z</time>
      </trkpt>
      <trkpt lat="44.40397" lon="3.84788">
        <ele>1657.93</ele>
        <time>2014-06-08T10:10:52Z</time>
      </trkpt>
      <trkpt lat="44.40416" lon="3.84772">
        <ele>1657.93</ele>
        <time>2014-06-08T10:11:03Z</time>
      </trkpt>
      <trkpt lat="44.40438" lon="3.84749">
        <ele>1657.45</ele>
        <time>2014-06-08T10:11:15Z</time>
      </trkpt>
      <trkpt lat="44.40455" lon="3.84735">
        <ele>1656.97</ele>
        <time>2014-06-08T10:11:25Z</time>
      </trkpt>
      <trkpt lat="44.40464" lon="3.84727">
        <ele>1656.49</ele>
        <time>2014-06-08T10:11:31Z</time>
      </trkpt>
      <trkpt lat="44.40478" lon="3.84711">
        <ele>1655.05</ele>
        <time>2014-06-08T10:11:41Z</time>
      </trkpt>
      <trkpt lat="44.40493" lon="3.84701">
        <ele>1655.05</ele>
        <time>2014-06-08T10:11:49Z</time>
      </trkpt>
      <trkpt lat="44.40498" lon="3.84699">
        <ele>1654.57</ele>
        <time>2014-06-08T10:11:51Z</time>
      </trkpt>
      <trkpt lat="44.40513" lon="3.84694">
        <ele>1654.09</ele>
        <time>2014-06-08T10:11:59Z</time>
      </trkpt>
      <trkpt lat="44.40537" lon="3.84689">
        <ele>1654.09</ele>
        <time>2014-06-08T10:12:13Z</time>
      </trkpt>
      <trkpt lat="44.40558" lon="3.84675">
        <ele>1654.57</ele>
        <time>2014-06-08T10:12:27Z</time>
      </trkpt>
      <trkpt lat="44.40567" lon="3.8467">
        <ele>1654.57</ele>
        <time>2014-06-08T10:12:32Z</time>
      </trkpt>
      <trkpt lat="44.40566" lon="3.84659">
        <ele>1653.6</ele>
        <time>2014-06-08T10:12:38Z</time>
      </trkpt>
      <trkpt lat="44.40563" lon="3.84654">
        <ele>1654.09</ele>
        <time>2014-06-08T10:12:41Z</time>
      </trkpt>
      <trkpt lat="44.4056" lon="3.84637">
        <ele>1654.09</ele>
        <time>2014-06-08T10:12:49Z</time>
      </trkpt>
      <trkpt lat="44.40566" lon="3.84606">
        <ele>1653.12</ele>
        <time>2014-06-08T10:13:03Z</time>
      </trkpt>
      <trkpt lat="44.40566" lon="3.846">
        <ele>1653.6</ele>
        <time>2014-06-08T10:13:14Z</time>
      </trkpt>
      <trkpt lat="44.40566" lon="3.846">
        <ele>1653.12</ele>
        <time>2014-06-08T10:13:22Z</time>
      </trkpt>
      <trkpt lat="44.40563" lon="3.84596">
        <ele>1653.12</ele>
        <time>2014-06-08T10:13:26Z</time>
      </trkpt>
      <trkpt lat="44.40562" lon="3.84591">
        <ele>1652.64</ele>
        <time>2014-06-08T10:13:29Z</time>
      </trkpt>
      <trkpt lat="44.40556" lon="3.8458">
        <ele>1652.64</ele>
        <time>2014-06-08T10:13:37Z</time>
      </trkpt>
      <trkpt lat="44.40548" lon="3.84564">
        <ele>1651.68</ele>
        <time>2014-06-08T10:13:47Z</time>
      </trkpt>
      <trkpt lat="44.40548" lon="3.84552">
        <ele>1651.68</ele>
        <time>2014-06-08T10:13:53Z</time>
      </trkpt>
      <trkpt lat="44.40548" lon="3.84545">
        <ele>1651.2</ele>
        <time>2014-06-08T10:13:56Z</time>
      </trkpt>
      <trkpt lat="44.40543" lon="3.84521">
        <ele>1649.76</ele>
        <time>2014-06-08T10:14:08Z</time>
      </trkpt>
      <trkpt lat="44.40543" lon="3.84519">
        <ele>1649.76</ele>
        <time>2014-06-08T10:14:09Z</time>
      </trkpt>
      <trkpt lat="44.40535" lon="3.84504">
        <ele>1649.76</ele>
        <time>2014-06-08T10:14:17Z</time>
      </trkpt>
      <trkpt lat="44.40528" lon="3.84497">
        <ele>1649.28</ele>
        <time>2014-06-08T10:14:25Z</time>
      </trkpt>
      <trkpt lat="44.40516" lon="3.84491">
        <ele>1649.28</ele>
        <time>2014-06-08T10:14:39Z</time>
      </trkpt>
      <trkpt lat="44.40514" lon="3.84489">
        <ele>1649.28</ele>
        <time>2014-06-08T10:14:55Z</time>
      </trkpt>
      <trkpt lat="44.40499" lon="3.84474">
        <ele>1648.32</ele>
        <time>2014-06-08T10:15:04Z</time>
      </trkpt>
      <trkpt lat="44.40482" lon="3.84448">
        <ele>1645.43</ele>
        <time>2014-06-08T10:15:17Z</time>
      </trkpt>
      <trkpt lat="44.4048" lon="3.84446">
        <ele>1645.43</ele>
        <time>2014-06-08T10:15:18Z</time>
      </trkpt>
      <trkpt lat="44.40474" lon="3.84437">
        <ele>1644.95</ele>
        <time>2014-06-08T10:15:22Z</time>
      </trkpt>
      <trkpt lat="44.40469" lon="3.84433">
        <ele>1644.47</ele>
        <time>2014-06-08T10:15:25Z</time>
      </trkpt>
      <trkpt lat="44.40466" lon="3.84428">
        <ele>1644.47</ele>
        <time>2014-06-08T10:15:28Z</time>
      </trkpt>
      <trkpt lat="44.40454" lon="3.8441">
        <ele>1643.99</ele>
        <time>2014-06-08T10:15:38Z</time>
      </trkpt>
      <trkpt lat="44.40453" lon="3.84407">
        <ele>1643.51</ele>
        <time>2014-06-08T10:15:39Z</time>
      </trkpt>
      <trkpt lat="44.40444" lon="3.84388">
        <ele>1643.03</ele>
        <time>2014-06-08T10:15:49Z</time>
      </trkpt>
      <trkpt lat="44.40431" lon="3.84362">
        <ele>1642.55</ele>
        <time>2014-06-08T10:16:03Z</time>
      </trkpt>
      <trkpt lat="44.40429" lon="3.84361">
        <ele>1642.55</ele>
        <time>2014-06-08T10:16:04Z</time>
      </trkpt>
      <trkpt lat="44.40423" lon="3.8436">
        <ele>1642.55</ele>
        <time>2014-06-08T10:16:15Z</time>
      </trkpt>
      <trkpt lat="44.40423" lon="3.8436">
        <ele>1642.07</ele>
        <time>2014-06-08T10:16:17Z</time>
      </trkpt>
      <trkpt lat="44.40414" lon="3.84344">
        <ele>1641.59</ele>
        <time>2014-06-08T10:16:32Z</time>
      </trkpt>
      <trkpt lat="44.40406" lon="3.84334">
        <ele>1640.63</ele>
        <time>2014-06-08T10:16:45Z</time>
      </trkpt>
      <trkpt lat="44.40406" lon="3.84334">
        <ele>1641.11</ele>
        <time>2014-06-08T10:17:08Z</time>
      </trkpt>
      <trkpt lat="44.40406" lon="3.84334">
        <ele>1640.63</ele>
        <time>2014-06-08T10:17:22Z</time>
      </trkpt>
      <trkpt lat="44.40405" lon="3.84331">
        <ele>1640.63</ele>
        <time>2014-06-08T10:17:24Z</time>
      </trkpt>
      <trkpt lat="44.40399" lon="3.8431">
        <ele>1641.11</ele>
        <time>2014-06-08T10:17:38Z</time>
      </trkpt>
      <trkpt lat="44.40397" lon="3.84302">
        <ele>1640.15</ele>
        <time>2014-06-08T10:17:46Z</time>
      </trkpt>
      <trkpt lat="44.40397" lon="3.84299">
        <ele>1639.67</ele>
        <time>2014-06-08T10:17:48Z</time>
      </trkpt>
      <trkpt lat="44.4039" lon="3.84281">
        <ele>1639.19</ele>
        <time>2014-06-08T10:18:03Z</time>
      </trkpt>
      <trkpt lat="44.40387" lon="3.8427">
        <ele>1639.19</ele>
        <time>2014-06-08T10:18:14Z</time>
      </trkpt>
      <trkpt lat="44.40384" lon="3.84261">
        <ele>1639.19</ele>
        <time>2014-06-08T10:18:25Z</time>
      </trkpt>
      <trkpt lat="44.4038" lon="3.84248">
        <ele>1638.22</ele>
        <time>2014-06-08T10:18:39Z</time>
      </trkpt>
      <trkpt lat="44.40376" lon="3.84239">
        <ele>1637.74</ele>
        <time>2014-06-08T10:18:46Z</time>
      </trkpt>
      <trkpt lat="44.40373" lon="3.84234">
        <ele>1636.78</ele>
        <time>2014-06-08T10:18:55Z</time>
      </trkpt>
      <trkpt lat="44.40372" lon="3.8423">
        <ele>1635.82</ele>
        <time>2014-06-08T10:18:58Z</time>
      </trkpt>
      <trkpt lat="44.40372" lon="3.84228">
        <ele>1635.34</ele>
        <time>2014-06-08T10:19:09Z</time>
      </trkpt>
      <trkpt lat="44.40372" lon="3.84228">
        <ele>1635.34</ele>
        <time>2014-06-08T10:19:41Z</time>
      </trkpt>
      <trkpt lat="44.40371" lon="3.84228">
        <ele>1635.82</ele>
        <time>2014-06-08T10:20:15Z</time>
      </trkpt>
      <trkpt lat="44.40365" lon="3.84224">
        <ele>1635.34</ele>
        <time>2014-06-08T10:20:30Z</time>
      </trkpt>
      <trkpt lat="44.40365" lon="3.84223">
        <ele>1635.82</ele>
        <time>2014-06-08T10:20:31Z</time>
      </trkpt>
      <trkpt lat="44.40365" lon="3.842">
        <ele>1636.3</ele>
        <time>2014-06-08T10:20:46Z</time>
      </trkpt>
      <trkpt lat="44.40356" lon="3.84184">
        <ele>1633.9</ele>
        <time>2014-06-08T10:20:56Z</time>
      </trkpt>
      <trkpt lat="44.40354" lon="3.84182">
        <ele>1633.42</ele>
        <time>2014-06-08T10:20:57Z</time>
      </trkpt>
      <trkpt lat="44.40343" lon="3.84173">
        <ele>1631.98</ele>
        <time>2014-06-08T10:21:03Z</time>
      </trkpt>
      <trkpt lat="44.40342" lon="3.8417">
        <ele>1632.46</ele>
        <time>2014-06-08T10:21:05Z</time>
      </trkpt>
      <trkpt lat="44.40338" lon="3.84165">
        <ele>1631.98</ele>
        <time>2014-06-08T10:21:18Z</time>
      </trkpt>
      <trkpt lat="44.40338" lon="3.84165">
        <ele>1631.01</ele>
        <time>2014-06-08T10:21:52Z</time>
      </trkpt>
      <trkpt lat="44.40338" lon="3.84165">
        <ele>1631.01</ele>
        <time>2014-06-08T10:22:15Z</time>
      </trkpt>
      <trkpt lat="44.40338" lon="3.84164">
        <ele>1631.98</ele>
        <time>2014-06-08T10:22:46Z</time>
      </trkpt>
      <trkpt lat="44.40343" lon="3.84164">
        <ele>1631.98</ele>
        <time>2014-06-08T10:23:02Z</time>
      </trkpt>
      <trkpt lat="44.4034" lon="3.84159">
        <ele>1631.49</ele>
        <time>2014-06-08T10:23:10Z</time>
      </trkpt>
      <trkpt lat="44.40339" lon="3.84139">
        <ele>1629.57</ele>
        <time>2014-06-08T10:23:19Z</time>
      </trkpt>
      <trkpt lat="44.40341" lon="3.84135">
        <ele>1630.53</ele>
        <time>2014-06-08T10:23:31Z</time>
      </trkpt>
      <trkpt lat="44.40341" lon="3.84135">
        <ele>1633.42</ele>
        <time>2014-06-08T10:23:38Z</time>
      </trkpt>
      <trkpt lat="44.40341" lon="3.84135">
        <ele>1630.05</ele>
        <time>2014-06-08T10:23:40Z</time>
      </trkpt>
      <trkpt lat="44.40339" lon="3.84138">
        <ele>1629.57</ele>
        <time>2014-06-08T10:23:50Z</time>
      </trkpt>
      <trkpt lat="44.40337" lon="3.8414">
        <ele>1629.57</ele>
        <time>2014-06-08T10:23:53Z</time>
      </trkpt>
      <trkpt lat="44.40336" lon="3.84144">
        <ele>1629.57</ele>
        <time>2014-06-08T10:23:56Z</time>
      </trkpt>
      <trkpt lat="44.40334" lon="3.84146">
        <ele>1629.09</ele>
        <time>2014-06-08T10:23:58Z</time>
      </trkpt>
      <trkpt lat="44.40332" lon="3.84152">
        <ele>1628.13</ele>
        <time>2014-06-08T10:24:03Z</time>
      </trkpt>
      <trkpt lat="44.40328" lon="3.84166">
        <ele>1628.61</ele>
        <time>2014-06-08T10:24:13Z</time>
      </trkpt>
      <trkpt lat="44.40324" lon="3.84166">
        <ele>1629.57</ele>
        <time>2014-06-08T10:24:18Z</time>
      </trkpt>
      <trkpt lat="44.40315" lon="3.84154">
        <ele>1630.05</ele>
        <time>2014-06-08T10:24:30Z</time>
      </trkpt>
      <trkpt lat="44.40312" lon="3.84151">
        <ele>1630.05</ele>
        <time>2014-06-08T10:24:41Z</time>
      </trkpt>
      <trkpt lat="44.40312" lon="3.84151">
        <ele>1630.05</ele>
        <time>2014-06-08T10:24:48Z</time>
      </trkpt>
      <trkpt lat="44.40309" lon="3.84138">
        <ele>1629.57</ele>
        <time>2014-06-08T10:24:54Z</time>
      </trkpt>
      <trkpt lat="44.40304" lon="3.84116">
        <ele>1627.17</ele>
        <time>2014-06-08T10:24:59Z</time>
      </trkpt>
      <trkpt lat="44.40302" lon="3.84086">
        <ele>1624.77</ele>
        <time>2014-06-08T10:25:04Z</time>
      </trkpt>
      <trkpt lat="44.40301" lon="3.84081">
        <ele>1624.77</ele>
        <time>2014-06-08T10:25:05Z</time>
      </trkpt>
      <trkpt lat="44.403" lon="3.84077">
        <ele>1624.28</ele>
        <time>2014-06-08T10:25:06Z</time>
      </trkpt>
      <trkpt lat="44.403" lon="3.84074">
        <ele>1624.77</ele>
        <time>2014-06-08T10:25:07Z</time>
      </trkpt>
      <trkpt lat="44.403" lon="3.84071">
        <ele>1624.28</ele>
        <time>2014-06-08T10:25:08Z</time>
      </trkpt>
      <trkpt lat="44.403" lon="3.84067">
        <ele>1624.28</ele>
        <time>2014-06-08T10:25:09Z</time>
      </trkpt>
      <trkpt lat="44.40301" lon="3.84062">
        <ele>1623.32</ele>
        <time>2014-06-08T10:25:10Z</time>
      </trkpt>
      <trkpt lat="44.40304" lon="3.84038">
        <ele>1621.4</ele>
        <time>2014-06-08T10:25:14Z</time>
      </trkpt>
      <trkpt lat="44.40306" lon="3.84034">
        <ele>1621.4</ele>
        <time>2014-06-08T10:25:15Z</time>
      </trkpt>
      <trkpt lat="44.40306" lon="3.8403">
        <ele>1620.92</ele>
        <time>2014-06-08T10:25:16Z</time>
      </trkpt>
      <trkpt lat="44.40306" lon="3.84019">
        <ele>1619.48</ele>
        <time>2014-06-08T10:25:18Z</time>
      </trkpt>
      <trkpt lat="44.40306" lon="3.84013">
        <ele>1619</ele>
        <time>2014-06-08T10:25:19Z</time>
      </trkpt>
      <trkpt lat="44.40306" lon="3.84007">
        <ele>1618.04</ele>
        <time>2014-06-08T10:25:20Z</time>
      </trkpt>
      <trkpt lat="44.40305" lon="3.84001">
        <ele>1617.07</ele>
        <time>2014-06-08T10:25:21Z</time>
      </trkpt>
      <trkpt lat="44.40305" lon="3.83996">
        <ele>1616.59</ele>
        <time>2014-06-08T10:25:22Z</time>
      </trkpt>
      <trkpt lat="44.40305" lon="3.83983">
        <ele>1615.15</ele>
        <time>2014-06-08T10:25:29Z</time>
      </trkpt>
      <trkpt lat="44.40305" lon="3.83983">
        <ele>1614.67</ele>
        <time>2014-06-08T10:25:42Z</time>
      </trkpt>
      <trkpt lat="44.40305" lon="3.83981">
        <ele>1615.15</ele>
        <time>2014-06-08T10:25:43Z</time>
      </trkpt>
      <trkpt lat="44.40304" lon="3.83977">
        <ele>1614.19</ele>
        <time>2014-06-08T10:25:44Z</time>
      </trkpt>
      <trkpt lat="44.40304" lon="3.83974">
        <ele>1614.19</ele>
        <time>2014-06-08T10:25:45Z</time>
      </trkpt>
      <trkpt lat="44.40304" lon="3.8397">
        <ele>1613.23</ele>
        <time>2014-06-08T10:25:46Z</time>
      </trkpt>
      <trkpt lat="44.40304" lon="3.83967">
        <ele>1613.23</ele>
        <time>2014-06-08T10:25:47Z</time>
      </trkpt>
      <trkpt lat="44.40304" lon="3.83963">
        <ele>1612.75</ele>
        <time>2014-06-08T10:25:48Z</time>
      </trkpt>
      <trkpt lat="44.40304" lon="3.8396">
        <ele>1612.27</ele>
        <time>2014-06-08T10:25:49Z</time>
      </trkpt>
      <trkpt lat="44.40304" lon="3.83956">
        <ele>1611.31</ele>
        <time>2014-06-08T10:25:50Z</time>
      </trkpt>
      <trkpt lat="44.40302" lon="3.83952">
        <ele>1610.83</ele>
        <time>2014-06-08T10:25:51Z</time>
      </trkpt>
      <trkpt lat="44.40301" lon="3.83947">
        <ele>1610.35</ele>
        <time>2014-06-08T10:25:52Z</time>
      </trkpt>
      <trkpt lat="44.403" lon="3.83942">
        <ele>1609.86</ele>
        <time>2014-06-08T10:25:53Z</time>
      </trkpt>
      <trkpt lat="44.40298" lon="3.83937">
        <ele>1609.38</ele>
        <time>2014-06-08T10:25:54Z</time>
      </trkpt>
      <trkpt lat="44.40297" lon="3.83933">
        <ele>1608.42</ele>
        <time>2014-06-08T10:25:55Z</time>
      </trkpt>
      <trkpt lat="44.40296" lon="3.83928">
        <ele>1607.94</ele>
        <time>2014-06-08T10:25:56Z</time>
      </trkpt>
      <trkpt lat="44.40297" lon="3.83923">
        <ele>1607.94</ele>
        <time>2014-06-08T10:25:57Z</time>
      </trkpt>
      <trkpt lat="44.40297" lon="3.83912">
        <ele>1606.98</ele>
        <time>2014-06-08T10:25:59Z</time>
      </trkpt>
      <trkpt lat="44.40296" lon="3.83908">
        <ele>1606.5</ele>
        <time>2014-06-08T10:26:00Z</time>
      </trkpt>
      <trkpt lat="44.40295" lon="3.83904">
        <ele>1605.54</ele>
        <time>2014-06-08T10:26:01Z</time>
      </trkpt>
      <trkpt lat="44.40293" lon="3.83899">
        <ele>1604.58</ele>
        <time>2014-06-08T10:26:02Z</time>
      </trkpt>
      <trkpt lat="44.40291" lon="3.83895">
        <ele>1604.58</ele>
        <time>2014-06-08T10:26:03Z</time>
      </trkpt>
      <trkpt lat="44.40288" lon="3.8389">
        <ele>1603.14</ele>
        <time>2014-06-08T10:26:04Z</time>
      </trkpt>
      <trkpt lat="44.40286" lon="3.83884">
        <ele>1602.17</ele>
        <time>2014-06-08T10:26:05Z</time>
      </trkpt>
      <trkpt lat="44.40284" lon="3.83877">
        <ele>1601.21</ele>
        <time>2014-06-08T10:26:06Z</time>
      </trkpt>
      <trkpt lat="44.40281" lon="3.8387">
        <ele>1600.25</ele>
        <time>2014-06-08T10:26:07Z</time>
      </trkpt>
      <trkpt lat="44.40278" lon="3.83863">
        <ele>1599.29</ele>
        <time>2014-06-08T10:26:08Z</time>
      </trkpt>
      <trkpt lat="44.40275" lon="3.83856">
        <ele>1598.33</ele>
        <time>2014-06-08T10:26:09Z</time>
      </trkpt>
      <trkpt lat="44.40272" lon="3.8385">
        <ele>1597.37</ele>
        <time>2014-06-08T10:26:10Z</time>
      </trkpt>
      <trkpt lat="44.4027" lon="3.83844">
        <ele>1597.37</ele>
        <time>2014-06-08T10:26:11Z</time>
      </trkpt>
      <trkpt lat="44.40265" lon="3.83837">
        <ele>1596.89</ele>
        <time>2014-06-08T10:26:13Z</time>
      </trkpt>
      <trkpt lat="44.40263" lon="3.83833">
        <ele>1595.45</ele>
        <time>2014-06-08T10:26:14Z</time>
      </trkpt>
      <trkpt lat="44.40261" lon="3.83829">
        <ele>1595.45</ele>
        <time>2014-06-08T10:26:15Z</time>
      </trkpt>
      <trkpt lat="44.40258" lon="3.83826">
        <ele>1594.96</ele>
        <time>2014-06-08T10:26:16Z</time>
      </trkpt>
      <trkpt lat="44.40255" lon="3.83822">
        <ele>1594</ele>
        <time>2014-06-08T10:26:17Z</time>
      </trkpt>
      <trkpt lat="44.40254" lon="3.83817">
        <ele>1593.04</ele>
        <time>2014-06-08T10:26:18Z</time>
      </trkpt>
      <trkpt lat="44.40253" lon="3.83812">
        <ele>1592.56</ele>
        <time>2014-06-08T10:26:19Z</time>
      </trkpt>
      <trkpt lat="44.40251" lon="3.83804">
        <ele>1591.6</ele>
        <time>2014-06-08T10:26:21Z</time>
      </trkpt>
      <trkpt lat="44.40248" lon="3.83779">
        <ele>1590.64</ele>
        <time>2014-06-08T10:26:26Z</time>
      </trkpt>
      <trkpt lat="44.40246" lon="3.83774">
        <ele>1590.16</ele>
        <time>2014-06-08T10:26:27Z</time>
      </trkpt>
      <trkpt lat="44.40245" lon="3.83771">
        <ele>1589.68</ele>
        <time>2014-06-08T10:26:28Z</time>
      </trkpt>
      <trkpt lat="44.40245" lon="3.83767">
        <ele>1589.2</ele>
        <time>2014-06-08T10:26:29Z</time>
      </trkpt>
      <trkpt lat="44.40245" lon="3.83762">
        <ele>1588.72</ele>
        <time>2014-06-08T10:26:30Z</time>
      </trkpt>
      <trkpt lat="44.40243" lon="3.83755">
        <ele>1587.75</ele>
        <time>2014-06-08T10:26:37Z</time>
      </trkpt>
      <trkpt lat="44.40244" lon="3.83754">
        <ele>1587.75</ele>
        <time>2014-06-08T10:27:03Z</time>
      </trkpt>
      <trkpt lat="44.40244" lon="3.83754">
        <ele>1587.75</ele>
        <time>2014-06-08T10:27:05Z</time>
      </trkpt>
      <trkpt lat="44.40243" lon="3.83749">
        <ele>1587.27</ele>
        <time>2014-06-08T10:27:07Z</time>
      </trkpt>
      <trkpt lat="44.40241" lon="3.83745">
        <ele>1586.79</ele>
        <time>2014-06-08T10:27:08Z</time>
      </trkpt>
      <trkpt lat="44.40239" lon="3.83741">
        <ele>1586.31</ele>
        <time>2014-06-08T10:27:09Z</time>
      </trkpt>
      <trkpt lat="44.40237" lon="3.83738">
        <ele>1586.31</ele>
        <time>2014-06-08T10:27:10Z</time>
      </trkpt>
      <trkpt lat="44.40236" lon="3.83735">
        <ele>1585.83</ele>
        <time>2014-06-08T10:27:11Z</time>
      </trkpt>
      <trkpt lat="44.40234" lon="3.83733">
        <ele>1585.83</ele>
        <time>2014-06-08T10:27:12Z</time>
      </trkpt>
      <trkpt lat="44.40231" lon="3.83728">
        <ele>1585.83</ele>
        <time>2014-06-08T10:27:15Z</time>
      </trkpt>
      <trkpt lat="44.4023" lon="3.83725">
        <ele>1585.83</ele>
        <time>2014-06-08T10:27:16Z</time>
      </trkpt>
      <trkpt lat="44.40228" lon="3.83717">
        <ele>1584.87</ele>
        <time>2014-06-08T10:27:19Z</time>
      </trkpt>
      <trkpt lat="44.40227" lon="3.83715">
        <ele>1584.87</ele>
        <time>2014-06-08T10:27:20Z</time>
      </trkpt>
      <trkpt lat="44.40225" lon="3.83713">
        <ele>1584.39</ele>
        <time>2014-06-08T10:27:21Z</time>
      </trkpt>
      <trkpt lat="44.40224" lon="3.83712">
        <ele>1584.39</ele>
        <time>2014-06-08T10:27:22Z</time>
      </trkpt>
      <trkpt lat="44.40223" lon="3.8371">
        <ele>1584.39</ele>
        <time>2014-06-08T10:27:23Z</time>
      </trkpt>
      <trkpt lat="44.40223" lon="3.83708">
        <ele>1583.91</ele>
        <time>2014-06-08T10:27:24Z</time>
      </trkpt>
      <trkpt lat="44.40223" lon="3.83685">
        <ele>1581.03</ele>
        <time>2014-06-08T10:27:31Z</time>
      </trkpt>
      <trkpt lat="44.40223" lon="3.83683">
        <ele>1581.51</ele>
        <time>2014-06-08T10:27:32Z</time>
      </trkpt>
      <trkpt lat="44.40224" lon="3.83681">
        <ele>1581.03</ele>
        <time>2014-06-08T10:27:33Z</time>
      </trkpt>
      <trkpt lat="44.40224" lon="3.83679">
        <ele>1581.03</ele>
        <time>2014-06-08T10:27:34Z</time>
      </trkpt>
      <trkpt lat="44.40223" lon="3.83677">
        <ele>1580.06</ele>
        <time>2014-06-08T10:27:35Z</time>
      </trkpt>
      <trkpt lat="44.40222" lon="3.83674">
        <ele>1579.58</ele>
        <time>2014-06-08T10:27:36Z</time>
      </trkpt>
      <trkpt lat="44.40221" lon="3.83673">
        <ele>1579.58</ele>
        <time>2014-06-08T10:27:37Z</time>
      </trkpt>
      <trkpt lat="44.40221" lon="3.83672">
        <ele>1576.22</ele>
        <time>2014-06-08T10:27:53Z</time>
      </trkpt>
      <trkpt lat="44.40221" lon="3.83672">
        <ele>1582.47</ele>
        <time>2014-06-08T10:27:55Z</time>
      </trkpt>
      <trkpt lat="44.40221" lon="3.83672">
        <ele>1578.14</ele>
        <time>2014-06-08T10:27:56Z</time>
      </trkpt>
      <trkpt lat="44.40221" lon="3.83672">
        <ele>1581.03</ele>
        <time>2014-06-08T10:27:59Z</time>
      </trkpt>
      <trkpt lat="44.40222" lon="3.83671">
        <ele>1579.58</ele>
        <time>2014-06-08T10:28:25Z</time>
      </trkpt>
      <trkpt lat="44.40223" lon="3.83669">
        <ele>1579.58</ele>
        <time>2014-06-08T10:28:28Z</time>
      </trkpt>
      <trkpt lat="44.40223" lon="3.83667">
        <ele>1579.1</ele>
        <time>2014-06-08T10:28:29Z</time>
      </trkpt>
      <trkpt lat="44.40223" lon="3.83665">
        <ele>1578.62</ele>
        <time>2014-06-08T10:28:30Z</time>
      </trkpt>
      <trkpt lat="44.40222" lon="3.83662">
        <ele>1578.14</ele>
        <time>2014-06-08T10:28:31Z</time>
      </trkpt>
      <trkpt lat="44.40221" lon="3.83659">
        <ele>1578.14</ele>
        <time>2014-06-08T10:28:32Z</time>
      </trkpt>
      <trkpt lat="44.40219" lon="3.83656">
        <ele>1577.66</ele>
        <time>2014-06-08T10:28:33Z</time>
      </trkpt>
      <trkpt lat="44.40212" lon="3.83643">
        <ele>1575.74</ele>
        <time>2014-06-08T10:28:38Z</time>
      </trkpt>
      <trkpt lat="44.40212" lon="3.83643">
        <ele>1575.26</ele>
        <time>2014-06-08T10:28:45Z</time>
      </trkpt>
      <trkpt lat="44.40204" lon="3.83636">
        <ele>1574.3</ele>
        <time>2014-06-08T10:28:52Z</time>
      </trkpt>
      <trkpt lat="44.40195" lon="3.83629">
        <ele>1573.33</ele>
        <time>2014-06-08T10:28:58Z</time>
      </trkpt>
      <trkpt lat="44.40189" lon="3.83623">
        <ele>1573.33</ele>
        <time>2014-06-08T10:29:01Z</time>
      </trkpt>
      <trkpt lat="44.40185" lon="3.83621">
        <ele>1572.37</ele>
        <time>2014-06-08T10:29:03Z</time>
      </trkpt>
      <trkpt lat="44.40183" lon="3.83619">
        <ele>1572.85</ele>
        <time>2014-06-08T10:29:14Z</time>
      </trkpt>
      <trkpt lat="44.40183" lon="3.83619">
        <ele>1572.37</ele>
        <time>2014-06-08T10:29:43Z</time>
      </trkpt>
      <trkpt lat="44.4018" lon="3.83618">
        <ele>1571.89</ele>
        <time>2014-06-08T10:29:54Z</time>
      </trkpt>
      <trkpt lat="44.40177" lon="3.83614">
        <ele>1570.93</ele>
        <time>2014-06-08T10:29:56Z</time>
      </trkpt>
      <trkpt lat="44.40173" lon="3.83612">
        <ele>1570.93</ele>
        <time>2014-06-08T10:30:04Z</time>
      </trkpt>
      <trkpt lat="44.40169" lon="3.83614">
        <ele>1571.41</ele>
        <time>2014-06-08T10:30:14Z</time>
      </trkpt>
      <trkpt lat="44.40151" lon="3.83613">
        <ele>1570.45</ele>
        <time>2014-06-08T10:30:24Z</time>
      </trkpt>
      <trkpt lat="44.40149" lon="3.83613">
        <ele>1570.45</ele>
        <time>2014-06-08T10:30:25Z</time>
      </trkpt>
      <trkpt lat="44.40116" lon="3.83632">
        <ele>1569.01</ele>
        <time>2014-06-08T10:30:39Z</time>
      </trkpt>
      <trkpt lat="44.40103" lon="3.83638">
        <ele>1568.05</ele>
        <time>2014-06-08T10:30:46Z</time>
      </trkpt>
      <trkpt lat="44.4009" lon="3.83637">
        <ele>1567.57</ele>
        <time>2014-06-08T10:30:53Z</time>
      </trkpt>
      <trkpt lat="44.40088" lon="3.83638">
        <ele>1567.57</ele>
        <time>2014-06-08T10:31:00Z</time>
      </trkpt>
      <trkpt lat="44.40078" lon="3.8364">
        <ele>1566.12</ele>
        <time>2014-06-08T10:31:06Z</time>
      </trkpt>
      <trkpt lat="44.40067" lon="3.83642">
        <ele>1565.16</ele>
        <time>2014-06-08T10:31:10Z</time>
      </trkpt>
      <trkpt lat="44.40046" lon="3.83642">
        <ele>1564.68</ele>
        <time>2014-06-08T10:31:20Z</time>
      </trkpt>
      <trkpt lat="44.40041" lon="3.83642">
        <ele>1564.2</ele>
        <time>2014-06-08T10:31:29Z</time>
      </trkpt>
      <trkpt lat="44.40032" lon="3.83643">
        <ele>1563.72</ele>
        <time>2014-06-08T10:31:40Z</time>
      </trkpt>
      <trkpt lat="44.4003" lon="3.83643">
        <ele>1563.24</ele>
        <time>2014-06-08T10:31:41Z</time>
      </trkpt>
      <trkpt lat="44.40011" lon="3.83647">
        <ele>1561.8</ele>
        <time>2014-06-08T10:31:50Z</time>
      </trkpt>
      <trkpt lat="44.39989" lon="3.83654">
        <ele>1560.36</ele>
        <time>2014-06-08T10:32:00Z</time>
      </trkpt>
      <trkpt lat="44.39986" lon="3.83656">
        <ele>1560.36</ele>
        <time>2014-06-08T10:32:07Z</time>
      </trkpt>
      <trkpt lat="44.39977" lon="3.8366">
        <ele>1559.88</ele>
        <time>2014-06-08T10:32:17Z</time>
      </trkpt>
      <trkpt lat="44.39976" lon="3.83661">
        <ele>1559.88</ele>
        <time>2014-06-08T10:32:31Z</time>
      </trkpt>
      <trkpt lat="44.39976" lon="3.83661">
        <ele>1559.88</ele>
        <time>2014-06-08T10:32:44Z</time>
      </trkpt>
      <trkpt lat="44.39975" lon="3.83662">
        <ele>1559.4</ele>
        <time>2014-06-08T10:32:58Z</time>
      </trkpt>
      <trkpt lat="44.39973" lon="3.83663">
        <ele>1559.4</ele>
        <time>2014-06-08T10:33:01Z</time>
      </trkpt>
      <trkpt lat="44.39948" lon="3.83671">
        <ele>1558.92</ele>
        <time>2014-06-08T10:33:13Z</time>
      </trkpt>
      <trkpt lat="44.39926" lon="3.8368">
        <ele>1556.51</ele>
        <time>2014-06-08T10:33:23Z</time>
      </trkpt>
      <trkpt lat="44.39922" lon="3.83683">
        <ele>1556.51</ele>
        <time>2014-06-08T10:33:25Z</time>
      </trkpt>
      <trkpt lat="44.3991" lon="3.83683">
        <ele>1555.55</ele>
        <time>2014-06-08T10:33:31Z</time>
      </trkpt>
      <trkpt lat="44.39883" lon="3.83684">
        <ele>1554.11</ele>
        <time>2014-06-08T10:33:43Z</time>
      </trkpt>
      <trkpt lat="44.39869" lon="3.83685">
        <ele>1553.63</ele>
        <time>2014-06-08T10:33:54Z</time>
      </trkpt>
      <trkpt lat="44.39869" lon="3.83685">
        <ele>1553.63</ele>
        <time>2014-06-08T10:34:16Z</time>
      </trkpt>
      <trkpt lat="44.39854" lon="3.8368">
        <ele>1553.15</ele>
        <time>2014-06-08T10:34:31Z</time>
      </trkpt>
      <trkpt lat="44.39845" lon="3.83678">
        <ele>1553.15</ele>
        <time>2014-06-08T10:34:35Z</time>
      </trkpt>
      <trkpt lat="44.3984" lon="3.83677">
        <ele>1552.67</ele>
        <time>2014-06-08T10:34:37Z</time>
      </trkpt>
      <trkpt lat="44.39836" lon="3.83674">
        <ele>1552.19</ele>
        <time>2014-06-08T10:34:39Z</time>
      </trkpt>
      <trkpt lat="44.39826" lon="3.83668">
        <ele>1551.22</ele>
        <time>2014-06-08T10:34:45Z</time>
      </trkpt>
      <trkpt lat="44.39815" lon="3.8366">
        <ele>1549.78</ele>
        <time>2014-06-08T10:34:56Z</time>
      </trkpt>
      <trkpt lat="44.39815" lon="3.8366">
        <ele>1549.78</ele>
        <time>2014-06-08T10:35:12Z</time>
      </trkpt>
      <trkpt lat="44.39808" lon="3.83652">
        <ele>1548.34</ele>
        <time>2014-06-08T10:35:16Z</time>
      </trkpt>
      <trkpt lat="44.39799" lon="3.83642">
        <ele>1545.94</ele>
        <time>2014-06-08T10:35:20Z</time>
      </trkpt>
      <trkpt lat="44.39797" lon="3.83639">
        <ele>1545.46</ele>
        <time>2014-06-08T10:35:21Z</time>
      </trkpt>
      <trkpt lat="44.39793" lon="3.83632">
        <ele>1544.01</ele>
        <time>2014-06-08T10:35:24Z</time>
      </trkpt>
      <trkpt lat="44.3979" lon="3.83621">
        <ele>1542.09</ele>
        <time>2014-06-08T10:35:29Z</time>
      </trkpt>
      <trkpt lat="44.3979" lon="3.8362">
        <ele>1541.61</ele>
        <time>2014-06-08T10:35:43Z</time>
      </trkpt>
      <trkpt lat="44.39785" lon="3.8361">
        <ele>1540.65</ele>
        <time>2014-06-08T10:35:48Z</time>
      </trkpt>
      <trkpt lat="44.39784" lon="3.83597">
        <ele>1538.25</ele>
        <time>2014-06-08T10:35:58Z</time>
      </trkpt>
      <trkpt lat="44.39784" lon="3.83597">
        <ele>1538.73</ele>
        <time>2014-06-08T10:36:04Z</time>
      </trkpt>
      <trkpt lat="44.39781" lon="3.83586">
        <ele>1536.8</ele>
        <time>2014-06-08T10:36:09Z</time>
      </trkpt>
      <trkpt lat="44.39773" lon="3.83573">
        <ele>1534.4</ele>
        <time>2014-06-08T10:36:15Z</time>
      </trkpt>
      <trkpt lat="44.39772" lon="3.83572">
        <ele>1533.44</ele>
        <time>2014-06-08T10:36:16Z</time>
      </trkpt>
      <trkpt lat="44.39767" lon="3.83558">
        <ele>1531.52</ele>
        <time>2014-06-08T10:36:21Z</time>
      </trkpt>
      <trkpt lat="44.39766" lon="3.83555">
        <ele>1530.56</ele>
        <time>2014-06-08T10:36:29Z</time>
      </trkpt>
      <trkpt lat="44.39766" lon="3.83555">
        <ele>1530.56</ele>
        <time>2014-06-08T10:36:37Z</time>
      </trkpt>
      <trkpt lat="44.3976" lon="3.8355">
        <ele>1529.11</ele>
        <time>2014-06-08T10:36:40Z</time>
      </trkpt>
      <trkpt lat="44.39753" lon="3.83538">
        <ele>1527.19</ele>
        <time>2014-06-08T10:36:44Z</time>
      </trkpt>
      <trkpt lat="44.39739" lon="3.8353">
        <ele>1524.31</ele>
        <time>2014-06-08T10:36:53Z</time>
      </trkpt>
      <trkpt lat="44.39738" lon="3.83526">
        <ele>1523.83</ele>
        <time>2014-06-08T10:37:05Z</time>
      </trkpt>
      <trkpt lat="44.39738" lon="3.83526">
        <ele>1523.83</ele>
        <time>2014-06-08T10:37:13Z</time>
      </trkpt>
      <trkpt lat="44.39734" lon="3.83522">
        <ele>1523.35</ele>
        <time>2014-06-08T10:37:16Z</time>
      </trkpt>
      <trkpt lat="44.3973" lon="3.83518">
        <ele>1522.87</ele>
        <time>2014-06-08T10:37:20Z</time>
      </trkpt>
      <trkpt lat="44.39724" lon="3.83509">
        <ele>1520.94</ele>
        <time>2014-06-08T10:37:29Z</time>
      </trkpt>
      <trkpt lat="44.39724" lon="3.83509">
        <ele>1520.94</ele>
        <time>2014-06-08T10:37:46Z</time>
      </trkpt>
      <trkpt lat="44.39725" lon="3.83508">
        <ele>1520.94</ele>
        <time>2014-06-08T10:37:59Z</time>
      </trkpt>
      <trkpt lat="44.39725" lon="3.83508">
        <ele>1520.94</ele>
        <time>2014-06-08T10:38:09Z</time>
      </trkpt>
      <trkpt lat="44.39726" lon="3.83505">
        <ele>1519.98</ele>
        <time>2014-06-08T10:38:11Z</time>
      </trkpt>
      <trkpt lat="44.39719" lon="3.83502">
        <ele>1519.5</ele>
        <time>2014-06-08T10:38:23Z</time>
      </trkpt>
      <trkpt lat="44.39713" lon="3.83498">
        <ele>1518.54</ele>
        <time>2014-06-08T10:38:30Z</time>
      </trkpt>
      <trkpt lat="44.39704" lon="3.83487">
        <ele>1517.58</ele>
        <time>2014-06-08T10:38:39Z</time>
      </trkpt>
      <trkpt lat="44.397" lon="3.83483">
        <ele>1516.14</ele>
        <time>2014-06-08T10:38:51Z</time>
      </trkpt>
      <trkpt lat="44.39695" lon="3.83476">
        <ele>1514.69</ele>
        <time>2014-06-08T10:39:01Z</time>
      </trkpt>
      <trkpt lat="44.39689" lon="3.83468">
        <ele>1513.25</ele>
        <time>2014-06-08T10:39:15Z</time>
      </trkpt>
      <trkpt lat="44.39688" lon="3.83466">
        <ele>1512.77</ele>
        <time>2014-06-08T10:39:25Z</time>
      </trkpt>
      <trkpt lat="44.39677" lon="3.83458">
        <ele>1511.33</ele>
        <time>2014-06-08T10:39:31Z</time>
      </trkpt>
      <trkpt lat="44.3967" lon="3.83455">
        <ele>1510.37</ele>
        <time>2014-06-08T10:39:34Z</time>
      </trkpt>
      <trkpt lat="44.39666" lon="3.83454">
        <ele>1509.41</ele>
        <time>2014-06-08T10:39:45Z</time>
      </trkpt>
      <trkpt lat="44.39666" lon="3.83454">
        <ele>1508.93</ele>
        <time>2014-06-08T10:40:14Z</time>
      </trkpt>
      <trkpt lat="44.39665" lon="3.83454">
        <ele>1509.41</ele>
        <time>2014-06-08T10:40:27Z</time>
      </trkpt>
      <trkpt lat="44.39665" lon="3.83454">
        <ele>1509.41</ele>
        <time>2014-06-08T10:40:32Z</time>
      </trkpt>
      <trkpt lat="44.39653" lon="3.83449">
        <ele>1507.97</ele>
        <time>2014-06-08T10:40:37Z</time>
      </trkpt>
      <trkpt lat="44.3965" lon="3.83447">
        <ele>1507.48</ele>
        <time>2014-06-08T10:40:38Z</time>
      </trkpt>
      <trkpt lat="44.39647" lon="3.83447">
        <ele>1507</ele>
        <time>2014-06-08T10:40:39Z</time>
      </trkpt>
      <trkpt lat="44.39645" lon="3.83449">
        <ele>1506.52</ele>
        <time>2014-06-08T10:40:40Z</time>
      </trkpt>
      <trkpt lat="44.3964" lon="3.83454">
        <ele>1506.52</ele>
        <time>2014-06-08T10:40:48Z</time>
      </trkpt>
      <trkpt lat="44.39639" lon="3.83457">
        <ele>1506.04</ele>
        <time>2014-06-08T10:41:02Z</time>
      </trkpt>
      <trkpt lat="44.39638" lon="3.83457">
        <ele>1506.52</ele>
        <time>2014-06-08T10:41:14Z</time>
      </trkpt>
      <trkpt lat="44.39648" lon="3.83448">
        <ele>1507.48</ele>
        <time>2014-06-08T10:41:27Z</time>
      </trkpt>
      <trkpt lat="44.39652" lon="3.83446">
        <ele>1507.48</ele>
        <time>2014-06-08T10:41:38Z</time>
      </trkpt>
      <trkpt lat="44.39653" lon="3.83445">
        <ele>1507.48</ele>
        <time>2014-06-08T10:41:39Z</time>
      </trkpt>
      <trkpt lat="44.3964" lon="3.83435">
        <ele>1505.08</ele>
        <time>2014-06-08T10:41:49Z</time>
      </trkpt>
      <trkpt lat="44.39636" lon="3.83437">
        <ele>1504.12</ele>
        <time>2014-06-08T10:41:56Z</time>
      </trkpt>
      <trkpt lat="44.39623" lon="3.83421">
        <ele>1501.24</ele>
        <time>2014-06-08T10:42:06Z</time>
      </trkpt>
      <trkpt lat="44.3962" lon="3.83422">
        <ele>1500.27</ele>
        <time>2014-06-08T10:42:17Z</time>
      </trkpt>
      <trkpt lat="44.39618" lon="3.83421">
        <ele>1500.76</ele>
        <time>2014-06-08T10:42:19Z</time>
      </trkpt>
      <trkpt lat="44.39598" lon="3.83416">
        <ele>1498.35</ele>
        <time>2014-06-08T10:42:28Z</time>
      </trkpt>
      <trkpt lat="44.39588" lon="3.83415">
        <ele>1496.91</ele>
        <time>2014-06-08T10:42:33Z</time>
      </trkpt>
      <trkpt lat="44.39586" lon="3.83401">
        <ele>1495.95</ele>
        <time>2014-06-08T10:42:42Z</time>
      </trkpt>
      <trkpt lat="44.39583" lon="3.83401">
        <ele>1494.99</ele>
        <time>2014-06-08T10:42:57Z</time>
      </trkpt>
      <trkpt lat="44.39579" lon="3.83399">
        <ele>1494.51</ele>
        <time>2014-06-08T10:43:02Z</time>
      </trkpt>
      <trkpt lat="44.39574" lon="3.834">
        <ele>1493.55</ele>
        <time>2014-06-08T10:43:15Z</time>
      </trkpt>
      <trkpt lat="44.39573" lon="3.834">
        <ele>1493.55</ele>
        <time>2014-06-08T10:43:24Z</time>
      </trkpt>
      <trkpt lat="44.39555" lon="3.83384">
        <ele>1490.18</ele>
        <time>2014-06-08T10:43:31Z</time>
      </trkpt>
      <trkpt lat="44.39546" lon="3.83376">
        <ele>1488.74</ele>
        <time>2014-06-08T10:43:33Z</time>
      </trkpt>
      <trkpt lat="44.39542" lon="3.83373">
        <ele>1487.78</ele>
        <time>2014-06-08T10:43:34Z</time>
      </trkpt>
      <trkpt lat="44.39537" lon="3.83367">
        <ele>1486.82</ele>
        <time>2014-06-08T10:43:36Z</time>
      </trkpt>
      <trkpt lat="44.39535" lon="3.83364">
        <ele>1487.3</ele>
        <time>2014-06-08T10:43:37Z</time>
      </trkpt>
      <trkpt lat="44.39534" lon="3.83362">
        <ele>1486.82</ele>
        <time>2014-06-08T10:43:38Z</time>
      </trkpt>
      <trkpt lat="44.39532" lon="3.83359">
        <ele>1486.82</ele>
        <time>2014-06-08T10:43:39Z</time>
      </trkpt>
      <trkpt lat="44.3953" lon="3.83357">
        <ele>1486.34</ele>
        <time>2014-06-08T10:43:40Z</time>
      </trkpt>
      <trkpt lat="44.39528" lon="3.83355">
        <ele>1485.85</ele>
        <time>2014-06-08T10:43:41Z</time>
      </trkpt>
      <trkpt lat="44.39525" lon="3.83354">
        <ele>1484.89</ele>
        <time>2014-06-08T10:43:42Z</time>
      </trkpt>
      <trkpt lat="44.39523" lon="3.83353">
        <ele>1484.89</ele>
        <time>2014-06-08T10:43:43Z</time>
      </trkpt>
      <trkpt lat="44.3952" lon="3.83352">
        <ele>1484.41</ele>
        <time>2014-06-08T10:43:44Z</time>
      </trkpt>
      <trkpt lat="44.39518" lon="3.83351">
        <ele>1484.41</ele>
        <time>2014-06-08T10:43:45Z</time>
      </trkpt>
      <trkpt lat="44.39516" lon="3.83348">
        <ele>1484.41</ele>
        <time>2014-06-08T10:43:46Z</time>
      </trkpt>
      <trkpt lat="44.39514" lon="3.83344">
        <ele>1483.93</ele>
        <time>2014-06-08T10:43:47Z</time>
      </trkpt>
      <trkpt lat="44.3951" lon="3.83338">
        <ele>1483.45</ele>
        <time>2014-06-08T10:43:49Z</time>
      </trkpt>
      <trkpt lat="44.39507" lon="3.83336">
        <ele>1482.97</ele>
        <time>2014-06-08T10:43:50Z</time>
      </trkpt>
      <trkpt lat="44.39498" lon="3.83331">
        <ele>1481.53</ele>
        <time>2014-06-08T10:43:53Z</time>
      </trkpt>
      <trkpt lat="44.39495" lon="3.83331">
        <ele>1481.05</ele>
        <time>2014-06-08T10:43:54Z</time>
      </trkpt>
      <trkpt lat="44.39493" lon="3.83331">
        <ele>1480.57</ele>
        <time>2014-06-08T10:43:55Z</time>
      </trkpt>
      <trkpt lat="44.39491" lon="3.83329">
        <ele>1480.57</ele>
        <time>2014-06-08T10:43:56Z</time>
      </trkpt>
      <trkpt lat="44.39489" lon="3.83327">
        <ele>1480.09</ele>
        <time>2014-06-08T10:43:57Z</time>
      </trkpt>
      <trkpt lat="44.39486" lon="3.83326">
        <ele>1479.61</ele>
        <time>2014-06-08T10:43:58Z</time>
      </trkpt>
      <trkpt lat="44.39472" lon="3.83319">
        <ele>1479.13</ele>
        <time>2014-06-08T10:44:05Z</time>
      </trkpt>
      <trkpt lat="44.3947" lon="3.83317">
        <ele>1479.13</ele>
        <time>2014-06-08T10:44:06Z</time>
      </trkpt>
      <trkpt lat="44.39469" lon="3.83314">
        <ele>1479.61</ele>
        <time>2014-06-08T10:44:07Z</time>
      </trkpt>
      <trkpt lat="44.39468" lon="3.83313">
        <ele>1479.61</ele>
        <time>2014-06-08T10:44:08Z</time>
      </trkpt>
      <trkpt lat="44.39467" lon="3.83311">
        <ele>1479.61</ele>
        <time>2014-06-08T10:44:09Z</time>
      </trkpt>
      <trkpt lat="44.39465" lon="3.8331">
        <ele>1479.61</ele>
        <time>2014-06-08T10:44:10Z</time>
      </trkpt>
      <trkpt lat="44.39457" lon="3.83306">
        <ele>1479.61</ele>
        <time>2014-06-08T10:44:21Z</time>
      </trkpt>
      <trkpt lat="44.39455" lon="3.83306">
        <ele>1479.61</ele>
        <time>2014-06-08T10:44:42Z</time>
      </trkpt>
      <trkpt lat="44.39454" lon="3.83305">
        <ele>1479.61</ele>
        <time>2014-06-08T10:44:43Z</time>
      </trkpt>
      <trkpt lat="44.39453" lon="3.83304">
        <ele>1479.61</ele>
        <time>2014-06-08T10:44:44Z</time>
      </trkpt>
      <trkpt lat="44.39445" lon="3.83303">
        <ele>1479.61</ele>
        <time>2014-06-08T10:44:48Z</time>
      </trkpt>
      <trkpt lat="44.39443" lon="3.83302">
        <ele>1479.13</ele>
        <time>2014-06-08T10:44:49Z</time>
      </trkpt>
      <trkpt lat="44.39441" lon="3.83301">
        <ele>1479.61</ele>
        <time>2014-06-08T10:44:50Z</time>
      </trkpt>
      <trkpt lat="44.39439" lon="3.83301">
        <ele>1479.61</ele>
        <time>2014-06-08T10:44:51Z</time>
      </trkpt>
      <trkpt lat="44.39437" lon="3.833">
        <ele>1479.61</ele>
        <time>2014-06-08T10:44:52Z</time>
      </trkpt>
      <trkpt lat="44.39435" lon="3.83299">
        <ele>1479.61</ele>
        <time>2014-06-08T10:44:53Z</time>
      </trkpt>
      <trkpt lat="44.39433" lon="3.83298">
        <ele>1479.61</ele>
        <time>2014-06-08T10:44:54Z</time>
      </trkpt>
      <trkpt lat="44.39431" lon="3.83297">
        <ele>1479.61</ele>
        <time>2014-06-08T10:44:55Z</time>
      </trkpt>
      <trkpt lat="44.39429" lon="3.83297">
        <ele>1479.61</ele>
        <time>2014-06-08T10:44:56Z</time>
      </trkpt>
      <trkpt lat="44.39421" lon="3.83297">
        <ele>1479.13</ele>
        <time>2014-06-08T10:44:59Z</time>
      </trkpt>
      <trkpt lat="44.39419" lon="3.83295">
        <ele>1479.13</ele>
        <time>2014-06-08T10:45:00Z</time>
      </trkpt>
      <trkpt lat="44.39417" lon="3.83292">
        <ele>1479.13</ele>
        <time>2014-06-08T10:45:01Z</time>
      </trkpt>
      <trkpt lat="44.39415" lon="3.8329">
        <ele>1479.61</ele>
        <time>2014-06-08T10:45:02Z</time>
      </trkpt>
      <trkpt lat="44.39413" lon="3.83289">
        <ele>1479.61</ele>
        <time>2014-06-08T10:45:03Z</time>
      </trkpt>
      <trkpt lat="44.3941" lon="3.83288">
        <ele>1479.61</ele>
        <time>2014-06-08T10:45:04Z</time>
      </trkpt>
      <trkpt lat="44.3939" lon="3.83277">
        <ele>1479.61</ele>
        <time>2014-06-08T10:45:14Z</time>
      </trkpt>
      <trkpt lat="44.39389" lon="3.83276">
        <ele>1480.09</ele>
        <time>2014-06-08T10:45:15Z</time>
      </trkpt>
      <trkpt lat="44.39382" lon="3.83272">
        <ele>1479.13</ele>
        <time>2014-06-08T10:45:18Z</time>
      </trkpt>
      <trkpt lat="44.3938" lon="3.83272">
        <ele>1479.61</ele>
        <time>2014-06-08T10:45:19Z</time>
      </trkpt>
      <trkpt lat="44.39379" lon="3.83271">
        <ele>1479.61</ele>
        <time>2014-06-08T10:45:20Z</time>
      </trkpt>
      <trkpt lat="44.39374" lon="3.83267">
        <ele>1480.09</ele>
        <time>2014-06-08T10:45:23Z</time>
      </trkpt>
      <trkpt lat="44.39362" lon="3.83265">
        <ele>1479.61</ele>
        <time>2014-06-08T10:45:29Z</time>
      </trkpt>
      <trkpt lat="44.3936" lon="3.83264">
        <ele>1479.61</ele>
        <time>2014-06-08T10:45:30Z</time>
      </trkpt>
      <trkpt lat="44.39357" lon="3.83264">
        <ele>1479.13</ele>
        <time>2014-06-08T10:45:31Z</time>
      </trkpt>
      <trkpt lat="44.39355" lon="3.83262">
        <ele>1479.13</ele>
        <time>2014-06-08T10:45:32Z</time>
      </trkpt>
      <trkpt lat="44.39352" lon="3.83261">
        <ele>1479.61</ele>
        <time>2014-06-08T10:45:33Z</time>
      </trkpt>
      <trkpt lat="44.3935" lon="3.8326">
        <ele>1479.13</ele>
        <time>2014-06-08T10:45:34Z</time>
      </trkpt>
      <trkpt lat="44.39348" lon="3.83259">
        <ele>1479.61</ele>
        <time>2014-06-08T10:45:35Z</time>
      </trkpt>
      <trkpt lat="44.39346" lon="3.83258">
        <ele>1479.13</ele>
        <time>2014-06-08T10:45:36Z</time>
      </trkpt>
      <trkpt lat="44.39344" lon="3.83256">
        <ele>1479.13</ele>
        <time>2014-06-08T10:45:37Z</time>
      </trkpt>
      <trkpt lat="44.39342" lon="3.83254">
        <ele>1479.13</ele>
        <time>2014-06-08T10:45:38Z</time>
      </trkpt>
      <trkpt lat="44.3934" lon="3.83253">
        <ele>1478.65</ele>
        <time>2014-06-08T10:45:39Z</time>
      </trkpt>
      <trkpt lat="44.39338" lon="3.83252">
        <ele>1479.13</ele>
        <time>2014-06-08T10:45:40Z</time>
      </trkpt>
      <trkpt lat="44.39336" lon="3.8325">
        <ele>1479.13</ele>
        <time>2014-06-08T10:45:41Z</time>
      </trkpt>
      <trkpt lat="44.39334" lon="3.83249">
        <ele>1479.13</ele>
        <time>2014-06-08T10:45:42Z</time>
      </trkpt>
      <trkpt lat="44.39333" lon="3.83247">
        <ele>1479.13</ele>
        <time>2014-06-08T10:45:43Z</time>
      </trkpt>
      <trkpt lat="44.39332" lon="3.83245">
        <ele>1479.61</ele>
        <time>2014-06-08T10:45:44Z</time>
      </trkpt>
      <trkpt lat="44.3933" lon="3.83244">
        <ele>1479.61</ele>
        <time>2014-06-08T10:45:45Z</time>
      </trkpt>
      <trkpt lat="44.39328" lon="3.83244">
        <ele>1479.13</ele>
        <time>2014-06-08T10:45:46Z</time>
      </trkpt>
      <trkpt lat="44.39326" lon="3.83243">
        <ele>1479.13</ele>
        <time>2014-06-08T10:45:47Z</time>
      </trkpt>
      <trkpt lat="44.39321" lon="3.83237">
        <ele>1479.13</ele>
        <time>2014-06-08T10:45:50Z</time>
      </trkpt>
      <trkpt lat="44.39303" lon="3.83221">
        <ele>1479.13</ele>
        <time>2014-06-08T10:46:00Z</time>
      </trkpt>
      <trkpt lat="44.39301" lon="3.83219">
        <ele>1479.13</ele>
        <time>2014-06-08T10:46:01Z</time>
      </trkpt>
      <trkpt lat="44.39299" lon="3.83218">
        <ele>1479.13</ele>
        <time>2014-06-08T10:46:02Z</time>
      </trkpt>
      <trkpt lat="44.39297" lon="3.83216">
        <ele>1478.65</ele>
        <time>2014-06-08T10:46:03Z</time>
      </trkpt>
      <trkpt lat="44.39295" lon="3.83214">
        <ele>1478.65</ele>
        <time>2014-06-08T10:46:04Z</time>
      </trkpt>
      <trkpt lat="44.39293" lon="3.83212">
        <ele>1478.65</ele>
        <time>2014-06-08T10:46:05Z</time>
      </trkpt>
      <trkpt lat="44.39292" lon="3.8321">
        <ele>1478.65</ele>
        <time>2014-06-08T10:46:06Z</time>
      </trkpt>
      <trkpt lat="44.39291" lon="3.83209">
        <ele>1478.65</ele>
        <time>2014-06-08T10:46:07Z</time>
      </trkpt>
      <trkpt lat="44.39289" lon="3.83208">
        <ele>1478.65</ele>
        <time>2014-06-08T10:46:08Z</time>
      </trkpt>
      <trkpt lat="44.39287" lon="3.83206">
        <ele>1478.16</ele>
        <time>2014-06-08T10:46:09Z</time>
      </trkpt>
      <trkpt lat="44.39286" lon="3.83204">
        <ele>1478.65</ele>
        <time>2014-06-08T10:46:10Z</time>
      </trkpt>
      <trkpt lat="44.39285" lon="3.83202">
        <ele>1478.65</ele>
        <time>2014-06-08T10:46:11Z</time>
      </trkpt>
      <trkpt lat="44.39283" lon="3.83201">
        <ele>1478.16</ele>
        <time>2014-06-08T10:46:12Z</time>
      </trkpt>
      <trkpt lat="44.39277" lon="3.83199">
        <ele>1477.68</ele>
        <time>2014-06-08T10:46:16Z</time>
      </trkpt>
      <trkpt lat="44.39276" lon="3.83198">
        <ele>1477.68</ele>
        <time>2014-06-08T10:46:17Z</time>
      </trkpt>
      <trkpt lat="44.39274" lon="3.83197">
        <ele>1477.68</ele>
        <time>2014-06-08T10:46:18Z</time>
      </trkpt>
      <trkpt lat="44.39265" lon="3.83192">
        <ele>1477.68</ele>
        <time>2014-06-08T10:46:23Z</time>
      </trkpt>
      <trkpt lat="44.39263" lon="3.83191">
        <ele>1477.2</ele>
        <time>2014-06-08T10:46:24Z</time>
      </trkpt>
      <trkpt lat="44.39262" lon="3.8319">
        <ele>1477.2</ele>
        <time>2014-06-08T10:46:25Z</time>
      </trkpt>
      <trkpt lat="44.3926" lon="3.83189">
        <ele>1477.2</ele>
        <time>2014-06-08T10:46:26Z</time>
      </trkpt>
      <trkpt lat="44.39259" lon="3.83188">
        <ele>1476.72</ele>
        <time>2014-06-08T10:46:27Z</time>
      </trkpt>
      <trkpt lat="44.39257" lon="3.83188">
        <ele>1476.72</ele>
        <time>2014-06-08T10:46:28Z</time>
      </trkpt>
      <trkpt lat="44.39255" lon="3.83187">
        <ele>1476.72</ele>
        <time>2014-06-08T10:46:29Z</time>
      </trkpt>
      <trkpt lat="44.39253" lon="3.83186">
        <ele>1476.24</ele>
        <time>2014-06-08T10:46:30Z</time>
      </trkpt>
      <trkpt lat="44.39251" lon="3.83185">
        <ele>1476.72</ele>
        <time>2014-06-08T10:46:31Z</time>
      </trkpt>
      <trkpt lat="44.39249" lon="3.83184">
        <ele>1476.24</ele>
        <time>2014-06-08T10:46:32Z</time>
      </trkpt>
      <trkpt lat="44.39247" lon="3.83182">
        <ele>1476.24</ele>
        <time>2014-06-08T10:46:33Z</time>
      </trkpt>
      <trkpt lat="44.39245" lon="3.83181">
        <ele>1475.76</ele>
        <time>2014-06-08T10:46:34Z</time>
      </trkpt>
      <trkpt lat="44.39243" lon="3.83179">
        <ele>1475.76</ele>
        <time>2014-06-08T10:46:35Z</time>
      </trkpt>
      <trkpt lat="44.3924" lon="3.83178">
        <ele>1475.76</ele>
        <time>2014-06-08T10:46:36Z</time>
      </trkpt>
      <trkpt lat="44.39237" lon="3.83177">
        <ele>1475.76</ele>
        <time>2014-06-08T10:46:37Z</time>
      </trkpt>
      <trkpt lat="44.39234" lon="3.83176">
        <ele>1475.28</ele>
        <time>2014-06-08T10:46:38Z</time>
      </trkpt>
      <trkpt lat="44.39231" lon="3.83176">
        <ele>1475.28</ele>
        <time>2014-06-08T10:46:39Z</time>
      </trkpt>
      <trkpt lat="44.3922" lon="3.83174">
        <ele>1474.8</ele>
        <time>2014-06-08T10:46:43Z</time>
      </trkpt>
      <trkpt lat="44.39218" lon="3.83174">
        <ele>1474.32</ele>
        <time>2014-06-08T10:46:44Z</time>
      </trkpt>
      <trkpt lat="44.39216" lon="3.83173">
        <ele>1474.32</ele>
        <time>2014-06-08T10:46:45Z</time>
      </trkpt>
      <trkpt lat="44.39214" lon="3.83172">
        <ele>1474.32</ele>
        <time>2014-06-08T10:46:46Z</time>
      </trkpt>
      <trkpt lat="44.39211" lon="3.83171">
        <ele>1474.32</ele>
        <time>2014-06-08T10:46:47Z</time>
      </trkpt>
      <trkpt lat="44.3921" lon="3.83171">
        <ele>1474.32</ele>
        <time>2014-06-08T10:46:48Z</time>
      </trkpt>
      <trkpt lat="44.39207" lon="3.8317">
        <ele>1474.32</ele>
        <time>2014-06-08T10:46:49Z</time>
      </trkpt>
      <trkpt lat="44.39205" lon="3.83169">
        <ele>1473.84</ele>
        <time>2014-06-08T10:46:50Z</time>
      </trkpt>
      <trkpt lat="44.39203" lon="3.83168">
        <ele>1473.84</ele>
        <time>2014-06-08T10:46:51Z</time>
      </trkpt>
      <trkpt lat="44.39202" lon="3.83168">
        <ele>1473.84</ele>
        <time>2014-06-08T10:46:52Z</time>
      </trkpt>
      <trkpt lat="44.392" lon="3.83167">
        <ele>1473.36</ele>
        <time>2014-06-08T10:46:53Z</time>
      </trkpt>
      <trkpt lat="44.39198" lon="3.83165">
        <ele>1473.36</ele>
        <time>2014-06-08T10:46:54Z</time>
      </trkpt>
      <trkpt lat="44.39176" lon="3.8315">
        <ele>1471.92</ele>
        <time>2014-06-08T10:47:05Z</time>
      </trkpt>
      <trkpt lat="44.39173" lon="3.83151">
        <ele>1471.92</ele>
        <time>2014-06-08T10:47:06Z</time>
      </trkpt>
      <trkpt lat="44.39171" lon="3.83151">
        <ele>1471.44</ele>
        <time>2014-06-08T10:47:07Z</time>
      </trkpt>
      <trkpt lat="44.39169" lon="3.8315">
        <ele>1471.44</ele>
        <time>2014-06-08T10:47:08Z</time>
      </trkpt>
      <trkpt lat="44.39167" lon="3.83149">
        <ele>1471.44</ele>
        <time>2014-06-08T10:47:09Z</time>
      </trkpt>
      <trkpt lat="44.39165" lon="3.83149">
        <ele>1471.44</ele>
        <time>2014-06-08T10:47:10Z</time>
      </trkpt>
      <trkpt lat="44.39163" lon="3.83148">
        <ele>1471.44</ele>
        <time>2014-06-08T10:47:11Z</time>
      </trkpt>
      <trkpt lat="44.39161" lon="3.83148">
        <ele>1470.95</ele>
        <time>2014-06-08T10:47:12Z</time>
      </trkpt>
      <trkpt lat="44.39159" lon="3.83148">
        <ele>1470.95</ele>
        <time>2014-06-08T10:47:13Z</time>
      </trkpt>
      <trkpt lat="44.39158" lon="3.83147">
        <ele>1470.95</ele>
        <time>2014-06-08T10:47:14Z</time>
      </trkpt>
      <trkpt lat="44.39156" lon="3.83146">
        <ele>1470.47</ele>
        <time>2014-06-08T10:47:15Z</time>
      </trkpt>
      <trkpt lat="44.39154" lon="3.83144">
        <ele>1470.47</ele>
        <time>2014-06-08T10:47:16Z</time>
      </trkpt>
      <trkpt lat="44.39154" lon="3.83144">
        <ele>1469.99</ele>
        <time>2014-06-08T10:47:27Z</time>
      </trkpt>
      <trkpt lat="44.39142" lon="3.83138">
        <ele>1469.03</ele>
        <time>2014-06-08T10:47:43Z</time>
      </trkpt>
      <trkpt lat="44.39126" lon="3.8313">
        <ele>1468.07</ele>
        <time>2014-06-08T10:47:49Z</time>
      </trkpt>
      <trkpt lat="44.39104" lon="3.83126">
        <ele>1466.15</ele>
        <time>2014-06-08T10:47:56Z</time>
      </trkpt>
      <trkpt lat="44.39101" lon="3.83126">
        <ele>1466.15</ele>
        <time>2014-06-08T10:47:57Z</time>
      </trkpt>
      <trkpt lat="44.3908" lon="3.83129">
        <ele>1463.74</ele>
        <time>2014-06-08T10:48:03Z</time>
      </trkpt>
      <trkpt lat="44.39042" lon="3.83131">
        <ele>1462.3</ele>
        <time>2014-06-08T10:48:14Z</time>
      </trkpt>
      <trkpt lat="44.39011" lon="3.83135">
        <ele>1462.3</ele>
        <time>2014-06-08T10:48:26Z</time>
      </trkpt>
      <trkpt lat="44.38987" lon="3.83137">
        <ele>1463.26</ele>
        <time>2014-06-08T10:48:37Z</time>
      </trkpt>
      <trkpt lat="44.38961" lon="3.83139">
        <ele>1463.74</ele>
        <time>2014-06-08T10:48:49Z</time>
      </trkpt>
      <trkpt lat="44.38921" lon="3.83165">
        <ele>1462.3</ele>
        <time>2014-06-08T10:49:07Z</time>
      </trkpt>
      <trkpt lat="44.38919" lon="3.83167">
        <ele>1462.3</ele>
        <time>2014-06-08T10:49:08Z</time>
      </trkpt>
      <trkpt lat="44.38917" lon="3.8317">
        <ele>1461.82</ele>
        <time>2014-06-08T10:49:09Z</time>
      </trkpt>
      <trkpt lat="44.38885" lon="3.83193">
        <ele>1460.86</ele>
        <time>2014-06-08T10:49:23Z</time>
      </trkpt>
      <trkpt lat="44.38854" lon="3.83207">
        <ele>1460.86</ele>
        <time>2014-06-08T10:49:37Z</time>
      </trkpt>
      <trkpt lat="44.38844" lon="3.83217">
        <ele>1460.86</ele>
        <time>2014-06-08T10:49:44Z</time>
      </trkpt>
      <trkpt lat="44.38843" lon="3.83219">
        <ele>1461.34</ele>
        <time>2014-06-08T10:49:45Z</time>
      </trkpt>
      <trkpt lat="44.38842" lon="3.83222">
        <ele>1460.86</ele>
        <time>2014-06-08T10:49:46Z</time>
      </trkpt>
      <trkpt lat="44.38841" lon="3.83224">
        <ele>1460.86</ele>
        <time>2014-06-08T10:49:47Z</time>
      </trkpt>
      <trkpt lat="44.38839" lon="3.83226">
        <ele>1460.86</ele>
        <time>2014-06-08T10:49:48Z</time>
      </trkpt>
      <trkpt lat="44.38838" lon="3.83227">
        <ele>1460.86</ele>
        <time>2014-06-08T10:49:49Z</time>
      </trkpt>
      <trkpt lat="44.38836" lon="3.83229">
        <ele>1460.38</ele>
        <time>2014-06-08T10:49:50Z</time>
      </trkpt>
      <trkpt lat="44.38834" lon="3.83231">
        <ele>1460.86</ele>
        <time>2014-06-08T10:49:51Z</time>
      </trkpt>
      <trkpt lat="44.38832" lon="3.83233">
        <ele>1460.86</ele>
        <time>2014-06-08T10:49:52Z</time>
      </trkpt>
      <trkpt lat="44.3883" lon="3.83234">
        <ele>1460.86</ele>
        <time>2014-06-08T10:49:53Z</time>
      </trkpt>
      <trkpt lat="44.38829" lon="3.83236">
        <ele>1460.38</ele>
        <time>2014-06-08T10:49:54Z</time>
      </trkpt>
      <trkpt lat="44.38827" lon="3.83237">
        <ele>1460.38</ele>
        <time>2014-06-08T10:49:55Z</time>
      </trkpt>
      <trkpt lat="44.38825" lon="3.83238">
        <ele>1460.38</ele>
        <time>2014-06-08T10:49:56Z</time>
      </trkpt>
      <trkpt lat="44.38805" lon="3.83255">
        <ele>1459.9</ele>
        <time>2014-06-08T10:50:07Z</time>
      </trkpt>
      <trkpt lat="44.3878" lon="3.83272">
        <ele>1459.42</ele>
        <time>2014-06-08T10:50:19Z</time>
      </trkpt>
      <trkpt lat="44.38751" lon="3.83285">
        <ele>1456.05</ele>
        <time>2014-06-08T10:50:29Z</time>
      </trkpt>
      <trkpt lat="44.38749" lon="3.83285">
        <ele>1455.57</ele>
        <time>2014-06-08T10:50:30Z</time>
      </trkpt>
      <trkpt lat="44.38736" lon="3.83287">
        <ele>1454.13</ele>
        <time>2014-06-08T10:50:38Z</time>
      </trkpt>
      <trkpt lat="44.38731" lon="3.83288">
        <ele>1454.13</ele>
        <time>2014-06-08T10:50:45Z</time>
      </trkpt>
      <trkpt lat="44.38723" lon="3.83289">
        <ele>1452.21</ele>
        <time>2014-06-08T10:50:58Z</time>
      </trkpt>
      <trkpt lat="44.38722" lon="3.83289">
        <ele>1452.21</ele>
        <time>2014-06-08T10:50:59Z</time>
      </trkpt>
      <trkpt lat="44.3872" lon="3.83289">
        <ele>1451.73</ele>
        <time>2014-06-08T10:51:00Z</time>
      </trkpt>
      <trkpt lat="44.38714" lon="3.83293">
        <ele>1451.25</ele>
        <time>2014-06-08T10:51:12Z</time>
      </trkpt>
      <trkpt lat="44.38714" lon="3.83295">
        <ele>1450.77</ele>
        <time>2014-06-08T10:51:39Z</time>
      </trkpt>
      <trkpt lat="44.38713" lon="3.83296">
        <ele>1450.29</ele>
        <time>2014-06-08T10:51:48Z</time>
      </trkpt>
      <trkpt lat="44.38712" lon="3.83297">
        <ele>1449.81</ele>
        <time>2014-06-08T10:51:49Z</time>
      </trkpt>
      <trkpt lat="44.3871" lon="3.83298">
        <ele>1449.81</ele>
        <time>2014-06-08T10:51:50Z</time>
      </trkpt>
      <trkpt lat="44.38706" lon="3.83296">
        <ele>1449.32</ele>
        <time>2014-06-08T10:51:54Z</time>
      </trkpt>
      <trkpt lat="44.38705" lon="3.83297">
        <ele>1449.32</ele>
        <time>2014-06-08T10:51:55Z</time>
      </trkpt>
      <trkpt lat="44.38704" lon="3.83298">
        <ele>1449.32</ele>
        <time>2014-06-08T10:51:56Z</time>
      </trkpt>
      <trkpt lat="44.38703" lon="3.83299">
        <ele>1449.32</ele>
        <time>2014-06-08T10:51:57Z</time>
      </trkpt>
      <trkpt lat="44.38702" lon="3.833">
        <ele>1449.32</ele>
        <time>2014-06-08T10:51:58Z</time>
      </trkpt>
      <trkpt lat="44.38702" lon="3.83302">
        <ele>1449.32</ele>
        <time>2014-06-08T10:51:59Z</time>
      </trkpt>
      <trkpt lat="44.387" lon="3.83312">
        <ele>1448.36</ele>
        <time>2014-06-08T10:52:08Z</time>
      </trkpt>
      <trkpt lat="44.387" lon="3.83316">
        <ele>1447.88</ele>
        <time>2014-06-08T10:52:16Z</time>
      </trkpt>
      <trkpt lat="44.38698" lon="3.83318">
        <ele>1447.4</ele>
        <time>2014-06-08T10:52:17Z</time>
      </trkpt>
      <trkpt lat="44.38696" lon="3.83319">
        <ele>1447.4</ele>
        <time>2014-06-08T10:52:18Z</time>
      </trkpt>
      <trkpt lat="44.38693" lon="3.83321">
        <ele>1446.92</ele>
        <time>2014-06-08T10:52:19Z</time>
      </trkpt>
      <trkpt lat="44.38691" lon="3.83323">
        <ele>1446.44</ele>
        <time>2014-06-08T10:52:20Z</time>
      </trkpt>
      <trkpt lat="44.38687" lon="3.83325">
        <ele>1445.96</ele>
        <time>2014-06-08T10:52:21Z</time>
      </trkpt>
      <trkpt lat="44.38684" lon="3.83327">
        <ele>1445.48</ele>
        <time>2014-06-08T10:52:22Z</time>
      </trkpt>
      <trkpt lat="44.3868" lon="3.83329">
        <ele>1445</ele>
        <time>2014-06-08T10:52:23Z</time>
      </trkpt>
      <trkpt lat="44.38676" lon="3.83332">
        <ele>1444.52</ele>
        <time>2014-06-08T10:52:24Z</time>
      </trkpt>
      <trkpt lat="44.38672" lon="3.83335">
        <ele>1444.04</ele>
        <time>2014-06-08T10:52:25Z</time>
      </trkpt>
      <trkpt lat="44.38643" lon="3.83355">
        <ele>1442.11</ele>
        <time>2014-06-08T10:52:34Z</time>
      </trkpt>
      <trkpt lat="44.38634" lon="3.83361">
        <ele>1441.63</ele>
        <time>2014-06-08T10:52:37Z</time>
      </trkpt>
      <trkpt lat="44.38614" lon="3.83373">
        <ele>1441.15</ele>
        <time>2014-06-08T10:52:47Z</time>
      </trkpt>
      <trkpt lat="44.3861" lon="3.83377">
        <ele>1441.15</ele>
        <time>2014-06-08T10:52:50Z</time>
      </trkpt>
      <trkpt lat="44.38609" lon="3.83377">
        <ele>1440.67</ele>
        <time>2014-06-08T10:52:51Z</time>
      </trkpt>
      <trkpt lat="44.38605" lon="3.83377">
        <ele>1440.19</ele>
        <time>2014-06-08T10:53:03Z</time>
      </trkpt>
      <trkpt lat="44.38591" lon="3.83378">
        <ele>1439.23</ele>
        <time>2014-06-08T10:53:09Z</time>
      </trkpt>
      <trkpt lat="44.38587" lon="3.8338">
        <ele>1440.19</ele>
        <time>2014-06-08T10:53:13Z</time>
      </trkpt>
      <trkpt lat="44.38586" lon="3.8338">
        <ele>1440.67</ele>
        <time>2014-06-08T10:53:14Z</time>
      </trkpt>
      <trkpt lat="44.38585" lon="3.8338">
        <ele>1440.67</ele>
        <time>2014-06-08T10:53:15Z</time>
      </trkpt>
      <trkpt lat="44.38575" lon="3.83381">
        <ele>1440.67</ele>
        <time>2014-06-08T10:53:23Z</time>
      </trkpt>
      <trkpt lat="44.38574" lon="3.83379">
        <ele>1441.63</ele>
        <time>2014-06-08T10:53:24Z</time>
      </trkpt>
      <trkpt lat="44.38574" lon="3.83378">
        <ele>1441.15</ele>
        <time>2014-06-08T10:53:25Z</time>
      </trkpt>
      <trkpt lat="44.38574" lon="3.83376">
        <ele>1441.15</ele>
        <time>2014-06-08T10:53:26Z</time>
      </trkpt>
      <trkpt lat="44.38573" lon="3.83374">
        <ele>1440.67</ele>
        <time>2014-06-08T10:53:27Z</time>
      </trkpt>
      <trkpt lat="44.38573" lon="3.83372">
        <ele>1441.15</ele>
        <time>2014-06-08T10:53:28Z</time>
      </trkpt>
      <trkpt lat="44.38572" lon="3.8337">
        <ele>1440.67</ele>
        <time>2014-06-08T10:53:29Z</time>
      </trkpt>
      <trkpt lat="44.38572" lon="3.83368">
        <ele>1440.67</ele>
        <time>2014-06-08T10:53:30Z</time>
      </trkpt>
      <trkpt lat="44.38571" lon="3.83366">
        <ele>1440.67</ele>
        <time>2014-06-08T10:53:31Z</time>
      </trkpt>
      <trkpt lat="44.38571" lon="3.83364">
        <ele>1440.19</ele>
        <time>2014-06-08T10:53:32Z</time>
      </trkpt>
      <trkpt lat="44.38571" lon="3.83363">
        <ele>1440.19</ele>
        <time>2014-06-08T10:53:33Z</time>
      </trkpt>
      <trkpt lat="44.38571" lon="3.83362">
        <ele>1440.19</ele>
        <time>2014-06-08T10:53:34Z</time>
      </trkpt>
      <trkpt lat="44.38571" lon="3.83358">
        <ele>1440.19</ele>
        <time>2014-06-08T10:53:37Z</time>
      </trkpt>
      <trkpt lat="44.38572" lon="3.83357">
        <ele>1440.19</ele>
        <time>2014-06-08T10:53:38Z</time>
      </trkpt>
      <trkpt lat="44.38573" lon="3.83355">
        <ele>1439.71</ele>
        <time>2014-06-08T10:53:39Z</time>
      </trkpt>
      <trkpt lat="44.38572" lon="3.83354">
        <ele>1439.71</ele>
        <time>2014-06-08T10:53:40Z</time>
      </trkpt>
      <trkpt lat="44.3857" lon="3.83351">
        <ele>1439.23</ele>
        <time>2014-06-08T10:53:42Z</time>
      </trkpt>
      <trkpt lat="44.38567" lon="3.83349">
        <ele>1438.75</ele>
        <time>2014-06-08T10:53:57Z</time>
      </trkpt>
      <trkpt lat="44.38564" lon="3.83327">
        <ele>1435.39</ele>
        <time>2014-06-08T10:54:04Z</time>
      </trkpt>
      <trkpt lat="44.38546" lon="3.83319">
        <ele>1432.5</ele>
        <time>2014-06-08T10:54:10Z</time>
      </trkpt>
      <trkpt lat="44.38539" lon="3.83321">
        <ele>1432.5</ele>
        <time>2014-06-08T10:54:13Z</time>
      </trkpt>
      <trkpt lat="44.3853" lon="3.83321">
        <ele>1431.54</ele>
        <time>2014-06-08T10:54:17Z</time>
      </trkpt>
      <trkpt lat="44.38506" lon="3.83319">
        <ele>1428.66</ele>
        <time>2014-06-08T10:54:26Z</time>
      </trkpt>
      <trkpt lat="44.38495" lon="3.83316">
        <ele>1427.7</ele>
        <time>2014-06-08T10:54:31Z</time>
      </trkpt>
      <trkpt lat="44.38467" lon="3.83324">
        <ele>1423.85</ele>
        <time>2014-06-08T10:54:40Z</time>
      </trkpt>
      <trkpt lat="44.38456" lon="3.83331">
        <ele>1422.89</ele>
        <time>2014-06-08T10:54:43Z</time>
      </trkpt>
      <trkpt lat="44.38438" lon="3.83344">
        <ele>1420.49</ele>
        <time>2014-06-08T10:54:52Z</time>
      </trkpt>
      <trkpt lat="44.38434" lon="3.83346">
        <ele>1419.52</ele>
        <time>2014-06-08T10:55:14Z</time>
      </trkpt>
      <trkpt lat="44.38404" lon="3.8336">
        <ele>1416.64</ele>
        <time>2014-06-08T10:55:25Z</time>
      </trkpt>
      <trkpt lat="44.38397" lon="3.83365">
        <ele>1415.68</ele>
        <time>2014-06-08T10:55:35Z</time>
      </trkpt>
      <trkpt lat="44.38392" lon="3.83363">
        <ele>1415.2</ele>
        <time>2014-06-08T10:55:46Z</time>
      </trkpt>
      <trkpt lat="44.38392" lon="3.83363">
        <ele>1415.2</ele>
        <time>2014-06-08T10:55:48Z</time>
      </trkpt>
      <trkpt lat="44.3838" lon="3.83357">
        <ele>1412.79</ele>
        <time>2014-06-08T10:55:55Z</time>
      </trkpt>
      <trkpt lat="44.3838" lon="3.83357">
        <ele>1412.79</ele>
        <time>2014-06-08T10:55:59Z</time>
      </trkpt>
      <trkpt lat="44.38379" lon="3.8335">
        <ele>1411.83</ele>
        <time>2014-06-08T10:56:07Z</time>
      </trkpt>
      <trkpt lat="44.3838" lon="3.83346">
        <ele>1410.39</ele>
        <time>2014-06-08T10:56:20Z</time>
      </trkpt>
      <trkpt lat="44.38383" lon="3.83343">
        <ele>1410.39</ele>
        <time>2014-06-08T10:56:23Z</time>
      </trkpt>
      <trkpt lat="44.38383" lon="3.83335">
        <ele>1408.95</ele>
        <time>2014-06-08T10:56:29Z</time>
      </trkpt>
      <trkpt lat="44.38385" lon="3.83327">
        <ele>1407.99</ele>
        <time>2014-06-08T10:56:35Z</time>
      </trkpt>
      <trkpt lat="44.38382" lon="3.83323">
        <ele>1406.07</ele>
        <time>2014-06-08T10:56:41Z</time>
      </trkpt>
      <trkpt lat="44.38379" lon="3.83321">
        <ele>1405.58</ele>
        <time>2014-06-08T10:56:54Z</time>
      </trkpt>
      <trkpt lat="44.38374" lon="3.83322">
        <ele>1404.14</ele>
        <time>2014-06-08T10:57:16Z</time>
      </trkpt>
      <trkpt lat="44.38369" lon="3.83317">
        <ele>1403.18</ele>
        <time>2014-06-08T10:57:22Z</time>
      </trkpt>
      <trkpt lat="44.38367" lon="3.83317">
        <ele>1402.7</ele>
        <time>2014-06-08T10:57:24Z</time>
      </trkpt>
      <trkpt lat="44.38362" lon="3.83313">
        <ele>1399.34</ele>
        <time>2014-06-08T10:57:36Z</time>
      </trkpt>
      <trkpt lat="44.3836" lon="3.83311">
        <ele>1396.45</ele>
        <time>2014-06-08T10:57:48Z</time>
      </trkpt>
      <trkpt lat="44.38359" lon="3.8331">
        <ele>1396.45</ele>
        <time>2014-06-08T10:57:49Z</time>
      </trkpt>
      <trkpt lat="44.38351" lon="3.83311">
        <ele>1395.01</ele>
        <time>2014-06-08T10:57:57Z</time>
      </trkpt>
      <trkpt lat="44.38346" lon="3.83311">
        <ele>1395.01</ele>
        <time>2014-06-08T10:58:01Z</time>
      </trkpt>
      <trkpt lat="44.38336" lon="3.83309">
        <ele>1394.05</ele>
        <time>2014-06-08T10:58:13Z</time>
      </trkpt>
      <trkpt lat="44.38332" lon="3.83304">
        <ele>1393.57</ele>
        <time>2014-06-08T10:58:18Z</time>
      </trkpt>
      <trkpt lat="44.38324" lon="3.83299">
        <ele>1391.65</ele>
        <time>2014-06-08T10:58:28Z</time>
      </trkpt>
      <trkpt lat="44.38324" lon="3.83298">
        <ele>1391.17</ele>
        <time>2014-06-08T10:58:38Z</time>
      </trkpt>
      <trkpt lat="44.38318" lon="3.83291">
        <ele>1390.2</ele>
        <time>2014-06-08T10:58:42Z</time>
      </trkpt>
      <trkpt lat="44.38314" lon="3.83288">
        <ele>1389.24</ele>
        <time>2014-06-08T10:58:44Z</time>
      </trkpt>
      <trkpt lat="44.3831" lon="3.83283">
        <ele>1387.8</ele>
        <time>2014-06-08T10:58:54Z</time>
      </trkpt>
      <trkpt lat="44.38301" lon="3.83272">
        <ele>1384.92</ele>
        <time>2014-06-08T10:59:05Z</time>
      </trkpt>
      <trkpt lat="44.38299" lon="3.8327">
        <ele>1383.96</ele>
        <time>2014-06-08T10:59:18Z</time>
      </trkpt>
      <trkpt lat="44.3829" lon="3.83265">
        <ele>1382.03</ele>
        <time>2014-06-08T10:59:32Z</time>
      </trkpt>
      <trkpt lat="44.38284" lon="3.83258">
        <ele>1380.11</ele>
        <time>2014-06-08T10:59:39Z</time>
      </trkpt>
      <trkpt lat="44.3828" lon="3.83254">
        <ele>1379.63</ele>
        <time>2014-06-08T10:59:46Z</time>
      </trkpt>
      <trkpt lat="44.38273" lon="3.83246">
        <ele>1378.19</ele>
        <time>2014-06-08T10:59:57Z</time>
      </trkpt>
      <trkpt lat="44.38273" lon="3.83246">
        <ele>1378.19</ele>
        <time>2014-06-08T10:59:58Z</time>
      </trkpt>
      <trkpt lat="44.38265" lon="3.83244">
        <ele>1377.23</ele>
        <time>2014-06-08T11:00:06Z</time>
      </trkpt>
      <trkpt lat="44.38256" lon="3.83236">
        <ele>1376.26</ele>
        <time>2014-06-08T11:00:16Z</time>
      </trkpt>
      <trkpt lat="44.38255" lon="3.83236">
        <ele>1376.26</ele>
        <time>2014-06-08T11:00:17Z</time>
      </trkpt>
      <trkpt lat="44.38245" lon="3.83234">
        <ele>1375.78</ele>
        <time>2014-06-08T11:00:26Z</time>
      </trkpt>
      <trkpt lat="44.38233" lon="3.83229">
        <ele>1374.82</ele>
        <time>2014-06-08T11:00:35Z</time>
      </trkpt>
      <trkpt lat="44.38225" lon="3.83225">
        <ele>1374.82</ele>
        <time>2014-06-08T11:00:41Z</time>
      </trkpt>
      <trkpt lat="44.38213" lon="3.83221">
        <ele>1374.34</ele>
        <time>2014-06-08T11:00:51Z</time>
      </trkpt>
      <trkpt lat="44.38204" lon="3.83221">
        <ele>1373.38</ele>
        <time>2014-06-08T11:00:58Z</time>
      </trkpt>
      <trkpt lat="44.38195" lon="3.83222">
        <ele>1372.9</ele>
        <time>2014-06-08T11:01:05Z</time>
      </trkpt>
      <trkpt lat="44.3819" lon="3.83223">
        <ele>1372.9</ele>
        <time>2014-06-08T11:01:09Z</time>
      </trkpt>
      <trkpt lat="44.38186" lon="3.83223">
        <ele>1372.42</ele>
        <time>2014-06-08T11:01:12Z</time>
      </trkpt>
      <trkpt lat="44.3817" lon="3.83223">
        <ele>1372.42</ele>
        <time>2014-06-08T11:01:24Z</time>
      </trkpt>
      <trkpt lat="44.38162" lon="3.83224">
        <ele>1372.9</ele>
        <time>2014-06-08T11:01:30Z</time>
      </trkpt>
      <trkpt lat="44.38162" lon="3.83217">
        <ele>1372.42</ele>
        <time>2014-06-08T11:01:44Z</time>
      </trkpt>
      <trkpt lat="44.38162" lon="3.83217">
        <ele>1371.46</ele>
        <time>2014-06-08T11:01:48Z</time>
      </trkpt>
      <trkpt lat="44.38164" lon="3.83221">
        <ele>1372.9</ele>
        <time>2014-06-08T11:02:43Z</time>
      </trkpt>
      <trkpt lat="44.38164" lon="3.83221">
        <ele>1372.9</ele>
        <time>2014-06-08T11:02:44Z</time>
      </trkpt>
      <trkpt lat="44.38162" lon="3.83213">
        <ele>1372.9</ele>
        <time>2014-06-08T11:02:49Z</time>
      </trkpt>
      <trkpt lat="44.38162" lon="3.83212">
        <ele>1372.9</ele>
        <time>2014-06-08T11:02:52Z</time>
      </trkpt>
      <trkpt lat="44.38162" lon="3.83179">
        <ele>1372.42</ele>
        <time>2014-06-08T11:03:03Z</time>
      </trkpt>
      <trkpt lat="44.38166" lon="3.83139">
        <ele>1373.86</ele>
        <time>2014-06-08T11:03:13Z</time>
      </trkpt>
      <trkpt lat="44.38186" lon="3.83089">
        <ele>1375.3</ele>
        <time>2014-06-08T11:03:27Z</time>
      </trkpt>
      <trkpt lat="44.38218" lon="3.83046">
        <ele>1373.38</ele>
        <time>2014-06-08T11:03:40Z</time>
      </trkpt>
      <trkpt lat="44.38227" lon="3.83034">
        <ele>1373.86</ele>
        <time>2014-06-08T11:03:43Z</time>
      </trkpt>
      <trkpt lat="44.3823" lon="3.8303">
        <ele>1374.82</ele>
        <time>2014-06-08T11:03:44Z</time>
      </trkpt>
      <trkpt lat="44.38233" lon="3.83025">
        <ele>1373.86</ele>
        <time>2014-06-08T11:03:45Z</time>
      </trkpt>
      <trkpt lat="44.38239" lon="3.83017">
        <ele>1374.82</ele>
        <time>2014-06-08T11:03:47Z</time>
      </trkpt>
      <trkpt lat="44.38285" lon="3.82957">
        <ele>1374.82</ele>
        <time>2014-06-08T11:04:01Z</time>
      </trkpt>
      <trkpt lat="44.38296" lon="3.82944">
        <ele>1374.34</ele>
        <time>2014-06-08T11:04:04Z</time>
      </trkpt>
      <trkpt lat="44.383" lon="3.8294">
        <ele>1374.34</ele>
        <time>2014-06-08T11:04:05Z</time>
      </trkpt>
      <trkpt lat="44.38309" lon="3.82932">
        <ele>1373.86</ele>
        <time>2014-06-08T11:04:07Z</time>
      </trkpt>
      <trkpt lat="44.38318" lon="3.82923">
        <ele>1373.86</ele>
        <time>2014-06-08T11:04:09Z</time>
      </trkpt>
      <trkpt lat="44.38321" lon="3.82917">
        <ele>1373.86</ele>
        <time>2014-06-08T11:04:10Z</time>
      </trkpt>
      <trkpt lat="44.38332" lon="3.82892">
        <ele>1374.34</ele>
        <time>2014-06-08T11:04:14Z</time>
      </trkpt>
      <trkpt lat="44.38335" lon="3.82887">
        <ele>1374.34</ele>
        <time>2014-06-08T11:04:15Z</time>
      </trkpt>
      <trkpt lat="44.38337" lon="3.8288">
        <ele>1374.34</ele>
        <time>2014-06-08T11:04:16Z</time>
      </trkpt>
      <trkpt lat="44.38341" lon="3.82868">
        <ele>1374.82</ele>
        <time>2014-06-08T11:04:18Z</time>
      </trkpt>
      <trkpt lat="44.38342" lon="3.82861">
        <ele>1374.82</ele>
        <time>2014-06-08T11:04:19Z</time>
      </trkpt>
      <trkpt lat="44.38348" lon="3.82792">
        <ele>1375.3</ele>
        <time>2014-06-08T11:04:32Z</time>
      </trkpt>
      <trkpt lat="44.38343" lon="3.82742">
        <ele>1378.67</ele>
        <time>2014-06-08T11:04:44Z</time>
      </trkpt>
      <trkpt lat="44.38352" lon="3.82703">
        <ele>1380.59</ele>
        <time>2014-06-08T11:04:55Z</time>
      </trkpt>
      <trkpt lat="44.38358" lon="3.82648">
        <ele>1382.03</ele>
        <time>2014-06-08T11:05:11Z</time>
      </trkpt>
      <trkpt lat="44.38366" lon="3.82589">
        <ele>1384.44</ele>
        <time>2014-06-08T11:05:28Z</time>
      </trkpt>
      <trkpt lat="44.38372" lon="3.82537">
        <ele>1386.36</ele>
        <time>2014-06-08T11:05:43Z</time>
      </trkpt>
      <trkpt lat="44.38376" lon="3.82512">
        <ele>1385.4</ele>
        <time>2014-06-08T11:05:52Z</time>
      </trkpt>
      <trkpt lat="44.38376" lon="3.82512">
        <ele>1385.4</ele>
        <time>2014-06-08T11:06:17Z</time>
      </trkpt>
      <trkpt lat="44.38386" lon="3.82492">
        <ele>1384.92</ele>
        <time>2014-06-08T11:06:27Z</time>
      </trkpt>
      <trkpt lat="44.38398" lon="3.82468">
        <ele>1383.47</ele>
        <time>2014-06-08T11:06:32Z</time>
      </trkpt>
      <trkpt lat="44.38412" lon="3.82448">
        <ele>1382.99</ele>
        <time>2014-06-08T11:06:36Z</time>
      </trkpt>
      <trkpt lat="44.3842" lon="3.82437">
        <ele>1382.51</ele>
        <time>2014-06-08T11:06:38Z</time>
      </trkpt>
      <trkpt lat="44.3844" lon="3.82401">
        <ele>1380.59</ele>
        <time>2014-06-08T11:06:44Z</time>
      </trkpt>
      <trkpt lat="44.38444" lon="3.82396">
        <ele>1380.59</ele>
        <time>2014-06-08T11:06:45Z</time>
      </trkpt>
      <trkpt lat="44.38449" lon="3.82392">
        <ele>1381.07</ele>
        <time>2014-06-08T11:06:46Z</time>
      </trkpt>
      <trkpt lat="44.38454" lon="3.82388">
        <ele>1381.07</ele>
        <time>2014-06-08T11:06:47Z</time>
      </trkpt>
      <trkpt lat="44.38458" lon="3.82384">
        <ele>1381.07</ele>
        <time>2014-06-08T11:06:48Z</time>
      </trkpt>
      <trkpt lat="44.38462" lon="3.82379">
        <ele>1381.07</ele>
        <time>2014-06-08T11:06:49Z</time>
      </trkpt>
      <trkpt lat="44.38465" lon="3.82373">
        <ele>1380.59</ele>
        <time>2014-06-08T11:06:50Z</time>
      </trkpt>
      <trkpt lat="44.38466" lon="3.82367">
        <ele>1380.59</ele>
        <time>2014-06-08T11:06:51Z</time>
      </trkpt>
      <trkpt lat="44.38467" lon="3.82361">
        <ele>1380.11</ele>
        <time>2014-06-08T11:06:52Z</time>
      </trkpt>
      <trkpt lat="44.38467" lon="3.82356">
        <ele>1379.63</ele>
        <time>2014-06-08T11:06:53Z</time>
      </trkpt>
      <trkpt lat="44.38467" lon="3.82315">
        <ele>1378.19</ele>
        <time>2014-06-08T11:07:03Z</time>
      </trkpt>
      <trkpt lat="44.38461" lon="3.82275">
        <ele>1376.75</ele>
        <time>2014-06-08T11:07:17Z</time>
      </trkpt>
      <trkpt lat="44.38476" lon="3.82248">
        <ele>1374.82</ele>
        <time>2014-06-08T11:07:32Z</time>
      </trkpt>
      <trkpt lat="44.38479" lon="3.82241">
        <ele>1374.34</ele>
        <time>2014-06-08T11:07:37Z</time>
      </trkpt>
      <trkpt lat="44.38483" lon="3.82235">
        <ele>1374.34</ele>
        <time>2014-06-08T11:07:42Z</time>
      </trkpt>
      <trkpt lat="44.38483" lon="3.82233">
        <ele>1374.34</ele>
        <time>2014-06-08T11:07:43Z</time>
      </trkpt>
      <trkpt lat="44.38484" lon="3.82232">
        <ele>1374.34</ele>
        <time>2014-06-08T11:07:44Z</time>
      </trkpt>
      <trkpt lat="44.38503" lon="3.82196">
        <ele>1371.94</ele>
        <time>2014-06-08T11:07:58Z</time>
      </trkpt>
      <trkpt lat="44.38511" lon="3.82178">
        <ele>1371.94</ele>
        <time>2014-06-08T11:08:03Z</time>
      </trkpt>
      <trkpt lat="44.38513" lon="3.82171">
        <ele>1371.46</ele>
        <time>2014-06-08T11:08:04Z</time>
      </trkpt>
      <trkpt lat="44.38516" lon="3.82164">
        <ele>1371.46</ele>
        <time>2014-06-08T11:08:05Z</time>
      </trkpt>
      <trkpt lat="44.38519" lon="3.82157">
        <ele>1370.98</ele>
        <time>2014-06-08T11:08:06Z</time>
      </trkpt>
      <trkpt lat="44.38524" lon="3.82151">
        <ele>1370.5</ele>
        <time>2014-06-08T11:08:07Z</time>
      </trkpt>
      <trkpt lat="44.38528" lon="3.82145">
        <ele>1370.02</ele>
        <time>2014-06-08T11:08:08Z</time>
      </trkpt>
      <trkpt lat="44.38534" lon="3.82141">
        <ele>1369.54</ele>
        <time>2014-06-08T11:08:09Z</time>
      </trkpt>
      <trkpt lat="44.3854" lon="3.82137">
        <ele>1369.54</ele>
        <time>2014-06-08T11:08:10Z</time>
      </trkpt>
      <trkpt lat="44.38546" lon="3.82134">
        <ele>1368.57</ele>
        <time>2014-06-08T11:08:11Z</time>
      </trkpt>
      <trkpt lat="44.38552" lon="3.82132">
        <ele>1369.05</ele>
        <time>2014-06-08T11:08:12Z</time>
      </trkpt>
      <trkpt lat="44.38557" lon="3.82132">
        <ele>1370.02</ele>
        <time>2014-06-08T11:08:13Z</time>
      </trkpt>
      <trkpt lat="44.3856" lon="3.82132">
        <ele>1370.02</ele>
        <time>2014-06-08T11:08:18Z</time>
      </trkpt>
      <trkpt lat="44.3856" lon="3.82132">
        <ele>1370.02</ele>
        <time>2014-06-08T11:08:35Z</time>
      </trkpt>
      <trkpt lat="44.38561" lon="3.82131">
        <ele>1370.02</ele>
        <time>2014-06-08T11:08:37Z</time>
      </trkpt>
      <trkpt lat="44.38562" lon="3.82131">
        <ele>1370.02</ele>
        <time>2014-06-08T11:08:38Z</time>
      </trkpt>
      <trkpt lat="44.38563" lon="3.8213">
        <ele>1369.54</ele>
        <time>2014-06-08T11:08:39Z</time>
      </trkpt>
      <trkpt lat="44.38565" lon="3.8213">
        <ele>1369.05</ele>
        <time>2014-06-08T11:08:40Z</time>
      </trkpt>
      <trkpt lat="44.38568" lon="3.82129">
        <ele>1369.54</ele>
        <time>2014-06-08T11:08:41Z</time>
      </trkpt>
      <trkpt lat="44.38572" lon="3.82128">
        <ele>1369.05</ele>
        <time>2014-06-08T11:08:43Z</time>
      </trkpt>
      <trkpt lat="44.38577" lon="3.82125">
        <ele>1368.09</ele>
        <time>2014-06-08T11:08:50Z</time>
      </trkpt>
      <trkpt lat="44.38574" lon="3.82126">
        <ele>1365.69</ele>
        <time>2014-06-08T11:40:11Z</time>
      </trkpt>
      <trkpt lat="44.38574" lon="3.82126">
        <ele>1365.69</ele>
        <time>2014-06-08T11:40:12Z</time>
      </trkpt>
      <trkpt lat="44.38577" lon="3.82126">
        <ele>1365.69</ele>
        <time>2014-06-08T11:40:19Z</time>
      </trkpt>
      <trkpt lat="44.38574" lon="3.82127">
        <ele>1365.21</ele>
        <time>2014-06-08T11:40:21Z</time>
      </trkpt>
      <trkpt lat="44.38559" lon="3.82129">
        <ele>1365.69</ele>
        <time>2014-06-08T11:40:31Z</time>
      </trkpt>
      <trkpt lat="44.38551" lon="3.82134">
        <ele>1365.69</ele>
        <time>2014-06-08T11:40:37Z</time>
      </trkpt>
      <trkpt lat="44.38545" lon="3.82123">
        <ele>1364.73</ele>
        <time>2014-06-08T11:40:45Z</time>
      </trkpt>
      <trkpt lat="44.38548" lon="3.82121">
        <ele>1364.73</ele>
        <time>2014-06-08T11:40:46Z</time>
      </trkpt>
      <trkpt lat="44.38571" lon="3.82106">
        <ele>1363.29</ele>
        <time>2014-06-08T11:40:52Z</time>
      </trkpt>
      <trkpt lat="44.38597" lon="3.82097">
        <ele>1361.84</ele>
        <time>2014-06-08T11:40:57Z</time>
      </trkpt>
      <trkpt lat="44.38608" lon="3.82089">
        <ele>1360.88</ele>
        <time>2014-06-08T11:40:59Z</time>
      </trkpt>
      <trkpt lat="44.38613" lon="3.82083">
        <ele>1360.88</ele>
        <time>2014-06-08T11:41:00Z</time>
      </trkpt>
      <trkpt lat="44.38627" lon="3.82063">
        <ele>1359.44</ele>
        <time>2014-06-08T11:41:03Z</time>
      </trkpt>
      <trkpt lat="44.38655" lon="3.82021">
        <ele>1357.52</ele>
        <time>2014-06-08T11:41:09Z</time>
      </trkpt>
      <trkpt lat="44.38661" lon="3.82016">
        <ele>1357.04</ele>
        <time>2014-06-08T11:41:10Z</time>
      </trkpt>
      <trkpt lat="44.38668" lon="3.8201">
        <ele>1357.04</ele>
        <time>2014-06-08T11:41:11Z</time>
      </trkpt>
      <trkpt lat="44.38706" lon="3.81974">
        <ele>1354.63</ele>
        <time>2014-06-08T11:41:17Z</time>
      </trkpt>
      <trkpt lat="44.38714" lon="3.81962">
        <ele>1353.67</ele>
        <time>2014-06-08T11:41:19Z</time>
      </trkpt>
      <trkpt lat="44.38717" lon="3.81954">
        <ele>1352.71</ele>
        <time>2014-06-08T11:41:20Z</time>
      </trkpt>
      <trkpt lat="44.38718" lon="3.81946">
        <ele>1352.71</ele>
        <time>2014-06-08T11:41:21Z</time>
      </trkpt>
      <trkpt lat="44.38719" lon="3.81938">
        <ele>1352.71</ele>
        <time>2014-06-08T11:41:22Z</time>
      </trkpt>
      <trkpt lat="44.38719" lon="3.8193">
        <ele>1353.67</ele>
        <time>2014-06-08T11:41:23Z</time>
      </trkpt>
      <trkpt lat="44.38719" lon="3.81924">
        <ele>1354.15</ele>
        <time>2014-06-08T11:41:24Z</time>
      </trkpt>
      <trkpt lat="44.38719" lon="3.81918">
        <ele>1353.67</ele>
        <time>2014-06-08T11:41:25Z</time>
      </trkpt>
      <trkpt lat="44.38721" lon="3.81906">
        <ele>1352.71</ele>
        <time>2014-06-08T11:41:27Z</time>
      </trkpt>
      <trkpt lat="44.38722" lon="3.81899">
        <ele>1353.19</ele>
        <time>2014-06-08T11:41:28Z</time>
      </trkpt>
      <trkpt lat="44.38722" lon="3.81893">
        <ele>1353.19</ele>
        <time>2014-06-08T11:41:29Z</time>
      </trkpt>
      <trkpt lat="44.38721" lon="3.81888">
        <ele>1353.19</ele>
        <time>2014-06-08T11:41:30Z</time>
      </trkpt>
      <trkpt lat="44.3872" lon="3.81883">
        <ele>1353.19</ele>
        <time>2014-06-08T11:41:31Z</time>
      </trkpt>
      <trkpt lat="44.38719" lon="3.81879">
        <ele>1353.19</ele>
        <time>2014-06-08T11:41:32Z</time>
      </trkpt>
      <trkpt lat="44.38713" lon="3.8184">
        <ele>1353.67</ele>
        <time>2014-06-08T11:41:43Z</time>
      </trkpt>
      <trkpt lat="44.38726" lon="3.81806">
        <ele>1354.63</ele>
        <time>2014-06-08T11:41:55Z</time>
      </trkpt>
      <trkpt lat="44.38754" lon="3.81776">
        <ele>1356.08</ele>
        <time>2014-06-08T11:42:09Z</time>
      </trkpt>
      <trkpt lat="44.38787" lon="3.81746">
        <ele>1357.52</ele>
        <time>2014-06-08T11:42:24Z</time>
      </trkpt>
      <trkpt lat="44.38817" lon="3.81715">
        <ele>1358.96</ele>
        <time>2014-06-08T11:42:38Z</time>
      </trkpt>
      <trkpt lat="44.3882" lon="3.81706">
        <ele>1358.96</ele>
        <time>2014-06-08T11:42:42Z</time>
      </trkpt>
      <trkpt lat="44.3882" lon="3.81703">
        <ele>1358.96</ele>
        <time>2014-06-08T11:42:43Z</time>
      </trkpt>
      <trkpt lat="44.3882" lon="3.81699">
        <ele>1358.96</ele>
        <time>2014-06-08T11:42:44Z</time>
      </trkpt>
      <trkpt lat="44.38821" lon="3.81696">
        <ele>1358.96</ele>
        <time>2014-06-08T11:42:45Z</time>
      </trkpt>
      <trkpt lat="44.38823" lon="3.81692">
        <ele>1358.48</ele>
        <time>2014-06-08T11:42:46Z</time>
      </trkpt>
      <trkpt lat="44.38823" lon="3.81688">
        <ele>1358.96</ele>
        <time>2014-06-08T11:42:47Z</time>
      </trkpt>
      <trkpt lat="44.38823" lon="3.81684">
        <ele>1358.48</ele>
        <time>2014-06-08T11:42:48Z</time>
      </trkpt>
      <trkpt lat="44.38823" lon="3.8168">
        <ele>1358.48</ele>
        <time>2014-06-08T11:42:49Z</time>
      </trkpt>
      <trkpt lat="44.38822" lon="3.81675">
        <ele>1358.48</ele>
        <time>2014-06-08T11:42:50Z</time>
      </trkpt>
      <trkpt lat="44.38821" lon="3.81671">
        <ele>1358</ele>
        <time>2014-06-08T11:42:51Z</time>
      </trkpt>
      <trkpt lat="44.3882" lon="3.81667">
        <ele>1358</ele>
        <time>2014-06-08T11:42:52Z</time>
      </trkpt>
      <trkpt lat="44.38819" lon="3.81664">
        <ele>1358.48</ele>
        <time>2014-06-08T11:42:53Z</time>
      </trkpt>
      <trkpt lat="44.38816" lon="3.81662">
        <ele>1358</ele>
        <time>2014-06-08T11:42:54Z</time>
      </trkpt>
      <trkpt lat="44.38813" lon="3.8166">
        <ele>1358</ele>
        <time>2014-06-08T11:42:55Z</time>
      </trkpt>
      <trkpt lat="44.38811" lon="3.81657">
        <ele>1358</ele>
        <time>2014-06-08T11:42:56Z</time>
      </trkpt>
      <trkpt lat="44.38808" lon="3.81655">
        <ele>1358.48</ele>
        <time>2014-06-08T11:42:57Z</time>
      </trkpt>
      <trkpt lat="44.38806" lon="3.81653">
        <ele>1358.48</ele>
        <time>2014-06-08T11:42:58Z</time>
      </trkpt>
      <trkpt lat="44.38803" lon="3.81651">
        <ele>1358.48</ele>
        <time>2014-06-08T11:42:59Z</time>
      </trkpt>
      <trkpt lat="44.388" lon="3.8165">
        <ele>1358.48</ele>
        <time>2014-06-08T11:43:00Z</time>
      </trkpt>
      <trkpt lat="44.38798" lon="3.81649">
        <ele>1358</ele>
        <time>2014-06-08T11:43:01Z</time>
      </trkpt>
      <trkpt lat="44.38795" lon="3.81649">
        <ele>1358.48</ele>
        <time>2014-06-08T11:43:02Z</time>
      </trkpt>
      <trkpt lat="44.38792" lon="3.81648">
        <ele>1358.48</ele>
        <time>2014-06-08T11:43:03Z</time>
      </trkpt>
      <trkpt lat="44.3879" lon="3.81648">
        <ele>1358.48</ele>
        <time>2014-06-08T11:43:04Z</time>
      </trkpt>
      <trkpt lat="44.38788" lon="3.81648">
        <ele>1358.96</ele>
        <time>2014-06-08T11:43:05Z</time>
      </trkpt>
      <trkpt lat="44.38785" lon="3.81649">
        <ele>1358.48</ele>
        <time>2014-06-08T11:43:06Z</time>
      </trkpt>
      <trkpt lat="44.38783" lon="3.8165">
        <ele>1358.96</ele>
        <time>2014-06-08T11:43:07Z</time>
      </trkpt>
      <trkpt lat="44.38753" lon="3.81671">
        <ele>1360.4</ele>
        <time>2014-06-08T11:43:20Z</time>
      </trkpt>
      <trkpt lat="44.38716" lon="3.81688">
        <ele>1361.84</ele>
        <time>2014-06-08T11:43:37Z</time>
      </trkpt>
      <trkpt lat="44.38686" lon="3.81703">
        <ele>1363.77</ele>
        <time>2014-06-08T11:43:51Z</time>
      </trkpt>
      <trkpt lat="44.38653" lon="3.81703">
        <ele>1365.21</ele>
        <time>2014-06-08T11:44:07Z</time>
      </trkpt>
      <trkpt lat="44.38617" lon="3.81696">
        <ele>1366.65</ele>
        <time>2014-06-08T11:44:23Z</time>
      </trkpt>
      <trkpt lat="44.38593" lon="3.81674">
        <ele>1367.61</ele>
        <time>2014-06-08T11:44:35Z</time>
      </trkpt>
      <trkpt lat="44.38562" lon="3.81632">
        <ele>1370.02</ele>
        <time>2014-06-08T11:44:53Z</time>
      </trkpt>
      <trkpt lat="44.38554" lon="3.81595">
        <ele>1370.02</ele>
        <time>2014-06-08T11:45:05Z</time>
      </trkpt>
      <trkpt lat="44.38553" lon="3.81593">
        <ele>1370.02</ele>
        <time>2014-06-08T11:45:06Z</time>
      </trkpt>
      <trkpt lat="44.38553" lon="3.8159">
        <ele>1370.02</ele>
        <time>2014-06-08T11:45:07Z</time>
      </trkpt>
      <trkpt lat="44.38552" lon="3.81587">
        <ele>1370.02</ele>
        <time>2014-06-08T11:45:08Z</time>
      </trkpt>
      <trkpt lat="44.38551" lon="3.81584">
        <ele>1370.02</ele>
        <time>2014-06-08T11:45:09Z</time>
      </trkpt>
      <trkpt lat="44.3855" lon="3.81581">
        <ele>1370.02</ele>
        <time>2014-06-08T11:45:10Z</time>
      </trkpt>
      <trkpt lat="44.38549" lon="3.81578">
        <ele>1370.02</ele>
        <time>2014-06-08T11:45:11Z</time>
      </trkpt>
      <trkpt lat="44.38549" lon="3.81576">
        <ele>1370.02</ele>
        <time>2014-06-08T11:45:12Z</time>
      </trkpt>
      <trkpt lat="44.38549" lon="3.81573">
        <ele>1370.02</ele>
        <time>2014-06-08T11:45:13Z</time>
      </trkpt>
      <trkpt lat="44.38535" lon="3.81539">
        <ele>1370.02</ele>
        <time>2014-06-08T11:45:25Z</time>
      </trkpt>
      <trkpt lat="44.38513" lon="3.81483">
        <ele>1369.05</ele>
        <time>2014-06-08T11:45:40Z</time>
      </trkpt>
      <trkpt lat="44.385" lon="3.81422">
        <ele>1369.05</ele>
        <time>2014-06-08T11:45:53Z</time>
      </trkpt>
      <trkpt lat="44.38507" lon="3.81385">
        <ele>1369.05</ele>
        <time>2014-06-08T11:46:00Z</time>
      </trkpt>
      <trkpt lat="44.3851" lon="3.8138">
        <ele>1369.05</ele>
        <time>2014-06-08T11:46:01Z</time>
      </trkpt>
      <trkpt lat="44.38512" lon="3.81375">
        <ele>1369.05</ele>
        <time>2014-06-08T11:46:02Z</time>
      </trkpt>
      <trkpt lat="44.38514" lon="3.8137">
        <ele>1368.57</ele>
        <time>2014-06-08T11:46:03Z</time>
      </trkpt>
      <trkpt lat="44.38517" lon="3.81365">
        <ele>1368.57</ele>
        <time>2014-06-08T11:46:04Z</time>
      </trkpt>
      <trkpt lat="44.38523" lon="3.81355">
        <ele>1368.57</ele>
        <time>2014-06-08T11:46:06Z</time>
      </trkpt>
      <trkpt lat="44.38529" lon="3.81344">
        <ele>1368.09</ele>
        <time>2014-06-08T11:46:08Z</time>
      </trkpt>
      <trkpt lat="44.38532" lon="3.81339">
        <ele>1368.57</ele>
        <time>2014-06-08T11:46:09Z</time>
      </trkpt>
      <trkpt lat="44.38536" lon="3.81334">
        <ele>1368.57</ele>
        <time>2014-06-08T11:46:10Z</time>
      </trkpt>
      <trkpt lat="44.38539" lon="3.81329">
        <ele>1368.57</ele>
        <time>2014-06-08T11:46:11Z</time>
      </trkpt>
      <trkpt lat="44.38543" lon="3.81325">
        <ele>1368.09</ele>
        <time>2014-06-08T11:46:12Z</time>
      </trkpt>
      <trkpt lat="44.38554" lon="3.81311">
        <ele>1368.09</ele>
        <time>2014-06-08T11:46:15Z</time>
      </trkpt>
      <trkpt lat="44.38558" lon="3.81305">
        <ele>1368.09</ele>
        <time>2014-06-08T11:46:16Z</time>
      </trkpt>
      <trkpt lat="44.38561" lon="3.81299">
        <ele>1367.61</ele>
        <time>2014-06-08T11:46:17Z</time>
      </trkpt>
      <trkpt lat="44.38563" lon="3.81293">
        <ele>1367.61</ele>
        <time>2014-06-08T11:46:18Z</time>
      </trkpt>
      <trkpt lat="44.38564" lon="3.81287">
        <ele>1368.09</ele>
        <time>2014-06-08T11:46:19Z</time>
      </trkpt>
      <trkpt lat="44.38565" lon="3.8128">
        <ele>1367.61</ele>
        <time>2014-06-08T11:46:20Z</time>
      </trkpt>
      <trkpt lat="44.38566" lon="3.81273">
        <ele>1367.61</ele>
        <time>2014-06-08T11:46:21Z</time>
      </trkpt>
      <trkpt lat="44.38567" lon="3.81267">
        <ele>1367.61</ele>
        <time>2014-06-08T11:46:22Z</time>
      </trkpt>
      <trkpt lat="44.38568" lon="3.8126">
        <ele>1367.61</ele>
        <time>2014-06-08T11:46:23Z</time>
      </trkpt>
      <trkpt lat="44.38588" lon="3.8119">
        <ele>1367.13</ele>
        <time>2014-06-08T11:46:34Z</time>
      </trkpt>
      <trkpt lat="44.38591" lon="3.81184">
        <ele>1367.13</ele>
        <time>2014-06-08T11:46:35Z</time>
      </trkpt>
      <trkpt lat="44.38594" lon="3.81179">
        <ele>1367.13</ele>
        <time>2014-06-08T11:46:36Z</time>
      </trkpt>
      <trkpt lat="44.38613" lon="3.81155">
        <ele>1366.65</ele>
        <time>2014-06-08T11:46:41Z</time>
      </trkpt>
      <trkpt lat="44.38617" lon="3.81151">
        <ele>1366.17</ele>
        <time>2014-06-08T11:46:42Z</time>
      </trkpt>
      <trkpt lat="44.38632" lon="3.81132">
        <ele>1365.69</ele>
        <time>2014-06-08T11:46:46Z</time>
      </trkpt>
      <trkpt lat="44.38636" lon="3.81126">
        <ele>1365.69</ele>
        <time>2014-06-08T11:46:47Z</time>
      </trkpt>
      <trkpt lat="44.38644" lon="3.81116">
        <ele>1365.21</ele>
        <time>2014-06-08T11:46:49Z</time>
      </trkpt>
      <trkpt lat="44.38649" lon="3.81112">
        <ele>1364.73</ele>
        <time>2014-06-08T11:46:50Z</time>
      </trkpt>
      <trkpt lat="44.38653" lon="3.81108">
        <ele>1365.21</ele>
        <time>2014-06-08T11:46:51Z</time>
      </trkpt>
      <trkpt lat="44.38658" lon="3.81103">
        <ele>1364.73</ele>
        <time>2014-06-08T11:46:52Z</time>
      </trkpt>
      <trkpt lat="44.38662" lon="3.81098">
        <ele>1365.21</ele>
        <time>2014-06-08T11:46:53Z</time>
      </trkpt>
      <trkpt lat="44.38671" lon="3.81088">
        <ele>1364.73</ele>
        <time>2014-06-08T11:46:55Z</time>
      </trkpt>
      <trkpt lat="44.38676" lon="3.81084">
        <ele>1364.73</ele>
        <time>2014-06-08T11:46:56Z</time>
      </trkpt>
      <trkpt lat="44.3868" lon="3.81079">
        <ele>1364.25</ele>
        <time>2014-06-08T11:46:57Z</time>
      </trkpt>
      <trkpt lat="44.38689" lon="3.81068">
        <ele>1364.25</ele>
        <time>2014-06-08T11:46:59Z</time>
      </trkpt>
      <trkpt lat="44.38693" lon="3.81062">
        <ele>1364.25</ele>
        <time>2014-06-08T11:47:00Z</time>
      </trkpt>
      <trkpt lat="44.387" lon="3.8105">
        <ele>1363.77</ele>
        <time>2014-06-08T11:47:02Z</time>
      </trkpt>
      <trkpt lat="44.38703" lon="3.81043">
        <ele>1363.29</ele>
        <time>2014-06-08T11:47:03Z</time>
      </trkpt>
      <trkpt lat="44.38712" lon="3.81022">
        <ele>1363.29</ele>
        <time>2014-06-08T11:47:06Z</time>
      </trkpt>
      <trkpt lat="44.38739" lon="3.80992">
        <ele>1362.81</ele>
        <time>2014-06-08T11:47:14Z</time>
      </trkpt>
      <trkpt lat="44.38741" lon="3.80986">
        <ele>1362.33</ele>
        <time>2014-06-08T11:47:15Z</time>
      </trkpt>
      <trkpt lat="44.38741" lon="3.8098">
        <ele>1361.84</ele>
        <time>2014-06-08T11:47:16Z</time>
      </trkpt>
      <trkpt lat="44.38741" lon="3.80973">
        <ele>1362.33</ele>
        <time>2014-06-08T11:47:17Z</time>
      </trkpt>
      <trkpt lat="44.3874" lon="3.80968">
        <ele>1362.33</ele>
        <time>2014-06-08T11:47:18Z</time>
      </trkpt>
      <trkpt lat="44.38719" lon="3.80919">
        <ele>1362.81</ele>
        <time>2014-06-08T11:47:31Z</time>
      </trkpt>
      <trkpt lat="44.38679" lon="3.80911">
        <ele>1365.21</ele>
        <time>2014-06-08T11:47:46Z</time>
      </trkpt>
      <trkpt lat="44.38645" lon="3.80934">
        <ele>1366.65</ele>
        <time>2014-06-08T11:47:59Z</time>
      </trkpt>
      <trkpt lat="44.38611" lon="3.80961">
        <ele>1368.09</ele>
        <time>2014-06-08T11:48:12Z</time>
      </trkpt>
      <trkpt lat="44.38574" lon="3.80989">
        <ele>1370.02</ele>
        <time>2014-06-08T11:48:26Z</time>
      </trkpt>
      <trkpt lat="44.38532" lon="3.8099">
        <ele>1371.94</ele>
        <time>2014-06-08T11:48:39Z</time>
      </trkpt>
      <trkpt lat="44.38497" lon="3.80976">
        <ele>1373.38</ele>
        <time>2014-06-08T11:48:51Z</time>
      </trkpt>
      <trkpt lat="44.38494" lon="3.80973">
        <ele>1373.38</ele>
        <time>2014-06-08T11:48:52Z</time>
      </trkpt>
      <trkpt lat="44.38491" lon="3.80971">
        <ele>1373.86</ele>
        <time>2014-06-08T11:48:53Z</time>
      </trkpt>
      <trkpt lat="44.3849" lon="3.80967">
        <ele>1373.86</ele>
        <time>2014-06-08T11:48:54Z</time>
      </trkpt>
      <trkpt lat="44.38488" lon="3.80964">
        <ele>1373.86</ele>
        <time>2014-06-08T11:48:55Z</time>
      </trkpt>
      <trkpt lat="44.38486" lon="3.80961">
        <ele>1374.34</ele>
        <time>2014-06-08T11:48:56Z</time>
      </trkpt>
      <trkpt lat="44.38485" lon="3.80959">
        <ele>1374.34</ele>
        <time>2014-06-08T11:48:57Z</time>
      </trkpt>
      <trkpt lat="44.38483" lon="3.80956">
        <ele>1374.34</ele>
        <time>2014-06-08T11:48:58Z</time>
      </trkpt>
      <trkpt lat="44.38479" lon="3.80954">
        <ele>1374.34</ele>
        <time>2014-06-08T11:49:00Z</time>
      </trkpt>
      <trkpt lat="44.38477" lon="3.80953">
        <ele>1374.34</ele>
        <time>2014-06-08T11:49:01Z</time>
      </trkpt>
      <trkpt lat="44.3847" lon="3.80949">
        <ele>1374.34</ele>
        <time>2014-06-08T11:49:11Z</time>
      </trkpt>
      <trkpt lat="44.3847" lon="3.80947">
        <ele>1374.34</ele>
        <time>2014-06-08T11:49:18Z</time>
      </trkpt>
      <trkpt lat="44.38469" lon="3.80945">
        <ele>1374.34</ele>
        <time>2014-06-08T11:49:19Z</time>
      </trkpt>
      <trkpt lat="44.38468" lon="3.80942">
        <ele>1373.86</ele>
        <time>2014-06-08T11:49:20Z</time>
      </trkpt>
      <trkpt lat="44.38467" lon="3.80939">
        <ele>1373.86</ele>
        <time>2014-06-08T11:49:21Z</time>
      </trkpt>
      <trkpt lat="44.38466" lon="3.80935">
        <ele>1373.86</ele>
        <time>2014-06-08T11:49:22Z</time>
      </trkpt>
      <trkpt lat="44.38466" lon="3.8092">
        <ele>1373.38</ele>
        <time>2014-06-08T11:49:25Z</time>
      </trkpt>
      <trkpt lat="44.38468" lon="3.80914">
        <ele>1372.9</ele>
        <time>2014-06-08T11:49:26Z</time>
      </trkpt>
      <trkpt lat="44.3847" lon="3.80908">
        <ele>1372.9</ele>
        <time>2014-06-08T11:49:27Z</time>
      </trkpt>
      <trkpt lat="44.38484" lon="3.8087">
        <ele>1371.94</ele>
        <time>2014-06-08T11:49:33Z</time>
      </trkpt>
      <trkpt lat="44.38488" lon="3.80864">
        <ele>1371.94</ele>
        <time>2014-06-08T11:49:34Z</time>
      </trkpt>
      <trkpt lat="44.38491" lon="3.80858">
        <ele>1371.46</ele>
        <time>2014-06-08T11:49:35Z</time>
      </trkpt>
      <trkpt lat="44.38516" lon="3.80825">
        <ele>1371.46</ele>
        <time>2014-06-08T11:49:41Z</time>
      </trkpt>
      <trkpt lat="44.38521" lon="3.8082">
        <ele>1371.94</ele>
        <time>2014-06-08T11:49:42Z</time>
      </trkpt>
      <trkpt lat="44.3853" lon="3.80811">
        <ele>1371.46</ele>
        <time>2014-06-08T11:49:44Z</time>
      </trkpt>
      <trkpt lat="44.38535" lon="3.80806">
        <ele>1371.46</ele>
        <time>2014-06-08T11:49:45Z</time>
      </trkpt>
      <trkpt lat="44.38539" lon="3.80801">
        <ele>1371.46</ele>
        <time>2014-06-08T11:49:46Z</time>
      </trkpt>
      <trkpt lat="44.38544" lon="3.80795">
        <ele>1371.46</ele>
        <time>2014-06-08T11:49:47Z</time>
      </trkpt>
      <trkpt lat="44.38548" lon="3.8079">
        <ele>1371.46</ele>
        <time>2014-06-08T11:49:48Z</time>
      </trkpt>
      <trkpt lat="44.3857" lon="3.80761">
        <ele>1371.46</ele>
        <time>2014-06-08T11:49:53Z</time>
      </trkpt>
      <trkpt lat="44.38583" lon="3.80744">
        <ele>1371.46</ele>
        <time>2014-06-08T11:49:56Z</time>
      </trkpt>
      <trkpt lat="44.38624" lon="3.80676">
        <ele>1372.42</ele>
        <time>2014-06-08T11:50:07Z</time>
      </trkpt>
      <trkpt lat="44.38628" lon="3.80669">
        <ele>1372.42</ele>
        <time>2014-06-08T11:50:08Z</time>
      </trkpt>
      <trkpt lat="44.3863" lon="3.80663">
        <ele>1372.42</ele>
        <time>2014-06-08T11:50:09Z</time>
      </trkpt>
      <trkpt lat="44.38643" lon="3.80586">
        <ele>1373.86</ele>
        <time>2014-06-08T11:50:21Z</time>
      </trkpt>
      <trkpt lat="44.38641" lon="3.80572">
        <ele>1373.38</ele>
        <time>2014-06-08T11:50:24Z</time>
      </trkpt>
      <trkpt lat="44.38641" lon="3.80558">
        <ele>1372.9</ele>
        <time>2014-06-08T11:50:33Z</time>
      </trkpt>
      <trkpt lat="44.38637" lon="3.80538">
        <ele>1371.94</ele>
        <time>2014-06-08T11:50:43Z</time>
      </trkpt>
      <trkpt lat="44.38631" lon="3.80505">
        <ele>1370.98</ele>
        <time>2014-06-08T11:50:51Z</time>
      </trkpt>
      <trkpt lat="44.38632" lon="3.80501">
        <ele>1371.46</ele>
        <time>2014-06-08T11:50:52Z</time>
      </trkpt>
      <trkpt lat="44.38632" lon="3.80475">
        <ele>1370.02</ele>
        <time>2014-06-08T11:50:57Z</time>
      </trkpt>
      <trkpt lat="44.38632" lon="3.80468">
        <ele>1369.54</ele>
        <time>2014-06-08T11:50:58Z</time>
      </trkpt>
      <trkpt lat="44.38631" lon="3.80462">
        <ele>1369.54</ele>
        <time>2014-06-08T11:50:59Z</time>
      </trkpt>
      <trkpt lat="44.3863" lon="3.80456">
        <ele>1369.54</ele>
        <time>2014-06-08T11:51:00Z</time>
      </trkpt>
      <trkpt lat="44.38629" lon="3.80449">
        <ele>1369.05</ele>
        <time>2014-06-08T11:51:01Z</time>
      </trkpt>
      <trkpt lat="44.38629" lon="3.80442">
        <ele>1368.57</ele>
        <time>2014-06-08T11:51:02Z</time>
      </trkpt>
      <trkpt lat="44.3863" lon="3.80434">
        <ele>1368.57</ele>
        <time>2014-06-08T11:51:03Z</time>
      </trkpt>
      <trkpt lat="44.38632" lon="3.80425">
        <ele>1368.09</ele>
        <time>2014-06-08T11:51:04Z</time>
      </trkpt>
      <trkpt lat="44.38635" lon="3.80416">
        <ele>1367.13</ele>
        <time>2014-06-08T11:51:05Z</time>
      </trkpt>
      <trkpt lat="44.38639" lon="3.80407">
        <ele>1366.17</ele>
        <time>2014-06-08T11:51:06Z</time>
      </trkpt>
      <trkpt lat="44.38643" lon="3.80398">
        <ele>1365.21</ele>
        <time>2014-06-08T11:51:07Z</time>
      </trkpt>
      <trkpt lat="44.38648" lon="3.80389">
        <ele>1364.73</ele>
        <time>2014-06-08T11:51:08Z</time>
      </trkpt>
      <trkpt lat="44.38655" lon="3.80381">
        <ele>1364.25</ele>
        <time>2014-06-08T11:51:09Z</time>
      </trkpt>
      <trkpt lat="44.38661" lon="3.80375">
        <ele>1363.77</ele>
        <time>2014-06-08T11:51:10Z</time>
      </trkpt>
      <trkpt lat="44.38745" lon="3.80313">
        <ele>1362.33</ele>
        <time>2014-06-08T11:51:23Z</time>
      </trkpt>
      <trkpt lat="44.38801" lon="3.80284">
        <ele>1359.92</ele>
        <time>2014-06-08T11:51:31Z</time>
      </trkpt>
      <trkpt lat="44.38817" lon="3.80277">
        <ele>1358.48</ele>
        <time>2014-06-08T11:51:33Z</time>
      </trkpt>
      <trkpt lat="44.38825" lon="3.8027">
        <ele>1358</ele>
        <time>2014-06-08T11:51:34Z</time>
      </trkpt>
      <trkpt lat="44.38832" lon="3.80261">
        <ele>1357.52</ele>
        <time>2014-06-08T11:51:35Z</time>
      </trkpt>
      <trkpt lat="44.38837" lon="3.80251">
        <ele>1357.04</ele>
        <time>2014-06-08T11:51:36Z</time>
      </trkpt>
      <trkpt lat="44.38843" lon="3.80241">
        <ele>1356.08</ele>
        <time>2014-06-08T11:51:37Z</time>
      </trkpt>
      <trkpt lat="44.38856" lon="3.80209">
        <ele>1355.6</ele>
        <time>2014-06-08T11:51:40Z</time>
      </trkpt>
      <trkpt lat="44.38857" lon="3.80198">
        <ele>1355.6</ele>
        <time>2014-06-08T11:51:41Z</time>
      </trkpt>
      <trkpt lat="44.38858" lon="3.80187">
        <ele>1355.6</ele>
        <time>2014-06-08T11:51:42Z</time>
      </trkpt>
      <trkpt lat="44.38857" lon="3.80177">
        <ele>1355.6</ele>
        <time>2014-06-08T11:51:43Z</time>
      </trkpt>
      <trkpt lat="44.38855" lon="3.80168">
        <ele>1355.12</ele>
        <time>2014-06-08T11:51:44Z</time>
      </trkpt>
      <trkpt lat="44.38852" lon="3.80159">
        <ele>1355.12</ele>
        <time>2014-06-08T11:51:45Z</time>
      </trkpt>
      <trkpt lat="44.38848" lon="3.80152">
        <ele>1355.12</ele>
        <time>2014-06-08T11:51:46Z</time>
      </trkpt>
      <trkpt lat="44.38844" lon="3.80146">
        <ele>1355.6</ele>
        <time>2014-06-08T11:51:47Z</time>
      </trkpt>
      <trkpt lat="44.3884" lon="3.8014">
        <ele>1355.6</ele>
        <time>2014-06-08T11:51:48Z</time>
      </trkpt>
      <trkpt lat="44.38836" lon="3.80136">
        <ele>1355.6</ele>
        <time>2014-06-08T11:51:49Z</time>
      </trkpt>
      <trkpt lat="44.38832" lon="3.80132">
        <ele>1355.6</ele>
        <time>2014-06-08T11:51:50Z</time>
      </trkpt>
      <trkpt lat="44.38823" lon="3.80126">
        <ele>1355.12</ele>
        <time>2014-06-08T11:51:52Z</time>
      </trkpt>
      <trkpt lat="44.38819" lon="3.80124">
        <ele>1355.6</ele>
        <time>2014-06-08T11:51:53Z</time>
      </trkpt>
      <trkpt lat="44.38798" lon="3.80115">
        <ele>1355.12</ele>
        <time>2014-06-08T11:51:58Z</time>
      </trkpt>
      <trkpt lat="44.38794" lon="3.80115">
        <ele>1355.12</ele>
        <time>2014-06-08T11:51:59Z</time>
      </trkpt>
      <trkpt lat="44.38786" lon="3.80115">
        <ele>1355.12</ele>
        <time>2014-06-08T11:52:01Z</time>
      </trkpt>
      <trkpt lat="44.38774" lon="3.80112">
        <ele>1355.6</ele>
        <time>2014-06-08T11:52:04Z</time>
      </trkpt>
      <trkpt lat="44.3877" lon="3.8011">
        <ele>1355.6</ele>
        <time>2014-06-08T11:52:05Z</time>
      </trkpt>
      <trkpt lat="44.38766" lon="3.80109">
        <ele>1355.12</ele>
        <time>2014-06-08T11:52:06Z</time>
      </trkpt>
      <trkpt lat="44.387" lon="3.801">
        <ele>1355.12</ele>
        <time>2014-06-08T11:52:22Z</time>
      </trkpt>
      <trkpt lat="44.38696" lon="3.80098">
        <ele>1355.12</ele>
        <time>2014-06-08T11:52:23Z</time>
      </trkpt>
      <trkpt lat="44.38688" lon="3.80094">
        <ele>1355.12</ele>
        <time>2014-06-08T11:52:25Z</time>
      </trkpt>
      <trkpt lat="44.38684" lon="3.80091">
        <ele>1355.12</ele>
        <time>2014-06-08T11:52:26Z</time>
      </trkpt>
      <trkpt lat="44.3868" lon="3.80088">
        <ele>1355.12</ele>
        <time>2014-06-08T11:52:27Z</time>
      </trkpt>
      <trkpt lat="44.38676" lon="3.80084">
        <ele>1355.12</ele>
        <time>2014-06-08T11:52:28Z</time>
      </trkpt>
      <trkpt lat="44.38673" lon="3.8008">
        <ele>1354.63</ele>
        <time>2014-06-08T11:52:29Z</time>
      </trkpt>
      <trkpt lat="44.3867" lon="3.80076">
        <ele>1354.63</ele>
        <time>2014-06-08T11:52:30Z</time>
      </trkpt>
      <trkpt lat="44.38667" lon="3.80071">
        <ele>1354.63</ele>
        <time>2014-06-08T11:52:31Z</time>
      </trkpt>
      <trkpt lat="44.38662" lon="3.8006">
        <ele>1354.63</ele>
        <time>2014-06-08T11:52:33Z</time>
      </trkpt>
      <trkpt lat="44.38659" lon="3.80055">
        <ele>1354.63</ele>
        <time>2014-06-08T11:52:34Z</time>
      </trkpt>
      <trkpt lat="44.38636" lon="3.79988">
        <ele>1353.67</ele>
        <time>2014-06-08T11:52:45Z</time>
      </trkpt>
      <trkpt lat="44.38633" lon="3.79983">
        <ele>1353.67</ele>
        <time>2014-06-08T11:52:46Z</time>
      </trkpt>
      <trkpt lat="44.38589" lon="3.79927">
        <ele>1353.67</ele>
        <time>2014-06-08T11:52:59Z</time>
      </trkpt>
      <trkpt lat="44.38581" lon="3.79908">
        <ele>1353.67</ele>
        <time>2014-06-08T11:53:03Z</time>
      </trkpt>
      <trkpt lat="44.38577" lon="3.79892">
        <ele>1353.67</ele>
        <time>2014-06-08T11:53:06Z</time>
      </trkpt>
      <trkpt lat="44.38535" lon="3.79778">
        <ele>1352.23</ele>
        <time>2014-06-08T11:53:25Z</time>
      </trkpt>
      <trkpt lat="44.38533" lon="3.79772">
        <ele>1352.23</ele>
        <time>2014-06-08T11:53:26Z</time>
      </trkpt>
      <trkpt lat="44.38529" lon="3.79767">
        <ele>1351.75</ele>
        <time>2014-06-08T11:53:27Z</time>
      </trkpt>
      <trkpt lat="44.38526" lon="3.79763">
        <ele>1351.75</ele>
        <time>2014-06-08T11:53:28Z</time>
      </trkpt>
      <trkpt lat="44.38521" lon="3.79759">
        <ele>1351.75</ele>
        <time>2014-06-08T11:53:29Z</time>
      </trkpt>
      <trkpt lat="44.38517" lon="3.79756">
        <ele>1351.27</ele>
        <time>2014-06-08T11:53:30Z</time>
      </trkpt>
      <trkpt lat="44.38511" lon="3.79753">
        <ele>1350.31</ele>
        <time>2014-06-08T11:53:31Z</time>
      </trkpt>
      <trkpt lat="44.38506" lon="3.79751">
        <ele>1349.83</ele>
        <time>2014-06-08T11:53:32Z</time>
      </trkpt>
      <trkpt lat="44.385" lon="3.7975">
        <ele>1349.35</ele>
        <time>2014-06-08T11:53:33Z</time>
      </trkpt>
      <trkpt lat="44.38494" lon="3.79748">
        <ele>1348.87</ele>
        <time>2014-06-08T11:53:34Z</time>
      </trkpt>
      <trkpt lat="44.3845" lon="3.79734">
        <ele>1345.5</ele>
        <time>2014-06-08T11:53:40Z</time>
      </trkpt>
      <trkpt lat="44.38402" lon="3.7972">
        <ele>1342.14</ele>
        <time>2014-06-08T11:53:46Z</time>
      </trkpt>
      <trkpt lat="44.38368" lon="3.79714">
        <ele>1340.22</ele>
        <time>2014-06-08T11:53:50Z</time>
      </trkpt>
      <trkpt lat="44.38323" lon="3.79708">
        <ele>1337.33</ele>
        <time>2014-06-08T11:53:55Z</time>
      </trkpt>
      <trkpt lat="44.38285" lon="3.79701">
        <ele>1333.97</ele>
        <time>2014-06-08T11:53:59Z</time>
      </trkpt>
      <trkpt lat="44.38246" lon="3.79688">
        <ele>1331.08</ele>
        <time>2014-06-08T11:54:03Z</time>
      </trkpt>
      <trkpt lat="44.38237" lon="3.7968">
        <ele>1329.64</ele>
        <time>2014-06-08T11:54:04Z</time>
      </trkpt>
      <trkpt lat="44.38229" lon="3.79671">
        <ele>1329.16</ele>
        <time>2014-06-08T11:54:05Z</time>
      </trkpt>
      <trkpt lat="44.38197" lon="3.79632">
        <ele>1325.8</ele>
        <time>2014-06-08T11:54:09Z</time>
      </trkpt>
      <trkpt lat="44.38166" lon="3.7959">
        <ele>1321.95</ele>
        <time>2014-06-08T11:54:13Z</time>
      </trkpt>
      <trkpt lat="44.3815" lon="3.79569">
        <ele>1320.51</ele>
        <time>2014-06-08T11:54:15Z</time>
      </trkpt>
      <trkpt lat="44.38119" lon="3.79525">
        <ele>1317.14</ele>
        <time>2014-06-08T11:54:19Z</time>
      </trkpt>
      <trkpt lat="44.38081" lon="3.79472">
        <ele>1313.78</ele>
        <time>2014-06-08T11:54:24Z</time>
      </trkpt>
      <trkpt lat="44.38072" lon="3.79464">
        <ele>1312.82</ele>
        <time>2014-06-08T11:54:25Z</time>
      </trkpt>
      <trkpt lat="44.38063" lon="3.79457">
        <ele>1312.34</ele>
        <time>2014-06-08T11:54:26Z</time>
      </trkpt>
      <trkpt lat="44.38053" lon="3.79452">
        <ele>1311.38</ele>
        <time>2014-06-08T11:54:27Z</time>
      </trkpt>
      <trkpt lat="44.38043" lon="3.79447">
        <ele>1310.9</ele>
        <time>2014-06-08T11:54:28Z</time>
      </trkpt>
      <trkpt lat="44.38033" lon="3.79441">
        <ele>1309.93</ele>
        <time>2014-06-08T11:54:29Z</time>
      </trkpt>
      <trkpt lat="44.38024" lon="3.79433">
        <ele>1308.97</ele>
        <time>2014-06-08T11:54:30Z</time>
      </trkpt>
      <trkpt lat="44.38015" lon="3.79425">
        <ele>1308.01</ele>
        <time>2014-06-08T11:54:31Z</time>
      </trkpt>
      <trkpt lat="44.37958" lon="3.79369">
        <ele>1306.09</ele>
        <time>2014-06-08T11:54:38Z</time>
      </trkpt>
      <trkpt lat="44.37899" lon="3.79305">
        <ele>1308.01</ele>
        <time>2014-06-08T11:54:49Z</time>
      </trkpt>
      <trkpt lat="44.3789" lon="3.79297">
        <ele>1308.49</ele>
        <time>2014-06-08T11:54:51Z</time>
      </trkpt>
      <trkpt lat="44.37851" lon="3.79257">
        <ele>1309.45</ele>
        <time>2014-06-08T11:55:04Z</time>
      </trkpt>
      <trkpt lat="44.37814" lon="3.79217">
        <ele>1308.01</ele>
        <time>2014-06-08T11:55:16Z</time>
      </trkpt>
      <trkpt lat="44.37768" lon="3.79171">
        <ele>1306.57</ele>
        <time>2014-06-08T11:55:27Z</time>
      </trkpt>
      <trkpt lat="44.37753" lon="3.79163">
        <ele>1306.09</ele>
        <time>2014-06-08T11:55:30Z</time>
      </trkpt>
      <trkpt lat="44.37714" lon="3.7915">
        <ele>1302.24</ele>
        <time>2014-06-08T11:55:36Z</time>
      </trkpt>
      <trkpt lat="44.37682" lon="3.79142">
        <ele>1299.84</ele>
        <time>2014-06-08T11:55:40Z</time>
      </trkpt>
      <trkpt lat="44.37674" lon="3.79142">
        <ele>1299.84</ele>
        <time>2014-06-08T11:55:41Z</time>
      </trkpt>
      <trkpt lat="44.37631" lon="3.79145">
        <ele>1296.96</ele>
        <time>2014-06-08T11:55:46Z</time>
      </trkpt>
      <trkpt lat="44.37614" lon="3.79141">
        <ele>1295.99</ele>
        <time>2014-06-08T11:55:48Z</time>
      </trkpt>
      <trkpt lat="44.37562" lon="3.79132">
        <ele>1292.15</ele>
        <time>2014-06-08T11:55:54Z</time>
      </trkpt>
      <trkpt lat="44.37502" lon="3.79116">
        <ele>1288.3</ele>
        <time>2014-06-08T11:56:01Z</time>
      </trkpt>
      <trkpt lat="44.37465" lon="3.79105">
        <ele>1284.94</ele>
        <time>2014-06-08T11:56:05Z</time>
      </trkpt>
      <trkpt lat="44.37456" lon="3.79104">
        <ele>1284.94</ele>
        <time>2014-06-08T11:56:06Z</time>
      </trkpt>
      <trkpt lat="44.37417" lon="3.79108">
        <ele>1281.57</ele>
        <time>2014-06-08T11:56:10Z</time>
      </trkpt>
      <trkpt lat="44.37399" lon="3.7911">
        <ele>1280.61</ele>
        <time>2014-06-08T11:56:12Z</time>
      </trkpt>
      <trkpt lat="44.3739" lon="3.79108">
        <ele>1280.13</ele>
        <time>2014-06-08T11:56:13Z</time>
      </trkpt>
      <trkpt lat="44.37381" lon="3.79103">
        <ele>1279.65</ele>
        <time>2014-06-08T11:56:14Z</time>
      </trkpt>
      <trkpt lat="44.37329" lon="3.79064">
        <ele>1275.81</ele>
        <time>2014-06-08T11:56:22Z</time>
      </trkpt>
      <trkpt lat="44.37323" lon="3.79061">
        <ele>1275.81</ele>
        <time>2014-06-08T11:56:23Z</time>
      </trkpt>
      <trkpt lat="44.37318" lon="3.79059">
        <ele>1275.33</ele>
        <time>2014-06-08T11:56:24Z</time>
      </trkpt>
      <trkpt lat="44.37313" lon="3.79059">
        <ele>1275.81</ele>
        <time>2014-06-08T11:56:25Z</time>
      </trkpt>
      <trkpt lat="44.37308" lon="3.7906">
        <ele>1275.81</ele>
        <time>2014-06-08T11:56:26Z</time>
      </trkpt>
      <trkpt lat="44.37305" lon="3.79061">
        <ele>1276.77</ele>
        <time>2014-06-08T11:56:27Z</time>
      </trkpt>
      <trkpt lat="44.37279" lon="3.79066">
        <ele>1278.21</ele>
        <time>2014-06-08T11:56:38Z</time>
      </trkpt>
      <trkpt lat="44.37258" lon="3.79064">
        <ele>1279.17</ele>
        <time>2014-06-08T11:56:47Z</time>
      </trkpt>
      <trkpt lat="44.37245" lon="3.79065">
        <ele>1279.17</ele>
        <time>2014-06-08T11:56:57Z</time>
      </trkpt>
      <trkpt lat="44.37227" lon="3.79062">
        <ele>1278.69</ele>
        <time>2014-06-08T11:57:08Z</time>
      </trkpt>
      <trkpt lat="44.37188" lon="3.79062">
        <ele>1279.17</ele>
        <time>2014-06-08T11:57:22Z</time>
      </trkpt>
      <trkpt lat="44.37153" lon="3.79077">
        <ele>1279.17</ele>
        <time>2014-06-08T11:57:35Z</time>
      </trkpt>
      <trkpt lat="44.37151" lon="3.7908">
        <ele>1278.69</ele>
        <time>2014-06-08T11:57:36Z</time>
      </trkpt>
      <trkpt lat="44.3715" lon="3.79084">
        <ele>1278.69</ele>
        <time>2014-06-08T11:57:37Z</time>
      </trkpt>
      <trkpt lat="44.3715" lon="3.79088">
        <ele>1278.69</ele>
        <time>2014-06-08T11:57:38Z</time>
      </trkpt>
      <trkpt lat="44.37151" lon="3.79092">
        <ele>1278.69</ele>
        <time>2014-06-08T11:57:39Z</time>
      </trkpt>
      <trkpt lat="44.37152" lon="3.79095">
        <ele>1278.69</ele>
        <time>2014-06-08T11:57:40Z</time>
      </trkpt>
      <trkpt lat="44.37153" lon="3.79099">
        <ele>1279.17</ele>
        <time>2014-06-08T11:57:41Z</time>
      </trkpt>
      <trkpt lat="44.37154" lon="3.79102">
        <ele>1279.17</ele>
        <time>2014-06-08T11:57:42Z</time>
      </trkpt>
      <trkpt lat="44.3717" lon="3.79154">
        <ele>1278.69</ele>
        <time>2014-06-08T11:57:56Z</time>
      </trkpt>
      <trkpt lat="44.37167" lon="3.79202">
        <ele>1278.69</ele>
        <time>2014-06-08T11:58:08Z</time>
      </trkpt>
      <trkpt lat="44.37148" lon="3.79259">
        <ele>1279.17</ele>
        <time>2014-06-08T11:58:22Z</time>
      </trkpt>
      <trkpt lat="44.37144" lon="3.79291">
        <ele>1277.73</ele>
        <time>2014-06-08T11:58:30Z</time>
      </trkpt>
      <trkpt lat="44.37148" lon="3.79336">
        <ele>1276.77</ele>
        <time>2014-06-08T11:58:40Z</time>
      </trkpt>
      <trkpt lat="44.37149" lon="3.79351">
        <ele>1276.29</ele>
        <time>2014-06-08T11:58:43Z</time>
      </trkpt>
      <trkpt lat="44.37148" lon="3.79356">
        <ele>1275.81</ele>
        <time>2014-06-08T11:58:44Z</time>
      </trkpt>
      <trkpt lat="44.37147" lon="3.79375">
        <ele>1274.36</ele>
        <time>2014-06-08T11:58:48Z</time>
      </trkpt>
      <trkpt lat="44.37148" lon="3.79379">
        <ele>1274.36</ele>
        <time>2014-06-08T11:58:49Z</time>
      </trkpt>
      <trkpt lat="44.37149" lon="3.79383">
        <ele>1275.33</ele>
        <time>2014-06-08T11:58:50Z</time>
      </trkpt>
      <trkpt lat="44.37149" lon="3.79387">
        <ele>1275.33</ele>
        <time>2014-06-08T11:58:51Z</time>
      </trkpt>
      <trkpt lat="44.37149" lon="3.7939">
        <ele>1275.33</ele>
        <time>2014-06-08T11:58:52Z</time>
      </trkpt>
      <trkpt lat="44.37149" lon="3.79393">
        <ele>1275.81</ele>
        <time>2014-06-08T11:58:53Z</time>
      </trkpt>
      <trkpt lat="44.3715" lon="3.79397">
        <ele>1275.81</ele>
        <time>2014-06-08T11:59:04Z</time>
      </trkpt>
      <trkpt lat="44.3715" lon="3.79397">
        <ele>1276.29</ele>
        <time>2014-06-08T11:59:26Z</time>
      </trkpt>
      <trkpt lat="44.37151" lon="3.79403">
        <ele>1276.29</ele>
        <time>2014-06-08T11:59:54Z</time>
      </trkpt>
      <trkpt lat="44.37152" lon="3.79406">
        <ele>1275.81</ele>
        <time>2014-06-08T11:59:55Z</time>
      </trkpt>
      <trkpt lat="44.37153" lon="3.79408">
        <ele>1275.81</ele>
        <time>2014-06-08T11:59:56Z</time>
      </trkpt>
      <trkpt lat="44.37154" lon="3.79411">
        <ele>1275.81</ele>
        <time>2014-06-08T11:59:57Z</time>
      </trkpt>
      <trkpt lat="44.37155" lon="3.79415">
        <ele>1275.81</ele>
        <time>2014-06-08T11:59:58Z</time>
      </trkpt>
      <trkpt lat="44.37155" lon="3.7942">
        <ele>1275.81</ele>
        <time>2014-06-08T11:59:59Z</time>
      </trkpt>
      <trkpt lat="44.37157" lon="3.79423">
        <ele>1275.81</ele>
        <time>2014-06-08T12:00:00Z</time>
      </trkpt>
      <trkpt lat="44.37158" lon="3.79428">
        <ele>1276.29</ele>
        <time>2014-06-08T12:00:01Z</time>
      </trkpt>
      <trkpt lat="44.37158" lon="3.79431">
        <ele>1275.81</ele>
        <time>2014-06-08T12:00:02Z</time>
      </trkpt>
      <trkpt lat="44.37159" lon="3.79434">
        <ele>1276.29</ele>
        <time>2014-06-08T12:00:03Z</time>
      </trkpt>
      <trkpt lat="44.37161" lon="3.79441">
        <ele>1276.77</ele>
        <time>2014-06-08T12:00:06Z</time>
      </trkpt>
      <trkpt lat="44.37171" lon="3.79473">
        <ele>1278.21</ele>
        <time>2014-06-08T12:00:17Z</time>
      </trkpt>
      <trkpt lat="44.37172" lon="3.79476">
        <ele>1278.21</ele>
        <time>2014-06-08T12:00:18Z</time>
      </trkpt>
      <trkpt lat="44.37172" lon="3.79479">
        <ele>1278.21</ele>
        <time>2014-06-08T12:00:19Z</time>
      </trkpt>
      <trkpt lat="44.37173" lon="3.79481">
        <ele>1278.21</ele>
        <time>2014-06-08T12:00:20Z</time>
      </trkpt>
      <trkpt lat="44.37175" lon="3.79485">
        <ele>1277.73</ele>
        <time>2014-06-08T12:00:30Z</time>
      </trkpt>
      <trkpt lat="44.37174" lon="3.79486">
        <ele>1277.25</ele>
        <time>2014-06-08T12:00:39Z</time>
      </trkpt>
      <trkpt lat="44.37179" lon="3.79532">
        <ele>1276.29</ele>
        <time>2014-06-08T12:01:50Z</time>
      </trkpt>
      <trkpt lat="44.37186" lon="3.79558">
        <ele>1274.36</ele>
        <time>2014-06-08T12:01:57Z</time>
      </trkpt>
      <trkpt lat="44.37191" lon="3.79575">
        <ele>1273.4</ele>
        <time>2014-06-08T12:02:01Z</time>
      </trkpt>
      <trkpt lat="44.37184" lon="3.79594">
        <ele>1271.96</ele>
        <time>2014-06-08T12:02:08Z</time>
      </trkpt>
      <trkpt lat="44.37195" lon="3.79593">
        <ele>1271.96</ele>
        <time>2014-06-08T12:02:22Z</time>
      </trkpt>
      <trkpt lat="44.37192" lon="3.79613">
        <ele>1272.44</ele>
        <time>2014-06-08T12:02:36Z</time>
      </trkpt>
      <trkpt lat="44.3719" lon="3.79616">
        <ele>1272.44</ele>
        <time>2014-06-08T12:02:38Z</time>
      </trkpt>
      <trkpt lat="44.37184" lon="3.79619">
        <ele>1271.96</ele>
        <time>2014-06-08T12:02:44Z</time>
      </trkpt>
      <trkpt lat="44.37185" lon="3.79621">
        <ele>1271.96</ele>
        <time>2014-06-08T12:02:46Z</time>
      </trkpt>
      <trkpt lat="44.37183" lon="3.79622">
        <ele>1271.48</ele>
        <time>2014-06-08T12:02:48Z</time>
      </trkpt>
      <trkpt lat="44.37182" lon="3.7963">
        <ele>1271.96</ele>
        <time>2014-06-08T12:02:57Z</time>
      </trkpt>
      <trkpt lat="44.37178" lon="3.79636">
        <ele>1271.48</ele>
        <time>2014-06-08T12:03:02Z</time>
      </trkpt>
      <trkpt lat="44.3717" lon="3.79639">
        <ele>1271.96</ele>
        <time>2014-06-08T12:03:13Z</time>
      </trkpt>
      <trkpt lat="44.37164" lon="3.79649">
        <ele>1272.92</ele>
        <time>2014-06-08T12:03:26Z</time>
      </trkpt>
      <trkpt lat="44.37163" lon="3.79648">
        <ele>1272.44</ele>
        <time>2014-06-08T12:03:32Z</time>
      </trkpt>
      <trkpt lat="44.37155" lon="3.7965">
        <ele>1272.44</ele>
        <time>2014-06-08T12:03:45Z</time>
      </trkpt>
      <trkpt lat="44.37154" lon="3.7965">
        <ele>1272.44</ele>
        <time>2014-06-08T12:04:05Z</time>
      </trkpt>
      <trkpt lat="44.37149" lon="3.79657">
        <ele>1272.44</ele>
        <time>2014-06-08T12:04:15Z</time>
      </trkpt>
      <trkpt lat="44.37147" lon="3.79658">
        <ele>1272.92</ele>
        <time>2014-06-08T12:04:17Z</time>
      </trkpt>
      <trkpt lat="44.37143" lon="3.79658">
        <ele>1272.92</ele>
        <time>2014-06-08T12:04:21Z</time>
      </trkpt>
      <trkpt lat="44.3714" lon="3.79655">
        <ele>1272.44</ele>
        <time>2014-06-08T12:04:27Z</time>
      </trkpt>
      <trkpt lat="44.37139" lon="3.79649">
        <ele>1272.44</ele>
        <time>2014-06-08T12:04:40Z</time>
      </trkpt>
      <trkpt lat="44.37141" lon="3.79643">
        <ele>1272.92</ele>
        <time>2014-06-08T12:04:49Z</time>
      </trkpt>
      <trkpt lat="44.37141" lon="3.7964">
        <ele>1272.44</ele>
        <time>2014-06-08T12:05:03Z</time>
      </trkpt>
      <trkpt lat="44.37143" lon="3.79639">
        <ele>1272.44</ele>
        <time>2014-06-08T12:05:12Z</time>
      </trkpt>
      <trkpt lat="44.37142" lon="3.79635">
        <ele>1272.44</ele>
        <time>2014-06-08T12:05:24Z</time>
      </trkpt>
      <trkpt lat="44.3714" lon="3.79633">
        <ele>1272.44</ele>
        <time>2014-06-08T12:05:35Z</time>
      </trkpt>
      <trkpt lat="44.3714" lon="3.79633">
        <ele>1271.96</ele>
        <time>2014-06-08T12:05:49Z</time>
      </trkpt>
      <trkpt lat="44.3714" lon="3.79633">
        <ele>1271.48</ele>
        <time>2014-06-08T12:06:09Z</time>
      </trkpt>
      <trkpt lat="44.3714" lon="3.79633">
        <ele>1271.48</ele>
        <time>2014-06-08T12:06:23Z</time>
      </trkpt>
      <trkpt lat="44.37141" lon="3.79633">
        <ele>1271.96</ele>
        <time>2014-06-08T12:06:35Z</time>
      </trkpt>
      <trkpt lat="44.37141" lon="3.79633">
        <ele>1271</ele>
        <time>2014-06-08T12:06:49Z</time>
      </trkpt>
      <trkpt lat="44.37141" lon="3.79633">
        <ele>1271</ele>
        <time>2014-06-08T12:07:08Z</time>
      </trkpt>
      <trkpt lat="44.37133" lon="3.79627">
        <ele>1272.92</ele>
        <time>2014-06-08T12:18:09Z</time>
      </trkpt>
      <trkpt lat="44.37133" lon="3.79627">
        <ele>1272.92</ele>
        <time>2014-06-08T12:18:10Z</time>
      </trkpt>
      <trkpt lat="44.37132" lon="3.79611">
        <ele>1271.96</ele>
        <time>2014-06-08T12:18:25Z</time>
      </trkpt>
      <trkpt lat="44.37133" lon="3.79606">
        <ele>1271</ele>
        <time>2014-06-08T12:18:29Z</time>
      </trkpt>
      <trkpt lat="44.37129" lon="3.79594">
        <ele>1270.04</ele>
        <time>2014-06-08T12:18:42Z</time>
      </trkpt>
      <trkpt lat="44.37123" lon="3.79589">
        <ele>1269.08</ele>
        <time>2014-06-08T12:18:48Z</time>
      </trkpt>
      <trkpt lat="44.3712" lon="3.7959">
        <ele>1268.12</ele>
        <time>2014-06-08T12:19:01Z</time>
      </trkpt>
      <trkpt lat="44.37099" lon="3.7959">
        <ele>1268.12</ele>
        <time>2014-06-08T12:19:12Z</time>
      </trkpt>
      <trkpt lat="44.37076" lon="3.79572">
        <ele>1270.52</ele>
        <time>2014-06-08T12:19:25Z</time>
      </trkpt>
      <trkpt lat="44.37071" lon="3.79577">
        <ele>1271</ele>
        <time>2014-06-08T12:19:29Z</time>
      </trkpt>
      <trkpt lat="44.3707" lon="3.79581">
        <ele>1271.96</ele>
        <time>2014-06-08T12:19:42Z</time>
      </trkpt>
      <trkpt lat="44.37068" lon="3.79582">
        <ele>1272.44</ele>
        <time>2014-06-08T12:20:01Z</time>
      </trkpt>
      <trkpt lat="44.37068" lon="3.79582">
        <ele>1272.44</ele>
        <time>2014-06-08T12:20:06Z</time>
      </trkpt>
      <trkpt lat="44.37067" lon="3.79591">
        <ele>1273.4</ele>
        <time>2014-06-08T12:21:36Z</time>
      </trkpt>
      <trkpt lat="44.37064" lon="3.79597">
        <ele>1273.88</ele>
        <time>2014-06-08T12:21:39Z</time>
      </trkpt>
      <trkpt lat="44.37059" lon="3.7961">
        <ele>1275.33</ele>
        <time>2014-06-08T12:21:46Z</time>
      </trkpt>
      <trkpt lat="44.37046" lon="3.79634">
        <ele>1277.25</ele>
        <time>2014-06-08T12:21:59Z</time>
      </trkpt>
      <trkpt lat="44.37042" lon="3.79642">
        <ele>1278.21</ele>
        <time>2014-06-08T12:22:04Z</time>
      </trkpt>
      <trkpt lat="44.37033" lon="3.79663">
        <ele>1279.65</ele>
        <time>2014-06-08T12:22:15Z</time>
      </trkpt>
      <trkpt lat="44.37031" lon="3.79671">
        <ele>1280.61</ele>
        <time>2014-06-08T12:22:19Z</time>
      </trkpt>
      <trkpt lat="44.37031" lon="3.79688">
        <ele>1281.09</ele>
        <time>2014-06-08T12:22:28Z</time>
      </trkpt>
      <trkpt lat="44.3703" lon="3.79696">
        <ele>1281.57</ele>
        <time>2014-06-08T12:22:32Z</time>
      </trkpt>
      <trkpt lat="44.37028" lon="3.79699">
        <ele>1282.06</ele>
        <time>2014-06-08T12:22:34Z</time>
      </trkpt>
      <trkpt lat="44.37027" lon="3.7971">
        <ele>1282.54</ele>
        <time>2014-06-08T12:22:38Z</time>
      </trkpt>
      <trkpt lat="44.3703" lon="3.79747">
        <ele>1283.98</ele>
        <time>2014-06-08T12:22:53Z</time>
      </trkpt>
      <trkpt lat="44.37029" lon="3.79751">
        <ele>1283.98</ele>
        <time>2014-06-08T12:22:55Z</time>
      </trkpt>
      <trkpt lat="44.37025" lon="3.7976">
        <ele>1284.94</ele>
        <time>2014-06-08T12:23:00Z</time>
      </trkpt>
      <trkpt lat="44.37024" lon="3.79765">
        <ele>1285.42</ele>
        <time>2014-06-08T12:23:03Z</time>
      </trkpt>
      <trkpt lat="44.37024" lon="3.79775">
        <ele>1285.9</ele>
        <time>2014-06-08T12:23:07Z</time>
      </trkpt>
      <trkpt lat="44.37019" lon="3.7979">
        <ele>1287.34</ele>
        <time>2014-06-08T12:23:18Z</time>
      </trkpt>
      <trkpt lat="44.37016" lon="3.79795">
        <ele>1287.82</ele>
        <time>2014-06-08T12:23:22Z</time>
      </trkpt>
      <trkpt lat="44.37014" lon="3.79799">
        <ele>1288.3</ele>
        <time>2014-06-08T12:23:25Z</time>
      </trkpt>
      <trkpt lat="44.37013" lon="3.79802">
        <ele>1288.3</ele>
        <time>2014-06-08T12:23:40Z</time>
      </trkpt>
      <trkpt lat="44.37015" lon="3.79807">
        <ele>1288.78</ele>
        <time>2014-06-08T12:24:06Z</time>
      </trkpt>
      <trkpt lat="44.37015" lon="3.79807">
        <ele>1288.78</ele>
        <time>2014-06-08T12:24:17Z</time>
      </trkpt>
      <trkpt lat="44.37012" lon="3.79815">
        <ele>1289.75</ele>
        <time>2014-06-08T12:24:28Z</time>
      </trkpt>
      <trkpt lat="44.3701" lon="3.79824">
        <ele>1290.71</ele>
        <time>2014-06-08T12:24:39Z</time>
      </trkpt>
      <trkpt lat="44.37009" lon="3.79853">
        <ele>1292.15</ele>
        <time>2014-06-08T12:24:50Z</time>
      </trkpt>
      <trkpt lat="44.37008" lon="3.79869">
        <ele>1293.59</ele>
        <time>2014-06-08T12:24:57Z</time>
      </trkpt>
      <trkpt lat="44.37008" lon="3.79889">
        <ele>1295.03</ele>
        <time>2014-06-08T12:25:06Z</time>
      </trkpt>
      <trkpt lat="44.37002" lon="3.79899">
        <ele>1296.48</ele>
        <time>2014-06-08T12:25:11Z</time>
      </trkpt>
      <trkpt lat="44.36992" lon="3.79914">
        <ele>1298.88</ele>
        <time>2014-06-08T12:25:22Z</time>
      </trkpt>
      <trkpt lat="44.3699" lon="3.79919">
        <ele>1299.36</ele>
        <time>2014-06-08T12:25:25Z</time>
      </trkpt>
      <trkpt lat="44.36985" lon="3.7993">
        <ele>1300.8</ele>
        <time>2014-06-08T12:25:32Z</time>
      </trkpt>
      <trkpt lat="44.36982" lon="3.79942">
        <ele>1302.24</ele>
        <time>2014-06-08T12:25:38Z</time>
      </trkpt>
      <trkpt lat="44.36976" lon="3.79953">
        <ele>1302.72</ele>
        <time>2014-06-08T12:25:44Z</time>
      </trkpt>
      <trkpt lat="44.36969" lon="3.79958">
        <ele>1303.69</ele>
        <time>2014-06-08T12:25:52Z</time>
      </trkpt>
      <trkpt lat="44.36964" lon="3.79966">
        <ele>1304.17</ele>
        <time>2014-06-08T12:25:57Z</time>
      </trkpt>
      <trkpt lat="44.36947" lon="3.79982">
        <ele>1305.61</ele>
        <time>2014-06-08T12:26:09Z</time>
      </trkpt>
      <trkpt lat="44.36944" lon="3.79997">
        <ele>1305.61</ele>
        <time>2014-06-08T12:26:18Z</time>
      </trkpt>
      <trkpt lat="44.36941" lon="3.79999">
        <ele>1306.09</ele>
        <time>2014-06-08T12:26:21Z</time>
      </trkpt>
      <trkpt lat="44.3695" lon="3.80009">
        <ele>1306.09</ele>
        <time>2014-06-08T12:26:32Z</time>
      </trkpt>
      <trkpt lat="44.3695" lon="3.80009">
        <ele>1306.09</ele>
        <time>2014-06-08T12:26:55Z</time>
      </trkpt>
      <trkpt lat="44.36961" lon="3.80017">
        <ele>1305.61</ele>
        <time>2014-06-08T12:27:21Z</time>
      </trkpt>
      <trkpt lat="44.36969" lon="3.8003">
        <ele>1305.13</ele>
        <time>2014-06-08T12:27:38Z</time>
      </trkpt>
      <trkpt lat="44.36996" lon="3.80067">
        <ele>1305.61</ele>
        <time>2014-06-08T12:27:50Z</time>
      </trkpt>
      <trkpt lat="44.37009" lon="3.80091">
        <ele>1305.13</ele>
        <time>2014-06-08T12:27:57Z</time>
      </trkpt>
      <trkpt lat="44.37012" lon="3.80115">
        <ele>1306.09</ele>
        <time>2014-06-08T12:28:06Z</time>
      </trkpt>
      <trkpt lat="44.37019" lon="3.8013">
        <ele>1306.57</ele>
        <time>2014-06-08T12:28:12Z</time>
      </trkpt>
      <trkpt lat="44.37048" lon="3.80162">
        <ele>1308.49</ele>
        <time>2014-06-08T12:28:25Z</time>
      </trkpt>
      <trkpt lat="44.37075" lon="3.80197">
        <ele>1307.05</ele>
        <time>2014-06-08T12:28:36Z</time>
      </trkpt>
      <trkpt lat="44.37099" lon="3.80221">
        <ele>1307.53</ele>
        <time>2014-06-08T12:28:46Z</time>
      </trkpt>
      <trkpt lat="44.37115" lon="3.80246">
        <ele>1308.97</ele>
        <time>2014-06-08T12:28:56Z</time>
      </trkpt>
      <trkpt lat="44.37124" lon="3.80263">
        <ele>1309.45</ele>
        <time>2014-06-08T12:29:03Z</time>
      </trkpt>
      <trkpt lat="44.37131" lon="3.80282">
        <ele>1309.93</ele>
        <time>2014-06-08T12:29:10Z</time>
      </trkpt>
      <trkpt lat="44.37136" lon="3.80301">
        <ele>1310.9</ele>
        <time>2014-06-08T12:29:17Z</time>
      </trkpt>
      <trkpt lat="44.37142" lon="3.80329">
        <ele>1311.38</ele>
        <time>2014-06-08T12:29:27Z</time>
      </trkpt>
      <trkpt lat="44.37143" lon="3.80333">
        <ele>1311.38</ele>
        <time>2014-06-08T12:29:28Z</time>
      </trkpt>
      <trkpt lat="44.37145" lon="3.80344">
        <ele>1311.38</ele>
        <time>2014-06-08T12:29:32Z</time>
      </trkpt>
      <trkpt lat="44.37153" lon="3.80358">
        <ele>1310.9</ele>
        <time>2014-06-08T12:29:38Z</time>
      </trkpt>
      <trkpt lat="44.37162" lon="3.8038">
        <ele>1311.38</ele>
        <time>2014-06-08T12:29:50Z</time>
      </trkpt>
      <trkpt lat="44.37164" lon="3.80382">
        <ele>1311.38</ele>
        <time>2014-06-08T12:30:00Z</time>
      </trkpt>
      <trkpt lat="44.37177" lon="3.8041">
        <ele>1311.86</ele>
        <time>2014-06-08T12:30:13Z</time>
      </trkpt>
      <trkpt lat="44.37178" lon="3.80414">
        <ele>1311.86</ele>
        <time>2014-06-08T12:30:15Z</time>
      </trkpt>
      <trkpt lat="44.37185" lon="3.80434">
        <ele>1311.86</ele>
        <time>2014-06-08T12:30:23Z</time>
      </trkpt>
      <trkpt lat="44.37186" lon="3.80449">
        <ele>1312.82</ele>
        <time>2014-06-08T12:30:29Z</time>
      </trkpt>
      <trkpt lat="44.37185" lon="3.80457">
        <ele>1312.82</ele>
        <time>2014-06-08T12:30:32Z</time>
      </trkpt>
      <trkpt lat="44.37192" lon="3.80489">
        <ele>1313.78</ele>
        <time>2014-06-08T12:30:44Z</time>
      </trkpt>
      <trkpt lat="44.37193" lon="3.80499">
        <ele>1313.78</ele>
        <time>2014-06-08T12:30:48Z</time>
      </trkpt>
      <trkpt lat="44.37197" lon="3.80516">
        <ele>1313.78</ele>
        <time>2014-06-08T12:30:59Z</time>
      </trkpt>
      <trkpt lat="44.37198" lon="3.80519">
        <ele>1313.3</ele>
        <time>2014-06-08T12:31:11Z</time>
      </trkpt>
      <trkpt lat="44.37201" lon="3.80529">
        <ele>1313.78</ele>
        <time>2014-06-08T12:31:15Z</time>
      </trkpt>
      <trkpt lat="44.37201" lon="3.8054">
        <ele>1313.78</ele>
        <time>2014-06-08T12:31:20Z</time>
      </trkpt>
      <trkpt lat="44.37205" lon="3.80558">
        <ele>1313.78</ele>
        <time>2014-06-08T12:31:27Z</time>
      </trkpt>
      <trkpt lat="44.37206" lon="3.80575">
        <ele>1313.78</ele>
        <time>2014-06-08T12:31:34Z</time>
      </trkpt>
      <trkpt lat="44.37204" lon="3.80587">
        <ele>1314.26</ele>
        <time>2014-06-08T12:31:39Z</time>
      </trkpt>
      <trkpt lat="44.37198" lon="3.80597">
        <ele>1316.18</ele>
        <time>2014-06-08T12:31:51Z</time>
      </trkpt>
      <trkpt lat="44.37197" lon="3.80599">
        <ele>1316.66</ele>
        <time>2014-06-08T12:31:53Z</time>
      </trkpt>
      <trkpt lat="44.37196" lon="3.80602">
        <ele>1317.14</ele>
        <time>2014-06-08T12:31:55Z</time>
      </trkpt>
      <trkpt lat="44.37196" lon="3.80605">
        <ele>1317.14</ele>
        <time>2014-06-08T12:32:07Z</time>
      </trkpt>
      <trkpt lat="44.37192" lon="3.80615">
        <ele>1317.62</ele>
        <time>2014-06-08T12:32:18Z</time>
      </trkpt>
      <trkpt lat="44.37193" lon="3.80615">
        <ele>1317.62</ele>
        <time>2014-06-08T12:32:20Z</time>
      </trkpt>
      <trkpt lat="44.37194" lon="3.80624">
        <ele>1318.1</ele>
        <time>2014-06-08T12:33:36Z</time>
      </trkpt>
      <trkpt lat="44.37191" lon="3.80623">
        <ele>1318.1</ele>
        <time>2014-06-08T12:33:37Z</time>
      </trkpt>
      <trkpt lat="44.37192" lon="3.80626">
        <ele>1318.1</ele>
        <time>2014-06-08T12:33:42Z</time>
      </trkpt>
      <trkpt lat="44.37189" lon="3.8064">
        <ele>1317.62</ele>
        <time>2014-06-08T12:33:48Z</time>
      </trkpt>
      <trkpt lat="44.37187" lon="3.80653">
        <ele>1317.14</ele>
        <time>2014-06-08T12:33:51Z</time>
      </trkpt>
      <trkpt lat="44.37182" lon="3.80667">
        <ele>1317.62</ele>
        <time>2014-06-08T12:33:55Z</time>
      </trkpt>
      <trkpt lat="44.37154" lon="3.80705">
        <ele>1317.62</ele>
        <time>2014-06-08T12:34:09Z</time>
      </trkpt>
      <trkpt lat="44.37134" lon="3.80736">
        <ele>1317.14</ele>
        <time>2014-06-08T12:34:20Z</time>
      </trkpt>
      <trkpt lat="44.3713" lon="3.80747">
        <ele>1315.7</ele>
        <time>2014-06-08T12:34:22Z</time>
      </trkpt>
      <trkpt lat="44.3712" lon="3.80767">
        <ele>1316.66</ele>
        <time>2014-06-08T12:34:27Z</time>
      </trkpt>
      <trkpt lat="44.37121" lon="3.80776">
        <ele>1317.62</ele>
        <time>2014-06-08T12:34:30Z</time>
      </trkpt>
      <trkpt lat="44.37121" lon="3.80779">
        <ele>1317.62</ele>
        <time>2014-06-08T12:34:31Z</time>
      </trkpt>
      <trkpt lat="44.37121" lon="3.80782">
        <ele>1317.62</ele>
        <time>2014-06-08T12:34:32Z</time>
      </trkpt>
      <trkpt lat="44.3712" lon="3.80785">
        <ele>1317.62</ele>
        <time>2014-06-08T12:34:33Z</time>
      </trkpt>
      <trkpt lat="44.3712" lon="3.80788">
        <ele>1317.62</ele>
        <time>2014-06-08T12:34:34Z</time>
      </trkpt>
      <trkpt lat="44.37119" lon="3.80791">
        <ele>1317.62</ele>
        <time>2014-06-08T12:34:35Z</time>
      </trkpt>
      <trkpt lat="44.37118" lon="3.80794">
        <ele>1317.14</ele>
        <time>2014-06-08T12:34:36Z</time>
      </trkpt>
      <trkpt lat="44.37117" lon="3.80797">
        <ele>1317.62</ele>
        <time>2014-06-08T12:34:37Z</time>
      </trkpt>
      <trkpt lat="44.37116" lon="3.80799">
        <ele>1317.62</ele>
        <time>2014-06-08T12:34:38Z</time>
      </trkpt>
      <trkpt lat="44.37114" lon="3.80801">
        <ele>1317.62</ele>
        <time>2014-06-08T12:34:39Z</time>
      </trkpt>
      <trkpt lat="44.37111" lon="3.80805">
        <ele>1317.62</ele>
        <time>2014-06-08T12:34:41Z</time>
      </trkpt>
      <trkpt lat="44.3711" lon="3.80807">
        <ele>1318.1</ele>
        <time>2014-06-08T12:34:42Z</time>
      </trkpt>
      <trkpt lat="44.37102" lon="3.80813">
        <ele>1318.1</ele>
        <time>2014-06-08T12:34:46Z</time>
      </trkpt>
      <trkpt lat="44.37098" lon="3.8082">
        <ele>1318.1</ele>
        <time>2014-06-08T12:34:50Z</time>
      </trkpt>
      <trkpt lat="44.37098" lon="3.80823">
        <ele>1318.1</ele>
        <time>2014-06-08T12:34:51Z</time>
      </trkpt>
      <trkpt lat="44.37098" lon="3.80826">
        <ele>1317.62</ele>
        <time>2014-06-08T12:34:52Z</time>
      </trkpt>
      <trkpt lat="44.37098" lon="3.80827">
        <ele>1318.1</ele>
        <time>2014-06-08T12:34:53Z</time>
      </trkpt>
      <trkpt lat="44.37097" lon="3.80829">
        <ele>1317.62</ele>
        <time>2014-06-08T12:34:54Z</time>
      </trkpt>
      <trkpt lat="44.37095" lon="3.80831">
        <ele>1318.1</ele>
        <time>2014-06-08T12:34:55Z</time>
      </trkpt>
      <trkpt lat="44.37093" lon="3.80844">
        <ele>1317.62</ele>
        <time>2014-06-08T12:35:05Z</time>
      </trkpt>
      <trkpt lat="44.37092" lon="3.80846">
        <ele>1317.62</ele>
        <time>2014-06-08T12:35:26Z</time>
      </trkpt>
      <trkpt lat="44.37091" lon="3.80848">
        <ele>1317.62</ele>
        <time>2014-06-08T12:35:27Z</time>
      </trkpt>
      <trkpt lat="44.3709" lon="3.80851">
        <ele>1317.14</ele>
        <time>2014-06-08T12:35:29Z</time>
      </trkpt>
      <trkpt lat="44.37089" lon="3.80852">
        <ele>1316.66</ele>
        <time>2014-06-08T12:35:30Z</time>
      </trkpt>
      <trkpt lat="44.37088" lon="3.80855">
        <ele>1316.18</ele>
        <time>2014-06-08T12:35:31Z</time>
      </trkpt>
      <trkpt lat="44.37086" lon="3.80858">
        <ele>1316.18</ele>
        <time>2014-06-08T12:35:32Z</time>
      </trkpt>
      <trkpt lat="44.37085" lon="3.8086">
        <ele>1316.18</ele>
        <time>2014-06-08T12:35:33Z</time>
      </trkpt>
      <trkpt lat="44.37083" lon="3.80861">
        <ele>1315.7</ele>
        <time>2014-06-08T12:35:34Z</time>
      </trkpt>
      <trkpt lat="44.37081" lon="3.80862">
        <ele>1316.18</ele>
        <time>2014-06-08T12:35:35Z</time>
      </trkpt>
      <trkpt lat="44.37079" lon="3.80863">
        <ele>1316.66</ele>
        <time>2014-06-08T12:35:36Z</time>
      </trkpt>
      <trkpt lat="44.37073" lon="3.8087">
        <ele>1316.66</ele>
        <time>2014-06-08T12:35:45Z</time>
      </trkpt>
      <trkpt lat="44.37073" lon="3.8087">
        <ele>1317.14</ele>
        <time>2014-06-08T12:36:07Z</time>
      </trkpt>
      <trkpt lat="44.37071" lon="3.80875">
        <ele>1316.66</ele>
        <time>2014-06-08T12:36:32Z</time>
      </trkpt>
      <trkpt lat="44.37063" lon="3.80881">
        <ele>1316.18</ele>
        <time>2014-06-08T12:36:36Z</time>
      </trkpt>
      <trkpt lat="44.37059" lon="3.80885">
        <ele>1316.18</ele>
        <time>2014-06-08T12:36:38Z</time>
      </trkpt>
      <trkpt lat="44.37047" lon="3.80898">
        <ele>1316.18</ele>
        <time>2014-06-08T12:36:48Z</time>
      </trkpt>
      <trkpt lat="44.37045" lon="3.80901">
        <ele>1316.18</ele>
        <time>2014-06-08T12:36:55Z</time>
      </trkpt>
      <trkpt lat="44.37043" lon="3.80902">
        <ele>1315.7</ele>
        <time>2014-06-08T12:36:56Z</time>
      </trkpt>
      <trkpt lat="44.3704" lon="3.80903">
        <ele>1316.18</ele>
        <time>2014-06-08T12:36:57Z</time>
      </trkpt>
      <trkpt lat="44.37038" lon="3.80903">
        <ele>1316.66</ele>
        <time>2014-06-08T12:36:58Z</time>
      </trkpt>
      <trkpt lat="44.37033" lon="3.80907">
        <ele>1317.14</ele>
        <time>2014-06-08T12:37:06Z</time>
      </trkpt>
      <trkpt lat="44.3703" lon="3.80909">
        <ele>1317.14</ele>
        <time>2014-06-08T12:37:19Z</time>
      </trkpt>
      <trkpt lat="44.37026" lon="3.80913">
        <ele>1317.14</ele>
        <time>2014-06-08T12:37:34Z</time>
      </trkpt>
      <trkpt lat="44.37024" lon="3.80916">
        <ele>1317.14</ele>
        <time>2014-06-08T12:37:35Z</time>
      </trkpt>
      <trkpt lat="44.3701" lon="3.80932">
        <ele>1317.14</ele>
        <time>2014-06-08T12:37:45Z</time>
      </trkpt>
      <trkpt lat="44.37011" lon="3.80933">
        <ele>1316.66</ele>
        <time>2014-06-08T12:37:47Z</time>
      </trkpt>
      <trkpt lat="44.37014" lon="3.80933">
        <ele>1317.14</ele>
        <time>2014-06-08T12:37:50Z</time>
      </trkpt>
      <trkpt lat="44.37015" lon="3.80932">
        <ele>1317.14</ele>
        <time>2014-06-08T12:37:51Z</time>
      </trkpt>
      <trkpt lat="44.37016" lon="3.80932">
        <ele>1317.14</ele>
        <time>2014-06-08T12:37:52Z</time>
      </trkpt>
      <trkpt lat="44.37017" lon="3.80933">
        <ele>1317.14</ele>
        <time>2014-06-08T12:37:59Z</time>
      </trkpt>
      <trkpt lat="44.37017" lon="3.80935">
        <ele>1316.66</ele>
        <time>2014-06-08T12:38:00Z</time>
      </trkpt>
      <trkpt lat="44.37017" lon="3.80939">
        <ele>1316.66</ele>
        <time>2014-06-08T12:38:02Z</time>
      </trkpt>
      <trkpt lat="44.37017" lon="3.80942">
        <ele>1317.14</ele>
        <time>2014-06-08T12:38:03Z</time>
      </trkpt>
      <trkpt lat="44.37017" lon="3.80945">
        <ele>1317.14</ele>
        <time>2014-06-08T12:38:04Z</time>
      </trkpt>
      <trkpt lat="44.37012" lon="3.80986">
        <ele>1317.14</ele>
        <time>2014-06-08T12:38:15Z</time>
      </trkpt>
      <trkpt lat="44.37007" lon="3.81025">
        <ele>1317.62</ele>
        <time>2014-06-08T12:38:28Z</time>
      </trkpt>
      <trkpt lat="44.37005" lon="3.8107">
        <ele>1318.1</ele>
        <time>2014-06-08T12:38:41Z</time>
      </trkpt>
      <trkpt lat="44.3701" lon="3.81091">
        <ele>1318.59</ele>
        <time>2014-06-08T12:38:51Z</time>
      </trkpt>
      <trkpt lat="44.37009" lon="3.8109">
        <ele>1318.1</ele>
        <time>2014-06-08T12:39:06Z</time>
      </trkpt>
      <trkpt lat="44.3701" lon="3.81092">
        <ele>1318.1</ele>
        <time>2014-06-08T12:39:07Z</time>
      </trkpt>
      <trkpt lat="44.3701" lon="3.81094">
        <ele>1318.1</ele>
        <time>2014-06-08T12:39:08Z</time>
      </trkpt>
      <trkpt lat="44.37009" lon="3.81099">
        <ele>1318.1</ele>
        <time>2014-06-08T12:39:13Z</time>
      </trkpt>
      <trkpt lat="44.37009" lon="3.81101">
        <ele>1318.1</ele>
        <time>2014-06-08T12:39:14Z</time>
      </trkpt>
      <trkpt lat="44.37008" lon="3.81104">
        <ele>1318.1</ele>
        <time>2014-06-08T12:39:15Z</time>
      </trkpt>
      <trkpt lat="44.37008" lon="3.81107">
        <ele>1317.62</ele>
        <time>2014-06-08T12:39:16Z</time>
      </trkpt>
      <trkpt lat="44.37009" lon="3.8111">
        <ele>1318.1</ele>
        <time>2014-06-08T12:39:17Z</time>
      </trkpt>
      <trkpt lat="44.37009" lon="3.81114">
        <ele>1318.1</ele>
        <time>2014-06-08T12:39:18Z</time>
      </trkpt>
      <trkpt lat="44.37009" lon="3.81117">
        <ele>1318.1</ele>
        <time>2014-06-08T12:39:19Z</time>
      </trkpt>
      <trkpt lat="44.37008" lon="3.8112">
        <ele>1318.1</ele>
        <time>2014-06-08T12:39:20Z</time>
      </trkpt>
      <trkpt lat="44.37007" lon="3.81123">
        <ele>1318.1</ele>
        <time>2014-06-08T12:39:21Z</time>
      </trkpt>
      <trkpt lat="44.37006" lon="3.81125">
        <ele>1318.1</ele>
        <time>2014-06-08T12:39:22Z</time>
      </trkpt>
      <trkpt lat="44.36998" lon="3.81162">
        <ele>1319.07</ele>
        <time>2014-06-08T12:39:34Z</time>
      </trkpt>
      <trkpt lat="44.36995" lon="3.81182">
        <ele>1319.07</ele>
        <time>2014-06-08T12:39:40Z</time>
      </trkpt>
      <trkpt lat="44.36995" lon="3.81186">
        <ele>1319.07</ele>
        <time>2014-06-08T12:39:41Z</time>
      </trkpt>
      <trkpt lat="44.36995" lon="3.81189">
        <ele>1319.07</ele>
        <time>2014-06-08T12:39:42Z</time>
      </trkpt>
      <trkpt lat="44.36994" lon="3.81192">
        <ele>1319.07</ele>
        <time>2014-06-08T12:39:43Z</time>
      </trkpt>
      <trkpt lat="44.36993" lon="3.81194">
        <ele>1319.07</ele>
        <time>2014-06-08T12:39:44Z</time>
      </trkpt>
      <trkpt lat="44.36993" lon="3.81197">
        <ele>1319.55</ele>
        <time>2014-06-08T12:39:45Z</time>
      </trkpt>
      <trkpt lat="44.36994" lon="3.81199">
        <ele>1319.07</ele>
        <time>2014-06-08T12:39:46Z</time>
      </trkpt>
      <trkpt lat="44.36993" lon="3.81207">
        <ele>1318.59</ele>
        <time>2014-06-08T12:39:52Z</time>
      </trkpt>
      <trkpt lat="44.36989" lon="3.81212">
        <ele>1319.07</ele>
        <time>2014-06-08T12:39:59Z</time>
      </trkpt>
      <trkpt lat="44.36987" lon="3.81214">
        <ele>1318.59</ele>
        <time>2014-06-08T12:40:00Z</time>
      </trkpt>
      <trkpt lat="44.36984" lon="3.81216">
        <ele>1318.59</ele>
        <time>2014-06-08T12:40:01Z</time>
      </trkpt>
      <trkpt lat="44.36982" lon="3.81218">
        <ele>1318.59</ele>
        <time>2014-06-08T12:40:02Z</time>
      </trkpt>
      <trkpt lat="44.3698" lon="3.81219">
        <ele>1318.59</ele>
        <time>2014-06-08T12:40:03Z</time>
      </trkpt>
      <trkpt lat="44.36977" lon="3.8122">
        <ele>1318.59</ele>
        <time>2014-06-08T12:40:04Z</time>
      </trkpt>
      <trkpt lat="44.36946" lon="3.81241">
        <ele>1318.1</ele>
        <time>2014-06-08T12:40:16Z</time>
      </trkpt>
      <trkpt lat="44.36924" lon="3.81259">
        <ele>1319.07</ele>
        <time>2014-06-08T12:40:26Z</time>
      </trkpt>
      <trkpt lat="44.36904" lon="3.81279">
        <ele>1320.51</ele>
        <time>2014-06-08T12:40:37Z</time>
      </trkpt>
      <trkpt lat="44.36882" lon="3.81292">
        <ele>1319.55</ele>
        <time>2014-06-08T12:40:44Z</time>
      </trkpt>
      <trkpt lat="44.3688" lon="3.81295">
        <ele>1319.55</ele>
        <time>2014-06-08T12:40:45Z</time>
      </trkpt>
      <trkpt lat="44.36878" lon="3.81298">
        <ele>1319.55</ele>
        <time>2014-06-08T12:40:46Z</time>
      </trkpt>
      <trkpt lat="44.36877" lon="3.81301">
        <ele>1319.55</ele>
        <time>2014-06-08T12:40:47Z</time>
      </trkpt>
      <trkpt lat="44.36875" lon="3.81304">
        <ele>1319.55</ele>
        <time>2014-06-08T12:40:48Z</time>
      </trkpt>
      <trkpt lat="44.36874" lon="3.81308">
        <ele>1319.55</ele>
        <time>2014-06-08T12:40:49Z</time>
      </trkpt>
      <trkpt lat="44.3687" lon="3.81317">
        <ele>1319.07</ele>
        <time>2014-06-08T12:40:51Z</time>
      </trkpt>
      <trkpt lat="44.36868" lon="3.81322">
        <ele>1318.59</ele>
        <time>2014-06-08T12:40:52Z</time>
      </trkpt>
      <trkpt lat="44.36861" lon="3.81335">
        <ele>1320.03</ele>
        <time>2014-06-08T12:40:56Z</time>
      </trkpt>
      <trkpt lat="44.3686" lon="3.81337">
        <ele>1320.03</ele>
        <time>2014-06-08T12:40:57Z</time>
      </trkpt>
      <trkpt lat="44.36858" lon="3.81337">
        <ele>1320.51</ele>
        <time>2014-06-08T12:40:59Z</time>
      </trkpt>
      <trkpt lat="44.36857" lon="3.81337">
        <ele>1320.99</ele>
        <time>2014-06-08T12:41:00Z</time>
      </trkpt>
      <trkpt lat="44.36855" lon="3.81338">
        <ele>1321.47</ele>
        <time>2014-06-08T12:41:01Z</time>
      </trkpt>
      <trkpt lat="44.36853" lon="3.81339">
        <ele>1320.99</ele>
        <time>2014-06-08T12:41:02Z</time>
      </trkpt>
      <trkpt lat="44.36852" lon="3.81341">
        <ele>1320.99</ele>
        <time>2014-06-08T12:41:03Z</time>
      </trkpt>
      <trkpt lat="44.36851" lon="3.81343">
        <ele>1320.99</ele>
        <time>2014-06-08T12:41:04Z</time>
      </trkpt>
      <trkpt lat="44.3685" lon="3.81345">
        <ele>1320.99</ele>
        <time>2014-06-08T12:41:05Z</time>
      </trkpt>
      <trkpt lat="44.36849" lon="3.81348">
        <ele>1320.99</ele>
        <time>2014-06-08T12:41:06Z</time>
      </trkpt>
      <trkpt lat="44.36846" lon="3.81351">
        <ele>1320.51</ele>
        <time>2014-06-08T12:41:07Z</time>
      </trkpt>
      <trkpt lat="44.36834" lon="3.81368">
        <ele>1321.95</ele>
        <time>2014-06-08T12:41:14Z</time>
      </trkpt>
      <trkpt lat="44.36834" lon="3.8137">
        <ele>1322.43</ele>
        <time>2014-06-08T12:41:15Z</time>
      </trkpt>
      <trkpt lat="44.36833" lon="3.81373">
        <ele>1322.43</ele>
        <time>2014-06-08T12:41:16Z</time>
      </trkpt>
      <trkpt lat="44.36833" lon="3.81376">
        <ele>1322.91</ele>
        <time>2014-06-08T12:41:17Z</time>
      </trkpt>
      <trkpt lat="44.36833" lon="3.81378">
        <ele>1322.43</ele>
        <time>2014-06-08T12:41:18Z</time>
      </trkpt>
      <trkpt lat="44.36832" lon="3.81381">
        <ele>1322.43</ele>
        <time>2014-06-08T12:41:19Z</time>
      </trkpt>
      <trkpt lat="44.36831" lon="3.81383">
        <ele>1322.91</ele>
        <time>2014-06-08T12:41:29Z</time>
      </trkpt>
      <trkpt lat="44.36828" lon="3.8139">
        <ele>1322.43</ele>
        <time>2014-06-08T12:41:51Z</time>
      </trkpt>
      <trkpt lat="44.36828" lon="3.81395">
        <ele>1322.91</ele>
        <time>2014-06-08T12:41:53Z</time>
      </trkpt>
      <trkpt lat="44.36829" lon="3.81398">
        <ele>1322.43</ele>
        <time>2014-06-08T12:41:54Z</time>
      </trkpt>
      <trkpt lat="44.3683" lon="3.81402">
        <ele>1322.43</ele>
        <time>2014-06-08T12:41:55Z</time>
      </trkpt>
      <trkpt lat="44.36831" lon="3.81406">
        <ele>1322.43</ele>
        <time>2014-06-08T12:41:56Z</time>
      </trkpt>
      <trkpt lat="44.3683" lon="3.8141">
        <ele>1322.43</ele>
        <time>2014-06-08T12:41:57Z</time>
      </trkpt>
      <trkpt lat="44.3683" lon="3.81412">
        <ele>1322.91</ele>
        <time>2014-06-08T12:41:58Z</time>
      </trkpt>
      <trkpt lat="44.36829" lon="3.81414">
        <ele>1322.91</ele>
        <time>2014-06-08T12:42:11Z</time>
      </trkpt>
      <trkpt lat="44.3683" lon="3.81421">
        <ele>1322.91</ele>
        <time>2014-06-08T12:42:16Z</time>
      </trkpt>
      <trkpt lat="44.36829" lon="3.81423">
        <ele>1322.91</ele>
        <time>2014-06-08T12:42:17Z</time>
      </trkpt>
      <trkpt lat="44.36829" lon="3.81428">
        <ele>1323.39</ele>
        <time>2014-06-08T12:42:19Z</time>
      </trkpt>
      <trkpt lat="44.36829" lon="3.8143">
        <ele>1323.39</ele>
        <time>2014-06-08T12:42:20Z</time>
      </trkpt>
      <trkpt lat="44.36829" lon="3.81433">
        <ele>1323.39</ele>
        <time>2014-06-08T12:42:21Z</time>
      </trkpt>
      <trkpt lat="44.3683" lon="3.81435">
        <ele>1323.87</ele>
        <time>2014-06-08T12:42:22Z</time>
      </trkpt>
      <trkpt lat="44.36831" lon="3.81437">
        <ele>1323.87</ele>
        <time>2014-06-08T12:42:23Z</time>
      </trkpt>
      <trkpt lat="44.36831" lon="3.81441">
        <ele>1323.39</ele>
        <time>2014-06-08T12:42:24Z</time>
      </trkpt>
      <trkpt lat="44.36833" lon="3.8145">
        <ele>1323.39</ele>
        <time>2014-06-08T12:42:27Z</time>
      </trkpt>
      <trkpt lat="44.36833" lon="3.81454">
        <ele>1323.39</ele>
        <time>2014-06-08T12:42:28Z</time>
      </trkpt>
      <trkpt lat="44.36833" lon="3.81457">
        <ele>1323.39</ele>
        <time>2014-06-08T12:42:29Z</time>
      </trkpt>
      <trkpt lat="44.36832" lon="3.8146">
        <ele>1322.91</ele>
        <time>2014-06-08T12:42:31Z</time>
      </trkpt>
      <trkpt lat="44.36829" lon="3.81469">
        <ele>1322.43</ele>
        <time>2014-06-08T12:42:35Z</time>
      </trkpt>
      <trkpt lat="44.36832" lon="3.81473">
        <ele>1322.43</ele>
        <time>2014-06-08T12:42:36Z</time>
      </trkpt>
      <trkpt lat="44.36835" lon="3.81475">
        <ele>1322.43</ele>
        <time>2014-06-08T12:42:37Z</time>
      </trkpt>
      <trkpt lat="44.36838" lon="3.81478">
        <ele>1322.43</ele>
        <time>2014-06-08T12:42:38Z</time>
      </trkpt>
      <trkpt lat="44.3684" lon="3.81482">
        <ele>1321.95</ele>
        <time>2014-06-08T12:42:39Z</time>
      </trkpt>
      <trkpt lat="44.36843" lon="3.81486">
        <ele>1321.47</ele>
        <time>2014-06-08T12:42:40Z</time>
      </trkpt>
      <trkpt lat="44.36847" lon="3.8149">
        <ele>1321.47</ele>
        <time>2014-06-08T12:42:41Z</time>
      </trkpt>
      <trkpt lat="44.3685" lon="3.81495">
        <ele>1320.99</ele>
        <time>2014-06-08T12:42:42Z</time>
      </trkpt>
      <trkpt lat="44.36852" lon="3.81499">
        <ele>1320.99</ele>
        <time>2014-06-08T12:42:43Z</time>
      </trkpt>
      <trkpt lat="44.36852" lon="3.81501">
        <ele>1321.47</ele>
        <time>2014-06-08T12:42:44Z</time>
      </trkpt>
      <trkpt lat="44.36853" lon="3.81503">
        <ele>1321.47</ele>
        <time>2014-06-08T12:42:45Z</time>
      </trkpt>
      <trkpt lat="44.36854" lon="3.81505">
        <ele>1321.47</ele>
        <time>2014-06-08T12:42:46Z</time>
      </trkpt>
      <trkpt lat="44.36855" lon="3.81507">
        <ele>1321.95</ele>
        <time>2014-06-08T12:42:47Z</time>
      </trkpt>
      <trkpt lat="44.36857" lon="3.81509">
        <ele>1321.47</ele>
        <time>2014-06-08T12:42:48Z</time>
      </trkpt>
      <trkpt lat="44.36861" lon="3.81512">
        <ele>1320.99</ele>
        <time>2014-06-08T12:42:49Z</time>
      </trkpt>
      <trkpt lat="44.36865" lon="3.81515">
        <ele>1320.03</ele>
        <time>2014-06-08T12:42:50Z</time>
      </trkpt>
      <trkpt lat="44.36869" lon="3.81517">
        <ele>1319.55</ele>
        <time>2014-06-08T12:42:51Z</time>
      </trkpt>
      <trkpt lat="44.36872" lon="3.81521">
        <ele>1319.55</ele>
        <time>2014-06-08T12:42:52Z</time>
      </trkpt>
      <trkpt lat="44.36875" lon="3.81524">
        <ele>1320.03</ele>
        <time>2014-06-08T12:42:53Z</time>
      </trkpt>
      <trkpt lat="44.36877" lon="3.81527">
        <ele>1320.03</ele>
        <time>2014-06-08T12:42:54Z</time>
      </trkpt>
      <trkpt lat="44.36879" lon="3.81531">
        <ele>1320.51</ele>
        <time>2014-06-08T12:42:55Z</time>
      </trkpt>
      <trkpt lat="44.36882" lon="3.81535">
        <ele>1320.03</ele>
        <time>2014-06-08T12:42:56Z</time>
      </trkpt>
      <trkpt lat="44.36886" lon="3.81537">
        <ele>1319.55</ele>
        <time>2014-06-08T12:42:57Z</time>
      </trkpt>
      <trkpt lat="44.36891" lon="3.81538">
        <ele>1319.55</ele>
        <time>2014-06-08T12:42:58Z</time>
      </trkpt>
      <trkpt lat="44.36895" lon="3.8154">
        <ele>1320.03</ele>
        <time>2014-06-08T12:42:59Z</time>
      </trkpt>
      <trkpt lat="44.36899" lon="3.81542">
        <ele>1320.03</ele>
        <time>2014-06-08T12:43:00Z</time>
      </trkpt>
      <trkpt lat="44.36903" lon="3.81545">
        <ele>1320.03</ele>
        <time>2014-06-08T12:43:01Z</time>
      </trkpt>
      <trkpt lat="44.36911" lon="3.8155">
        <ele>1320.03</ele>
        <time>2014-06-08T12:43:03Z</time>
      </trkpt>
      <trkpt lat="44.3692" lon="3.81554">
        <ele>1319.55</ele>
        <time>2014-06-08T12:43:05Z</time>
      </trkpt>
      <trkpt lat="44.36923" lon="3.81557">
        <ele>1320.03</ele>
        <time>2014-06-08T12:43:06Z</time>
      </trkpt>
      <trkpt lat="44.36927" lon="3.81559">
        <ele>1320.03</ele>
        <time>2014-06-08T12:43:07Z</time>
      </trkpt>
      <trkpt lat="44.3693" lon="3.8156">
        <ele>1320.51</ele>
        <time>2014-06-08T12:43:08Z</time>
      </trkpt>
      <trkpt lat="44.36934" lon="3.81561">
        <ele>1320.03</ele>
        <time>2014-06-08T12:43:09Z</time>
      </trkpt>
      <trkpt lat="44.36937" lon="3.81563">
        <ele>1320.03</ele>
        <time>2014-06-08T12:43:10Z</time>
      </trkpt>
      <trkpt lat="44.36975" lon="3.81583">
        <ele>1320.51</ele>
        <time>2014-06-08T12:43:22Z</time>
      </trkpt>
      <trkpt lat="44.37014" lon="3.81607">
        <ele>1320.51</ele>
        <time>2014-06-08T12:43:36Z</time>
      </trkpt>
      <trkpt lat="44.37037" lon="3.81627">
        <ele>1320.99</ele>
        <time>2014-06-08T12:43:49Z</time>
      </trkpt>
      <trkpt lat="44.37037" lon="3.81627">
        <ele>1320.99</ele>
        <time>2014-06-08T12:44:23Z</time>
      </trkpt>
      <trkpt lat="44.3704" lon="3.8163">
        <ele>1320.99</ele>
        <time>2014-06-08T12:45:00Z</time>
      </trkpt>
      <trkpt lat="44.37066" lon="3.81653">
        <ele>1321.47</ele>
        <time>2014-06-08T12:45:11Z</time>
      </trkpt>
      <trkpt lat="44.37098" lon="3.81674">
        <ele>1321.95</ele>
        <time>2014-06-08T12:45:24Z</time>
      </trkpt>
      <trkpt lat="44.37126" lon="3.81711">
        <ele>1322.43</ele>
        <time>2014-06-08T12:45:38Z</time>
      </trkpt>
      <trkpt lat="44.37145" lon="3.81735">
        <ele>1322.91</ele>
        <time>2014-06-08T12:45:48Z</time>
      </trkpt>
      <trkpt lat="44.37147" lon="3.81738">
        <ele>1322.91</ele>
        <time>2014-06-08T12:45:49Z</time>
      </trkpt>
      <trkpt lat="44.37149" lon="3.81741">
        <ele>1322.91</ele>
        <time>2014-06-08T12:45:50Z</time>
      </trkpt>
      <trkpt lat="44.3717" lon="3.81787">
        <ele>1323.39</ele>
        <time>2014-06-08T12:46:04Z</time>
      </trkpt>
      <trkpt lat="44.37167" lon="3.81836">
        <ele>1322.91</ele>
        <time>2014-06-08T12:46:16Z</time>
      </trkpt>
      <trkpt lat="44.3715" lon="3.81882">
        <ele>1322.91</ele>
        <time>2014-06-08T12:46:28Z</time>
      </trkpt>
      <trkpt lat="44.37145" lon="3.81912">
        <ele>1321.95</ele>
        <time>2014-06-08T12:46:34Z</time>
      </trkpt>
      <trkpt lat="44.37143" lon="3.81917">
        <ele>1321.95</ele>
        <time>2014-06-08T12:46:35Z</time>
      </trkpt>
      <trkpt lat="44.37142" lon="3.81922">
        <ele>1321.95</ele>
        <time>2014-06-08T12:46:36Z</time>
      </trkpt>
      <trkpt lat="44.37141" lon="3.81927">
        <ele>1321.95</ele>
        <time>2014-06-08T12:46:37Z</time>
      </trkpt>
      <trkpt lat="44.3714" lon="3.81931">
        <ele>1322.91</ele>
        <time>2014-06-08T12:46:38Z</time>
      </trkpt>
      <trkpt lat="44.37139" lon="3.81935">
        <ele>1323.39</ele>
        <time>2014-06-08T12:46:39Z</time>
      </trkpt>
      <trkpt lat="44.37137" lon="3.81961">
        <ele>1323.39</ele>
        <time>2014-06-08T12:46:46Z</time>
      </trkpt>
      <trkpt lat="44.37136" lon="3.81966">
        <ele>1323.39</ele>
        <time>2014-06-08T12:46:47Z</time>
      </trkpt>
      <trkpt lat="44.37134" lon="3.81969">
        <ele>1323.87</ele>
        <time>2014-06-08T12:46:48Z</time>
      </trkpt>
      <trkpt lat="44.37132" lon="3.81973">
        <ele>1323.87</ele>
        <time>2014-06-08T12:46:49Z</time>
      </trkpt>
      <trkpt lat="44.3713" lon="3.81976">
        <ele>1322.91</ele>
        <time>2014-06-08T12:46:50Z</time>
      </trkpt>
      <trkpt lat="44.37128" lon="3.8198">
        <ele>1322.43</ele>
        <time>2014-06-08T12:46:51Z</time>
      </trkpt>
      <trkpt lat="44.37127" lon="3.81984">
        <ele>1321.95</ele>
        <time>2014-06-08T12:46:52Z</time>
      </trkpt>
      <trkpt lat="44.37126" lon="3.81997">
        <ele>1323.39</ele>
        <time>2014-06-08T12:47:00Z</time>
      </trkpt>
      <trkpt lat="44.37127" lon="3.82006">
        <ele>1322.91</ele>
        <time>2014-06-08T12:47:11Z</time>
      </trkpt>
      <trkpt lat="44.37129" lon="3.82044">
        <ele>1322.43</ele>
        <time>2014-06-08T12:47:20Z</time>
      </trkpt>
      <trkpt lat="44.37135" lon="3.82055">
        <ele>1322.91</ele>
        <time>2014-06-08T12:47:23Z</time>
      </trkpt>
      <trkpt lat="44.37135" lon="3.82059">
        <ele>1323.39</ele>
        <time>2014-06-08T12:47:24Z</time>
      </trkpt>
      <trkpt lat="44.37136" lon="3.82063">
        <ele>1322.91</ele>
        <time>2014-06-08T12:47:25Z</time>
      </trkpt>
      <trkpt lat="44.37137" lon="3.82067">
        <ele>1323.87</ele>
        <time>2014-06-08T12:47:26Z</time>
      </trkpt>
      <trkpt lat="44.37138" lon="3.8207">
        <ele>1323.87</ele>
        <time>2014-06-08T12:47:27Z</time>
      </trkpt>
      <trkpt lat="44.37139" lon="3.82073">
        <ele>1324.35</ele>
        <time>2014-06-08T12:47:28Z</time>
      </trkpt>
      <trkpt lat="44.37141" lon="3.82076">
        <ele>1324.35</ele>
        <time>2014-06-08T12:47:29Z</time>
      </trkpt>
      <trkpt lat="44.37143" lon="3.82078">
        <ele>1324.83</ele>
        <time>2014-06-08T12:47:30Z</time>
      </trkpt>
      <trkpt lat="44.37144" lon="3.8208">
        <ele>1324.83</ele>
        <time>2014-06-08T12:47:31Z</time>
      </trkpt>
      <trkpt lat="44.37146" lon="3.82083">
        <ele>1325.31</ele>
        <time>2014-06-08T12:47:32Z</time>
      </trkpt>
      <trkpt lat="44.37162" lon="3.82118">
        <ele>1324.83</ele>
        <time>2014-06-08T12:47:43Z</time>
      </trkpt>
      <trkpt lat="44.37177" lon="3.82155">
        <ele>1324.35</ele>
        <time>2014-06-08T12:47:53Z</time>
      </trkpt>
      <trkpt lat="44.37188" lon="3.82183">
        <ele>1323.39</ele>
        <time>2014-06-08T12:48:01Z</time>
      </trkpt>
      <trkpt lat="44.3719" lon="3.82186">
        <ele>1322.91</ele>
        <time>2014-06-08T12:48:02Z</time>
      </trkpt>
      <trkpt lat="44.37193" lon="3.82188">
        <ele>1323.87</ele>
        <time>2014-06-08T12:48:04Z</time>
      </trkpt>
      <trkpt lat="44.37196" lon="3.8219">
        <ele>1323.39</ele>
        <time>2014-06-08T12:48:05Z</time>
      </trkpt>
      <trkpt lat="44.37198" lon="3.82192">
        <ele>1323.39</ele>
        <time>2014-06-08T12:48:06Z</time>
      </trkpt>
      <trkpt lat="44.37199" lon="3.82196">
        <ele>1323.39</ele>
        <time>2014-06-08T12:48:07Z</time>
      </trkpt>
      <trkpt lat="44.37201" lon="3.82199">
        <ele>1323.39</ele>
        <time>2014-06-08T12:48:08Z</time>
      </trkpt>
      <trkpt lat="44.37204" lon="3.82201">
        <ele>1323.39</ele>
        <time>2014-06-08T12:48:09Z</time>
      </trkpt>
      <trkpt lat="44.37206" lon="3.82202">
        <ele>1323.39</ele>
        <time>2014-06-08T12:48:10Z</time>
      </trkpt>
      <trkpt lat="44.37208" lon="3.82204">
        <ele>1323.39</ele>
        <time>2014-06-08T12:48:11Z</time>
      </trkpt>
      <trkpt lat="44.37227" lon="3.82213">
        <ele>1323.39</ele>
        <time>2014-06-08T12:48:20Z</time>
      </trkpt>
      <trkpt lat="44.37228" lon="3.82211">
        <ele>1323.39</ele>
        <time>2014-06-08T12:48:21Z</time>
      </trkpt>
      <trkpt lat="44.37228" lon="3.82209">
        <ele>1322.91</ele>
        <time>2014-06-08T12:48:22Z</time>
      </trkpt>
      <trkpt lat="44.3723" lon="3.82208">
        <ele>1323.39</ele>
        <time>2014-06-08T12:48:23Z</time>
      </trkpt>
      <trkpt lat="44.37232" lon="3.82207">
        <ele>1323.39</ele>
        <time>2014-06-08T12:48:25Z</time>
      </trkpt>
      <trkpt lat="44.37234" lon="3.82208">
        <ele>1322.91</ele>
        <time>2014-06-08T12:48:26Z</time>
      </trkpt>
      <trkpt lat="44.37236" lon="3.8221">
        <ele>1323.39</ele>
        <time>2014-06-08T12:48:27Z</time>
      </trkpt>
      <trkpt lat="44.37236" lon="3.82212">
        <ele>1322.91</ele>
        <time>2014-06-08T12:48:28Z</time>
      </trkpt>
      <trkpt lat="44.37236" lon="3.82215">
        <ele>1323.39</ele>
        <time>2014-06-08T12:48:29Z</time>
      </trkpt>
      <trkpt lat="44.37235" lon="3.82217">
        <ele>1322.91</ele>
        <time>2014-06-08T12:48:30Z</time>
      </trkpt>
      <trkpt lat="44.37236" lon="3.82219">
        <ele>1322.91</ele>
        <time>2014-06-08T12:48:31Z</time>
      </trkpt>
      <trkpt lat="44.37237" lon="3.8222">
        <ele>1323.39</ele>
        <time>2014-06-08T12:48:32Z</time>
      </trkpt>
      <trkpt lat="44.37238" lon="3.82222">
        <ele>1323.39</ele>
        <time>2014-06-08T12:48:33Z</time>
      </trkpt>
      <trkpt lat="44.37239" lon="3.82223">
        <ele>1323.87</ele>
        <time>2014-06-08T12:48:34Z</time>
      </trkpt>
      <trkpt lat="44.37241" lon="3.82227">
        <ele>1323.87</ele>
        <time>2014-06-08T12:48:45Z</time>
      </trkpt>
      <trkpt lat="44.37242" lon="3.82229">
        <ele>1323.87</ele>
        <time>2014-06-08T12:48:46Z</time>
      </trkpt>
      <trkpt lat="44.37243" lon="3.82231">
        <ele>1323.87</ele>
        <time>2014-06-08T12:48:47Z</time>
      </trkpt>
      <trkpt lat="44.37245" lon="3.82234">
        <ele>1323.87</ele>
        <time>2014-06-08T12:48:48Z</time>
      </trkpt>
      <trkpt lat="44.37247" lon="3.82236">
        <ele>1323.87</ele>
        <time>2014-06-08T12:48:49Z</time>
      </trkpt>
      <trkpt lat="44.37248" lon="3.82239">
        <ele>1324.35</ele>
        <time>2014-06-08T12:48:50Z</time>
      </trkpt>
      <trkpt lat="44.37249" lon="3.82242">
        <ele>1324.35</ele>
        <time>2014-06-08T12:48:51Z</time>
      </trkpt>
      <trkpt lat="44.37266" lon="3.82262">
        <ele>1325.31</ele>
        <time>2014-06-08T12:49:01Z</time>
      </trkpt>
      <trkpt lat="44.37296" lon="3.82265">
        <ele>1325.8</ele>
        <time>2014-06-08T12:49:14Z</time>
      </trkpt>
      <trkpt lat="44.373" lon="3.82265">
        <ele>1325.8</ele>
        <time>2014-06-08T12:49:26Z</time>
      </trkpt>
      <trkpt lat="44.373" lon="3.82265">
        <ele>1325.8</ele>
        <time>2014-06-08T12:49:36Z</time>
      </trkpt>
      <trkpt lat="44.373" lon="3.82264">
        <ele>1326.28</ele>
        <time>2014-06-08T12:49:40Z</time>
      </trkpt>
      <trkpt lat="44.37301" lon="3.82263">
        <ele>1326.28</ele>
        <time>2014-06-08T12:49:41Z</time>
      </trkpt>
      <trkpt lat="44.37304" lon="3.82251">
        <ele>1325.8</ele>
        <time>2014-06-08T12:49:48Z</time>
      </trkpt>
      <trkpt lat="44.37305" lon="3.82249">
        <ele>1325.8</ele>
        <time>2014-06-08T12:49:49Z</time>
      </trkpt>
      <trkpt lat="44.37307" lon="3.82247">
        <ele>1325.8</ele>
        <time>2014-06-08T12:49:50Z</time>
      </trkpt>
      <trkpt lat="44.37309" lon="3.82245">
        <ele>1325.31</ele>
        <time>2014-06-08T12:49:51Z</time>
      </trkpt>
      <trkpt lat="44.3731" lon="3.82243">
        <ele>1325.8</ele>
        <time>2014-06-08T12:49:52Z</time>
      </trkpt>
      <trkpt lat="44.37311" lon="3.82241">
        <ele>1325.8</ele>
        <time>2014-06-08T12:49:53Z</time>
      </trkpt>
      <trkpt lat="44.3731" lon="3.82228">
        <ele>1324.83</ele>
        <time>2014-06-08T12:50:05Z</time>
      </trkpt>
      <trkpt lat="44.37309" lon="3.82228">
        <ele>1324.83</ele>
        <time>2014-06-08T12:50:11Z</time>
      </trkpt>
      <trkpt lat="44.37313" lon="3.82229">
        <ele>1322.91</ele>
        <time>2014-06-08T13:47:35Z</time>
      </trkpt>
      <trkpt lat="44.37311" lon="3.82228">
        <ele>1322.91</ele>
        <time>2014-06-08T13:47:36Z</time>
      </trkpt>
      <trkpt lat="44.37306" lon="3.82233">
        <ele>1322.43</ele>
        <time>2014-06-08T13:47:42Z</time>
      </trkpt>
      <trkpt lat="44.37311" lon="3.82243">
        <ele>1324.35</ele>
        <time>2014-06-08T13:47:47Z</time>
      </trkpt>
      <trkpt lat="44.37315" lon="3.82248">
        <ele>1324.35</ele>
        <time>2014-06-08T13:47:50Z</time>
      </trkpt>
      <trkpt lat="44.37322" lon="3.82251">
        <ele>1324.83</ele>
        <time>2014-06-08T13:47:54Z</time>
      </trkpt>
      <trkpt lat="44.37336" lon="3.82272">
        <ele>1326.28</ele>
        <time>2014-06-08T13:48:07Z</time>
      </trkpt>
      <trkpt lat="44.37338" lon="3.82273">
        <ele>1326.28</ele>
        <time>2014-06-08T13:48:08Z</time>
      </trkpt>
      <trkpt lat="44.37359" lon="3.82279">
        <ele>1328.2</ele>
        <time>2014-06-08T13:48:23Z</time>
      </trkpt>
      <trkpt lat="44.37369" lon="3.82281">
        <ele>1328.68</ele>
        <time>2014-06-08T13:48:32Z</time>
      </trkpt>
      <trkpt lat="44.3739" lon="3.82298">
        <ele>1330.12</ele>
        <time>2014-06-08T13:48:46Z</time>
      </trkpt>
      <trkpt lat="44.37416" lon="3.8232">
        <ele>1332.04</ele>
        <time>2014-06-08T13:48:59Z</time>
      </trkpt>
      <trkpt lat="44.37441" lon="3.82345">
        <ele>1333.01</ele>
        <time>2014-06-08T13:49:11Z</time>
      </trkpt>
      <trkpt lat="44.37467" lon="3.82373">
        <ele>1333.49</ele>
        <time>2014-06-08T13:49:24Z</time>
      </trkpt>
      <trkpt lat="44.37481" lon="3.8239">
        <ele>1334.45</ele>
        <time>2014-06-08T13:49:32Z</time>
      </trkpt>
      <trkpt lat="44.37492" lon="3.82398">
        <ele>1334.93</ele>
        <time>2014-06-08T13:49:37Z</time>
      </trkpt>
      <trkpt lat="44.37528" lon="3.82439">
        <ele>1334.93</ele>
        <time>2014-06-08T13:49:53Z</time>
      </trkpt>
      <trkpt lat="44.37567" lon="3.82483">
        <ele>1335.41</ele>
        <time>2014-06-08T13:50:09Z</time>
      </trkpt>
      <trkpt lat="44.37582" lon="3.82537">
        <ele>1336.37</ele>
        <time>2014-06-08T13:50:22Z</time>
      </trkpt>
      <trkpt lat="44.37578" lon="3.82586">
        <ele>1337.33</ele>
        <time>2014-06-08T13:50:34Z</time>
      </trkpt>
      <trkpt lat="44.3756" lon="3.82637">
        <ele>1337.33</ele>
        <time>2014-06-08T13:50:46Z</time>
      </trkpt>
      <trkpt lat="44.37546" lon="3.82678">
        <ele>1338.29</ele>
        <time>2014-06-08T13:50:55Z</time>
      </trkpt>
      <trkpt lat="44.37546" lon="3.82684">
        <ele>1338.29</ele>
        <time>2014-06-08T13:50:56Z</time>
      </trkpt>
      <trkpt lat="44.37545" lon="3.82688">
        <ele>1338.29</ele>
        <time>2014-06-08T13:50:57Z</time>
      </trkpt>
      <trkpt lat="44.37545" lon="3.82692">
        <ele>1338.29</ele>
        <time>2014-06-08T13:50:58Z</time>
      </trkpt>
      <trkpt lat="44.37544" lon="3.82696">
        <ele>1338.77</ele>
        <time>2014-06-08T13:50:59Z</time>
      </trkpt>
      <trkpt lat="44.37523" lon="3.82739">
        <ele>1339.73</ele>
        <time>2014-06-08T13:51:12Z</time>
      </trkpt>
      <trkpt lat="44.3751" lon="3.82754">
        <ele>1341.18</ele>
        <time>2014-06-08T13:51:25Z</time>
      </trkpt>
      <trkpt lat="44.3751" lon="3.82754">
        <ele>1339.25</ele>
        <time>2014-06-08T13:51:29Z</time>
      </trkpt>
      <trkpt lat="44.37507" lon="3.82755">
        <ele>1341.66</ele>
        <time>2014-06-08T13:54:34Z</time>
      </trkpt>
      <trkpt lat="44.37504" lon="3.82756">
        <ele>1341.66</ele>
        <time>2014-06-08T13:54:36Z</time>
      </trkpt>
      <trkpt lat="44.37473" lon="3.82771">
        <ele>1343.1</ele>
        <time>2014-06-08T13:54:50Z</time>
      </trkpt>
      <trkpt lat="44.37445" lon="3.82779">
        <ele>1344.06</ele>
        <time>2014-06-08T13:55:02Z</time>
      </trkpt>
      <trkpt lat="44.37413" lon="3.8279">
        <ele>1345.98</ele>
        <time>2014-06-08T13:55:15Z</time>
      </trkpt>
      <trkpt lat="44.37384" lon="3.82828">
        <ele>1347.43</ele>
        <time>2014-06-08T13:55:30Z</time>
      </trkpt>
      <trkpt lat="44.37385" lon="3.82867">
        <ele>1348.39</ele>
        <time>2014-06-08T13:55:42Z</time>
      </trkpt>
      <trkpt lat="44.37386" lon="3.82871">
        <ele>1348.39</ele>
        <time>2014-06-08T13:55:43Z</time>
      </trkpt>
      <trkpt lat="44.37399" lon="3.82889">
        <ele>1348.87</ele>
        <time>2014-06-08T13:55:50Z</time>
      </trkpt>
      <trkpt lat="44.37404" lon="3.82901">
        <ele>1349.35</ele>
        <time>2014-06-08T13:55:54Z</time>
      </trkpt>
      <trkpt lat="44.37408" lon="3.82914">
        <ele>1349.35</ele>
        <time>2014-06-08T13:55:58Z</time>
      </trkpt>
      <trkpt lat="44.37413" lon="3.82922">
        <ele>1349.83</ele>
        <time>2014-06-08T13:56:01Z</time>
      </trkpt>
      <trkpt lat="44.37421" lon="3.82932">
        <ele>1350.31</ele>
        <time>2014-06-08T13:56:05Z</time>
      </trkpt>
      <trkpt lat="44.37439" lon="3.82967">
        <ele>1351.27</ele>
        <time>2014-06-08T13:56:17Z</time>
      </trkpt>
      <trkpt lat="44.37451" lon="3.83004">
        <ele>1352.23</ele>
        <time>2014-06-08T13:56:28Z</time>
      </trkpt>
      <trkpt lat="44.37453" lon="3.83016">
        <ele>1352.71</ele>
        <time>2014-06-08T13:56:32Z</time>
      </trkpt>
      <trkpt lat="44.37458" lon="3.83032">
        <ele>1352.71</ele>
        <time>2014-06-08T13:56:36Z</time>
      </trkpt>
      <trkpt lat="44.3746" lon="3.83047">
        <ele>1353.19</ele>
        <time>2014-06-08T13:56:40Z</time>
      </trkpt>
      <trkpt lat="44.37463" lon="3.8309">
        <ele>1354.15</ele>
        <time>2014-06-08T13:56:51Z</time>
      </trkpt>
      <trkpt lat="44.37463" lon="3.83142">
        <ele>1355.6</ele>
        <time>2014-06-08T13:57:04Z</time>
      </trkpt>
      <trkpt lat="44.37457" lon="3.83183">
        <ele>1356.08</ele>
        <time>2014-06-08T13:57:14Z</time>
      </trkpt>
      <trkpt lat="44.37436" lon="3.83242">
        <ele>1355.6</ele>
        <time>2014-06-08T13:57:27Z</time>
      </trkpt>
      <trkpt lat="44.37418" lon="3.83273">
        <ele>1356.56</ele>
        <time>2014-06-08T13:57:34Z</time>
      </trkpt>
      <trkpt lat="44.37416" lon="3.83277">
        <ele>1356.56</ele>
        <time>2014-06-08T13:57:35Z</time>
      </trkpt>
      <trkpt lat="44.37409" lon="3.83292">
        <ele>1356.08</ele>
        <time>2014-06-08T13:57:38Z</time>
      </trkpt>
      <trkpt lat="44.37397" lon="3.83329">
        <ele>1356.56</ele>
        <time>2014-06-08T13:57:45Z</time>
      </trkpt>
      <trkpt lat="44.37385" lon="3.83353">
        <ele>1356.56</ele>
        <time>2014-06-08T13:57:50Z</time>
      </trkpt>
      <trkpt lat="44.3738" lon="3.83364">
        <ele>1357.04</ele>
        <time>2014-06-08T13:57:52Z</time>
      </trkpt>
      <trkpt lat="44.37378" lon="3.83368">
        <ele>1357.52</ele>
        <time>2014-06-08T13:57:53Z</time>
      </trkpt>
      <trkpt lat="44.37369" lon="3.83381">
        <ele>1357.04</ele>
        <time>2014-06-08T13:57:56Z</time>
      </trkpt>
      <trkpt lat="44.37338" lon="3.83431">
        <ele>1358</ele>
        <time>2014-06-08T13:58:08Z</time>
      </trkpt>
      <trkpt lat="44.37319" lon="3.83478">
        <ele>1359.92</ele>
        <time>2014-06-08T13:58:20Z</time>
      </trkpt>
      <trkpt lat="44.37319" lon="3.83482">
        <ele>1359.92</ele>
        <time>2014-06-08T13:58:21Z</time>
      </trkpt>
      <trkpt lat="44.3732" lon="3.83485">
        <ele>1360.4</ele>
        <time>2014-06-08T13:58:22Z</time>
      </trkpt>
      <trkpt lat="44.37321" lon="3.83487">
        <ele>1360.4</ele>
        <time>2014-06-08T13:58:23Z</time>
      </trkpt>
      <trkpt lat="44.37323" lon="3.83489">
        <ele>1360.88</ele>
        <time>2014-06-08T13:58:24Z</time>
      </trkpt>
      <trkpt lat="44.37325" lon="3.83491">
        <ele>1360.88</ele>
        <time>2014-06-08T13:58:25Z</time>
      </trkpt>
      <trkpt lat="44.37327" lon="3.83494">
        <ele>1360.88</ele>
        <time>2014-06-08T13:58:26Z</time>
      </trkpt>
      <trkpt lat="44.37329" lon="3.83497">
        <ele>1360.88</ele>
        <time>2014-06-08T13:58:27Z</time>
      </trkpt>
      <trkpt lat="44.37329" lon="3.835">
        <ele>1360.4</ele>
        <time>2014-06-08T13:58:28Z</time>
      </trkpt>
      <trkpt lat="44.3733" lon="3.83502">
        <ele>1360.88</ele>
        <time>2014-06-08T13:58:29Z</time>
      </trkpt>
      <trkpt lat="44.37331" lon="3.83504">
        <ele>1360.88</ele>
        <time>2014-06-08T13:58:30Z</time>
      </trkpt>
      <trkpt lat="44.37357" lon="3.83503">
        <ele>1361.84</ele>
        <time>2014-06-08T13:58:39Z</time>
      </trkpt>
      <trkpt lat="44.37362" lon="3.83492">
        <ele>1362.33</ele>
        <time>2014-06-08T13:58:42Z</time>
      </trkpt>
      <trkpt lat="44.37365" lon="3.8349">
        <ele>1362.33</ele>
        <time>2014-06-08T13:58:43Z</time>
      </trkpt>
      <trkpt lat="44.37367" lon="3.83489">
        <ele>1362.81</ele>
        <time>2014-06-08T13:58:44Z</time>
      </trkpt>
      <trkpt lat="44.37414" lon="3.83481">
        <ele>1365.21</ele>
        <time>2014-06-08T13:59:01Z</time>
      </trkpt>
      <trkpt lat="44.37452" lon="3.8349">
        <ele>1367.61</ele>
        <time>2014-06-08T13:59:15Z</time>
      </trkpt>
      <trkpt lat="44.37486" lon="3.83514">
        <ele>1368.57</ele>
        <time>2014-06-08T13:59:28Z</time>
      </trkpt>
      <trkpt lat="44.37527" lon="3.83533">
        <ele>1369.54</ele>
        <time>2014-06-08T13:59:42Z</time>
      </trkpt>
      <trkpt lat="44.37558" lon="3.83574">
        <ele>1370.02</ele>
        <time>2014-06-08T13:59:56Z</time>
      </trkpt>
      <trkpt lat="44.37562" lon="3.83586">
        <ele>1369.54</ele>
        <time>2014-06-08T13:59:58Z</time>
      </trkpt>
      <trkpt lat="44.37576" lon="3.83627">
        <ele>1367.13</ele>
        <time>2014-06-08T14:00:04Z</time>
      </trkpt>
      <trkpt lat="44.37577" lon="3.83635">
        <ele>1367.13</ele>
        <time>2014-06-08T14:00:05Z</time>
      </trkpt>
      <trkpt lat="44.37578" lon="3.83642">
        <ele>1367.13</ele>
        <time>2014-06-08T14:00:06Z</time>
      </trkpt>
      <trkpt lat="44.37577" lon="3.8365">
        <ele>1367.61</ele>
        <time>2014-06-08T14:00:07Z</time>
      </trkpt>
      <trkpt lat="44.37575" lon="3.83657">
        <ele>1366.65</ele>
        <time>2014-06-08T14:00:08Z</time>
      </trkpt>
      <trkpt lat="44.37572" lon="3.83664">
        <ele>1366.65</ele>
        <time>2014-06-08T14:00:09Z</time>
      </trkpt>
      <trkpt lat="44.37569" lon="3.83671">
        <ele>1366.17</ele>
        <time>2014-06-08T14:00:10Z</time>
      </trkpt>
      <trkpt lat="44.37566" lon="3.83677">
        <ele>1366.17</ele>
        <time>2014-06-08T14:00:11Z</time>
      </trkpt>
      <trkpt lat="44.37563" lon="3.83684">
        <ele>1365.69</ele>
        <time>2014-06-08T14:00:12Z</time>
      </trkpt>
      <trkpt lat="44.37559" lon="3.83697">
        <ele>1365.69</ele>
        <time>2014-06-08T14:00:14Z</time>
      </trkpt>
      <trkpt lat="44.37559" lon="3.83704">
        <ele>1365.69</ele>
        <time>2014-06-08T14:00:15Z</time>
      </trkpt>
      <trkpt lat="44.37559" lon="3.8371">
        <ele>1365.69</ele>
        <time>2014-06-08T14:00:16Z</time>
      </trkpt>
      <trkpt lat="44.3756" lon="3.83716">
        <ele>1365.69</ele>
        <time>2014-06-08T14:00:17Z</time>
      </trkpt>
      <trkpt lat="44.37561" lon="3.83722">
        <ele>1365.69</ele>
        <time>2014-06-08T14:00:18Z</time>
      </trkpt>
      <trkpt lat="44.3759" lon="3.83759">
        <ele>1366.17</ele>
        <time>2014-06-08T14:00:28Z</time>
      </trkpt>
      <trkpt lat="44.37623" lon="3.83803">
        <ele>1368.09</ele>
        <time>2014-06-08T14:00:41Z</time>
      </trkpt>
      <trkpt lat="44.37656" lon="3.83828">
        <ele>1369.05</ele>
        <time>2014-06-08T14:00:52Z</time>
      </trkpt>
      <trkpt lat="44.37699" lon="3.83851">
        <ele>1370.02</ele>
        <time>2014-06-08T14:01:05Z</time>
      </trkpt>
      <trkpt lat="44.37705" lon="3.83863">
        <ele>1370.5</ele>
        <time>2014-06-08T14:01:08Z</time>
      </trkpt>
      <trkpt lat="44.37705" lon="3.83867">
        <ele>1370.5</ele>
        <time>2014-06-08T14:01:09Z</time>
      </trkpt>
      <trkpt lat="44.37707" lon="3.83924">
        <ele>1371.46</ele>
        <time>2014-06-08T14:01:21Z</time>
      </trkpt>
      <trkpt lat="44.37695" lon="3.83968">
        <ele>1371.94</ele>
        <time>2014-06-08T14:01:31Z</time>
      </trkpt>
      <trkpt lat="44.37669" lon="3.84026">
        <ele>1373.86</ele>
        <time>2014-06-08T14:01:45Z</time>
      </trkpt>
      <trkpt lat="44.3765" lon="3.84058">
        <ele>1374.82</ele>
        <time>2014-06-08T14:01:57Z</time>
      </trkpt>
      <trkpt lat="44.37642" lon="3.84084">
        <ele>1375.78</ele>
        <time>2014-06-08T14:02:08Z</time>
      </trkpt>
      <trkpt lat="44.3764" lon="3.84095">
        <ele>1376.26</ele>
        <time>2014-06-08T14:02:12Z</time>
      </trkpt>
      <trkpt lat="44.37641" lon="3.84098">
        <ele>1376.26</ele>
        <time>2014-06-08T14:02:13Z</time>
      </trkpt>
      <trkpt lat="44.37641" lon="3.84101">
        <ele>1376.26</ele>
        <time>2014-06-08T14:02:14Z</time>
      </trkpt>
      <trkpt lat="44.37642" lon="3.84104">
        <ele>1376.26</ele>
        <time>2014-06-08T14:02:15Z</time>
      </trkpt>
      <trkpt lat="44.37643" lon="3.84106">
        <ele>1376.26</ele>
        <time>2014-06-08T14:02:16Z</time>
      </trkpt>
      <trkpt lat="44.37646" lon="3.84109">
        <ele>1376.75</ele>
        <time>2014-06-08T14:02:17Z</time>
      </trkpt>
      <trkpt lat="44.37648" lon="3.8411">
        <ele>1376.26</ele>
        <time>2014-06-08T14:02:18Z</time>
      </trkpt>
      <trkpt lat="44.37662" lon="3.84115">
        <ele>1377.71</ele>
        <time>2014-06-08T14:02:24Z</time>
      </trkpt>
      <trkpt lat="44.37665" lon="3.84115">
        <ele>1377.71</ele>
        <time>2014-06-08T14:02:25Z</time>
      </trkpt>
      <trkpt lat="44.37668" lon="3.84116">
        <ele>1377.71</ele>
        <time>2014-06-08T14:02:26Z</time>
      </trkpt>
      <trkpt lat="44.37671" lon="3.84117">
        <ele>1378.19</ele>
        <time>2014-06-08T14:02:27Z</time>
      </trkpt>
      <trkpt lat="44.37673" lon="3.84118">
        <ele>1377.71</ele>
        <time>2014-06-08T14:02:28Z</time>
      </trkpt>
      <trkpt lat="44.37675" lon="3.8412">
        <ele>1378.19</ele>
        <time>2014-06-08T14:02:29Z</time>
      </trkpt>
      <trkpt lat="44.37677" lon="3.84121">
        <ele>1378.19</ele>
        <time>2014-06-08T14:02:30Z</time>
      </trkpt>
      <trkpt lat="44.37688" lon="3.84125">
        <ele>1378.67</ele>
        <time>2014-06-08T14:02:34Z</time>
      </trkpt>
      <trkpt lat="44.37726" lon="3.84119">
        <ele>1379.15</ele>
        <time>2014-06-08T14:02:45Z</time>
      </trkpt>
      <trkpt lat="44.37745" lon="3.84115">
        <ele>1379.63</ele>
        <time>2014-06-08T14:02:50Z</time>
      </trkpt>
      <trkpt lat="44.37749" lon="3.84115">
        <ele>1379.63</ele>
        <time>2014-06-08T14:02:51Z</time>
      </trkpt>
      <trkpt lat="44.37752" lon="3.84114">
        <ele>1380.11</ele>
        <time>2014-06-08T14:02:52Z</time>
      </trkpt>
      <trkpt lat="44.37756" lon="3.84112">
        <ele>1379.63</ele>
        <time>2014-06-08T14:02:53Z</time>
      </trkpt>
      <trkpt lat="44.3776" lon="3.84111">
        <ele>1379.63</ele>
        <time>2014-06-08T14:02:54Z</time>
      </trkpt>
      <trkpt lat="44.37765" lon="3.84111">
        <ele>1380.11</ele>
        <time>2014-06-08T14:02:55Z</time>
      </trkpt>
      <trkpt lat="44.37806" lon="3.8412">
        <ele>1380.59</ele>
        <time>2014-06-08T14:03:06Z</time>
      </trkpt>
      <trkpt lat="44.37827" lon="3.84161">
        <ele>1381.55</ele>
        <time>2014-06-08T14:03:16Z</time>
      </trkpt>
      <trkpt lat="44.37824" lon="3.84201">
        <ele>1382.03</ele>
        <time>2014-06-08T14:03:24Z</time>
      </trkpt>
      <trkpt lat="44.37846" lon="3.84247">
        <ele>1382.51</ele>
        <time>2014-06-08T14:03:34Z</time>
      </trkpt>
      <trkpt lat="44.37871" lon="3.8429">
        <ele>1383.96</ele>
        <time>2014-06-08T14:03:45Z</time>
      </trkpt>
      <trkpt lat="44.37891" lon="3.84341">
        <ele>1385.4</ele>
        <time>2014-06-08T14:03:59Z</time>
      </trkpt>
      <trkpt lat="44.37902" lon="3.84396">
        <ele>1386.84</ele>
        <time>2014-06-08T14:04:12Z</time>
      </trkpt>
      <trkpt lat="44.37915" lon="3.84448">
        <ele>1387.8</ele>
        <time>2014-06-08T14:04:24Z</time>
      </trkpt>
      <trkpt lat="44.37916" lon="3.84498">
        <ele>1389.72</ele>
        <time>2014-06-08T14:04:36Z</time>
      </trkpt>
      <trkpt lat="44.37912" lon="3.84545">
        <ele>1391.65</ele>
        <time>2014-06-08T14:04:50Z</time>
      </trkpt>
      <trkpt lat="44.37915" lon="3.84588">
        <ele>1392.61</ele>
        <time>2014-06-08T14:05:03Z</time>
      </trkpt>
      <trkpt lat="44.37915" lon="3.84637">
        <ele>1394.05</ele>
        <time>2014-06-08T14:05:16Z</time>
      </trkpt>
      <trkpt lat="44.37915" lon="3.84648">
        <ele>1394.53</ele>
        <time>2014-06-08T14:05:19Z</time>
      </trkpt>
      <trkpt lat="44.37915" lon="3.84651">
        <ele>1395.01</ele>
        <time>2014-06-08T14:05:20Z</time>
      </trkpt>
      <trkpt lat="44.37915" lon="3.84654">
        <ele>1395.01</ele>
        <time>2014-06-08T14:05:21Z</time>
      </trkpt>
      <trkpt lat="44.37906" lon="3.84702">
        <ele>1397.41</ele>
        <time>2014-06-08T14:05:34Z</time>
      </trkpt>
      <trkpt lat="44.37897" lon="3.8476">
        <ele>1398.37</ele>
        <time>2014-06-08T14:05:48Z</time>
      </trkpt>
      <trkpt lat="44.37896" lon="3.84818">
        <ele>1399.34</ele>
        <time>2014-06-08T14:06:03Z</time>
      </trkpt>
      <trkpt lat="44.37891" lon="3.84856">
        <ele>1400.3</ele>
        <time>2014-06-08T14:06:13Z</time>
      </trkpt>
      <trkpt lat="44.37877" lon="3.84909">
        <ele>1403.18</ele>
        <time>2014-06-08T14:06:28Z</time>
      </trkpt>
      <trkpt lat="44.37858" lon="3.84957">
        <ele>1406.07</ele>
        <time>2014-06-08T14:06:43Z</time>
      </trkpt>
      <trkpt lat="44.37831" lon="3.84987">
        <ele>1408.47</ele>
        <time>2014-06-08T14:06:57Z</time>
      </trkpt>
      <trkpt lat="44.37822" lon="3.8499">
        <ele>1408.95</ele>
        <time>2014-06-08T14:07:08Z</time>
      </trkpt>
      <trkpt lat="44.37822" lon="3.84991">
        <ele>1408.95</ele>
        <time>2014-06-08T14:07:21Z</time>
      </trkpt>
      <trkpt lat="44.37822" lon="3.84992">
        <ele>1408.95</ele>
        <time>2014-06-08T14:07:22Z</time>
      </trkpt>
      <trkpt lat="44.3782" lon="3.84994">
        <ele>1408.95</ele>
        <time>2014-06-08T14:07:24Z</time>
      </trkpt>
      <trkpt lat="44.37819" lon="3.84995">
        <ele>1408.47</ele>
        <time>2014-06-08T14:07:25Z</time>
      </trkpt>
      <trkpt lat="44.37818" lon="3.84997">
        <ele>1408.47</ele>
        <time>2014-06-08T14:07:26Z</time>
      </trkpt>
      <trkpt lat="44.37816" lon="3.85">
        <ele>1408.47</ele>
        <time>2014-06-08T14:07:27Z</time>
      </trkpt>
      <trkpt lat="44.37814" lon="3.85002">
        <ele>1408.47</ele>
        <time>2014-06-08T14:07:28Z</time>
      </trkpt>
      <trkpt lat="44.37811" lon="3.85005">
        <ele>1408.47</ele>
        <time>2014-06-08T14:07:29Z</time>
      </trkpt>
      <trkpt lat="44.37805" lon="3.85012">
        <ele>1407.99</ele>
        <time>2014-06-08T14:07:31Z</time>
      </trkpt>
      <trkpt lat="44.37802" lon="3.85015">
        <ele>1407.51</ele>
        <time>2014-06-08T14:07:32Z</time>
      </trkpt>
      <trkpt lat="44.37794" lon="3.85022">
        <ele>1407.03</ele>
        <time>2014-06-08T14:07:34Z</time>
      </trkpt>
      <trkpt lat="44.37784" lon="3.8503">
        <ele>1406.07</ele>
        <time>2014-06-08T14:07:36Z</time>
      </trkpt>
      <trkpt lat="44.37752" lon="3.8506">
        <ele>1404.62</ele>
        <time>2014-06-08T14:07:43Z</time>
      </trkpt>
      <trkpt lat="44.37714" lon="3.85092">
        <ele>1407.51</ele>
        <time>2014-06-08T14:07:56Z</time>
      </trkpt>
      <trkpt lat="44.37681" lon="3.85108">
        <ele>1409.43</ele>
        <time>2014-06-08T14:08:08Z</time>
      </trkpt>
      <trkpt lat="44.37636" lon="3.85135">
        <ele>1411.35</ele>
        <time>2014-06-08T14:08:24Z</time>
      </trkpt>
      <trkpt lat="44.376" lon="3.85154">
        <ele>1413.28</ele>
        <time>2014-06-08T14:08:37Z</time>
      </trkpt>
      <trkpt lat="44.37548" lon="3.85184">
        <ele>1414.24</ele>
        <time>2014-06-08T14:08:53Z</time>
      </trkpt>
      <trkpt lat="44.37505" lon="3.85185">
        <ele>1416.64</ele>
        <time>2014-06-08T14:09:07Z</time>
      </trkpt>
      <trkpt lat="44.37472" lon="3.85163">
        <ele>1418.56</ele>
        <time>2014-06-08T14:09:22Z</time>
      </trkpt>
      <trkpt lat="44.3745" lon="3.85131">
        <ele>1420.97</ele>
        <time>2014-06-08T14:09:36Z</time>
      </trkpt>
      <trkpt lat="44.37429" lon="3.85095">
        <ele>1423.37</ele>
        <time>2014-06-08T14:09:51Z</time>
      </trkpt>
      <trkpt lat="44.37402" lon="3.85073">
        <ele>1425.77</ele>
        <time>2014-06-08T14:10:05Z</time>
      </trkpt>
      <trkpt lat="44.37376" lon="3.85047">
        <ele>1427.7</ele>
        <time>2014-06-08T14:10:19Z</time>
      </trkpt>
      <trkpt lat="44.37359" lon="3.85021">
        <ele>1429.62</ele>
        <time>2014-06-08T14:10:30Z</time>
      </trkpt>
      <trkpt lat="44.37344" lon="3.85016">
        <ele>1430.1</ele>
        <time>2014-06-08T14:10:37Z</time>
      </trkpt>
      <trkpt lat="44.37342" lon="3.85018">
        <ele>1430.1</ele>
        <time>2014-06-08T14:10:38Z</time>
      </trkpt>
      <trkpt lat="44.37341" lon="3.8502">
        <ele>1430.1</ele>
        <time>2014-06-08T14:10:39Z</time>
      </trkpt>
      <trkpt lat="44.37339" lon="3.85023">
        <ele>1430.58</ele>
        <time>2014-06-08T14:10:40Z</time>
      </trkpt>
      <trkpt lat="44.37338" lon="3.85025">
        <ele>1430.1</ele>
        <time>2014-06-08T14:10:41Z</time>
      </trkpt>
      <trkpt lat="44.37333" lon="3.8504">
        <ele>1430.58</ele>
        <time>2014-06-08T14:10:52Z</time>
      </trkpt>
      <trkpt lat="44.37333" lon="3.8504">
        <ele>1430.58</ele>
        <time>2014-06-08T14:11:19Z</time>
      </trkpt>
      <trkpt lat="44.37333" lon="3.85046">
        <ele>1430.58</ele>
        <time>2014-06-08T14:11:27Z</time>
      </trkpt>
      <trkpt lat="44.37333" lon="3.85049">
        <ele>1430.58</ele>
        <time>2014-06-08T14:11:28Z</time>
      </trkpt>
      <trkpt lat="44.37332" lon="3.85053">
        <ele>1430.1</ele>
        <time>2014-06-08T14:11:29Z</time>
      </trkpt>
      <trkpt lat="44.37332" lon="3.85058">
        <ele>1430.1</ele>
        <time>2014-06-08T14:11:30Z</time>
      </trkpt>
      <trkpt lat="44.37332" lon="3.85062">
        <ele>1430.1</ele>
        <time>2014-06-08T14:11:31Z</time>
      </trkpt>
      <trkpt lat="44.37336" lon="3.85112">
        <ele>1429.62</ele>
        <time>2014-06-08T14:11:41Z</time>
      </trkpt>
      <trkpt lat="44.37336" lon="3.8513">
        <ele>1429.14</ele>
        <time>2014-06-08T14:11:44Z</time>
      </trkpt>
      <trkpt lat="44.37335" lon="3.85136">
        <ele>1429.14</ele>
        <time>2014-06-08T14:11:45Z</time>
      </trkpt>
      <trkpt lat="44.37335" lon="3.85142">
        <ele>1429.14</ele>
        <time>2014-06-08T14:11:46Z</time>
      </trkpt>
      <trkpt lat="44.37335" lon="3.85148">
        <ele>1428.66</ele>
        <time>2014-06-08T14:11:47Z</time>
      </trkpt>
      <trkpt lat="44.37334" lon="3.85154">
        <ele>1428.66</ele>
        <time>2014-06-08T14:11:48Z</time>
      </trkpt>
      <trkpt lat="44.37332" lon="3.85166">
        <ele>1429.14</ele>
        <time>2014-06-08T14:11:50Z</time>
      </trkpt>
      <trkpt lat="44.37324" lon="3.85236">
        <ele>1429.14</ele>
        <time>2014-06-08T14:12:02Z</time>
      </trkpt>
      <trkpt lat="44.37323" lon="3.85242">
        <ele>1429.14</ele>
        <time>2014-06-08T14:12:03Z</time>
      </trkpt>
      <trkpt lat="44.37321" lon="3.85247">
        <ele>1429.14</ele>
        <time>2014-06-08T14:12:04Z</time>
      </trkpt>
      <trkpt lat="44.3732" lon="3.85252">
        <ele>1429.62</ele>
        <time>2014-06-08T14:12:05Z</time>
      </trkpt>
      <trkpt lat="44.37318" lon="3.85257">
        <ele>1429.14</ele>
        <time>2014-06-08T14:12:06Z</time>
      </trkpt>
      <trkpt lat="44.37315" lon="3.85262">
        <ele>1429.14</ele>
        <time>2014-06-08T14:12:07Z</time>
      </trkpt>
      <trkpt lat="44.3731" lon="3.85271">
        <ele>1429.14</ele>
        <time>2014-06-08T14:12:09Z</time>
      </trkpt>
      <trkpt lat="44.37307" lon="3.85274">
        <ele>1429.14</ele>
        <time>2014-06-08T14:12:10Z</time>
      </trkpt>
      <trkpt lat="44.37304" lon="3.85278">
        <ele>1428.66</ele>
        <time>2014-06-08T14:12:11Z</time>
      </trkpt>
      <trkpt lat="44.37279" lon="3.85305">
        <ele>1428.18</ele>
        <time>2014-06-08T14:12:18Z</time>
      </trkpt>
      <trkpt lat="44.37274" lon="3.85308">
        <ele>1428.18</ele>
        <time>2014-06-08T14:12:19Z</time>
      </trkpt>
      <trkpt lat="44.37255" lon="3.85317">
        <ele>1427.7</ele>
        <time>2014-06-08T14:12:23Z</time>
      </trkpt>
      <trkpt lat="44.3725" lon="3.85318">
        <ele>1427.7</ele>
        <time>2014-06-08T14:12:24Z</time>
      </trkpt>
      <trkpt lat="44.37245" lon="3.85318">
        <ele>1427.7</ele>
        <time>2014-06-08T14:12:25Z</time>
      </trkpt>
      <trkpt lat="44.3723" lon="3.85316">
        <ele>1428.18</ele>
        <time>2014-06-08T14:12:28Z</time>
      </trkpt>
      <trkpt lat="44.37191" lon="3.853">
        <ele>1430.1</ele>
        <time>2014-06-08T14:12:39Z</time>
      </trkpt>
      <trkpt lat="44.37163" lon="3.85266">
        <ele>1432.98</ele>
        <time>2014-06-08T14:12:51Z</time>
      </trkpt>
      <trkpt lat="44.37158" lon="3.85259">
        <ele>1432.98</ele>
        <time>2014-06-08T14:12:53Z</time>
      </trkpt>
      <trkpt lat="44.37155" lon="3.85256">
        <ele>1432.98</ele>
        <time>2014-06-08T14:12:54Z</time>
      </trkpt>
      <trkpt lat="44.37151" lon="3.85254">
        <ele>1432.98</ele>
        <time>2014-06-08T14:12:55Z</time>
      </trkpt>
      <trkpt lat="44.37147" lon="3.85252">
        <ele>1432.98</ele>
        <time>2014-06-08T14:12:56Z</time>
      </trkpt>
      <trkpt lat="44.37143" lon="3.85254">
        <ele>1432.5</ele>
        <time>2014-06-08T14:12:57Z</time>
      </trkpt>
      <trkpt lat="44.3714" lon="3.85257">
        <ele>1432.98</ele>
        <time>2014-06-08T14:12:58Z</time>
      </trkpt>
      <trkpt lat="44.37138" lon="3.85262">
        <ele>1432.5</ele>
        <time>2014-06-08T14:12:59Z</time>
      </trkpt>
      <trkpt lat="44.37137" lon="3.85267">
        <ele>1432.5</ele>
        <time>2014-06-08T14:13:00Z</time>
      </trkpt>
      <trkpt lat="44.37137" lon="3.85272">
        <ele>1432.5</ele>
        <time>2014-06-08T14:13:01Z</time>
      </trkpt>
      <trkpt lat="44.37137" lon="3.85276">
        <ele>1432.5</ele>
        <time>2014-06-08T14:13:02Z</time>
      </trkpt>
      <trkpt lat="44.37141" lon="3.85314">
        <ele>1433.46</ele>
        <time>2014-06-08T14:13:11Z</time>
      </trkpt>
      <trkpt lat="44.3715" lon="3.85344">
        <ele>1433.94</ele>
        <time>2014-06-08T14:13:22Z</time>
      </trkpt>
      <trkpt lat="44.3715" lon="3.85344">
        <ele>1437.31</ele>
        <time>2014-06-08T14:13:28Z</time>
      </trkpt>
      <trkpt lat="44.3715" lon="3.85344">
        <ele>1434.42</ele>
        <time>2014-06-08T14:13:29Z</time>
      </trkpt>
      <trkpt lat="44.3715" lon="3.85344">
        <ele>1433.94</ele>
        <time>2014-06-08T14:13:51Z</time>
      </trkpt>
      <trkpt lat="44.37148" lon="3.85346">
        <ele>1433.94</ele>
        <time>2014-06-08T14:14:08Z</time>
      </trkpt>
      <trkpt lat="44.3714" lon="3.85334">
        <ele>1434.42</ele>
        <time>2014-06-08T14:14:16Z</time>
      </trkpt>
      <trkpt lat="44.37139" lon="3.85332">
        <ele>1434.42</ele>
        <time>2014-06-08T14:14:17Z</time>
      </trkpt>
      <trkpt lat="44.37138" lon="3.8533">
        <ele>1434.42</ele>
        <time>2014-06-08T14:14:18Z</time>
      </trkpt>
      <trkpt lat="44.37134" lon="3.85324">
        <ele>1434.91</ele>
        <time>2014-06-08T14:14:22Z</time>
      </trkpt>
      <trkpt lat="44.37133" lon="3.85322">
        <ele>1434.91</ele>
        <time>2014-06-08T14:14:23Z</time>
      </trkpt>
      <trkpt lat="44.37132" lon="3.85321">
        <ele>1434.91</ele>
        <time>2014-06-08T14:14:24Z</time>
      </trkpt>
      <trkpt lat="44.37131" lon="3.85319">
        <ele>1435.39</ele>
        <time>2014-06-08T14:14:25Z</time>
      </trkpt>
      <trkpt lat="44.3713" lon="3.85317">
        <ele>1435.39</ele>
        <time>2014-06-08T14:14:26Z</time>
      </trkpt>
      <trkpt lat="44.37129" lon="3.85315">
        <ele>1435.39</ele>
        <time>2014-06-08T14:14:27Z</time>
      </trkpt>
      <trkpt lat="44.37128" lon="3.85314">
        <ele>1435.87</ele>
        <time>2014-06-08T14:14:28Z</time>
      </trkpt>
      <trkpt lat="44.37127" lon="3.85313">
        <ele>1435.39</ele>
        <time>2014-06-08T14:14:29Z</time>
      </trkpt>
      <trkpt lat="44.37126" lon="3.85311">
        <ele>1435.87</ele>
        <time>2014-06-08T14:14:30Z</time>
      </trkpt>
      <trkpt lat="44.37125" lon="3.85309">
        <ele>1435.87</ele>
        <time>2014-06-08T14:14:31Z</time>
      </trkpt>
      <trkpt lat="44.3711" lon="3.85301">
        <ele>1438.27</ele>
        <time>2014-06-08T14:14:41Z</time>
      </trkpt>
      <trkpt lat="44.37109" lon="3.85302">
        <ele>1438.27</ele>
        <time>2014-06-08T14:14:42Z</time>
      </trkpt>
      <trkpt lat="44.37107" lon="3.85304">
        <ele>1438.27</ele>
        <time>2014-06-08T14:14:43Z</time>
      </trkpt>
      <trkpt lat="44.37106" lon="3.85305">
        <ele>1438.75</ele>
        <time>2014-06-08T14:14:44Z</time>
      </trkpt>
      <trkpt lat="44.37105" lon="3.85307">
        <ele>1438.75</ele>
        <time>2014-06-08T14:14:45Z</time>
      </trkpt>
      <trkpt lat="44.37103" lon="3.85311">
        <ele>1439.23</ele>
        <time>2014-06-08T14:14:47Z</time>
      </trkpt>
      <trkpt lat="44.37103" lon="3.85312">
        <ele>1439.23</ele>
        <time>2014-06-08T14:14:48Z</time>
      </trkpt>
      <trkpt lat="44.37103" lon="3.85314">
        <ele>1439.23</ele>
        <time>2014-06-08T14:14:49Z</time>
      </trkpt>
      <trkpt lat="44.37104" lon="3.85322">
        <ele>1439.71</ele>
        <time>2014-06-08T14:14:55Z</time>
      </trkpt>
      <trkpt lat="44.37104" lon="3.85324">
        <ele>1440.19</ele>
        <time>2014-06-08T14:14:56Z</time>
      </trkpt>
      <trkpt lat="44.37104" lon="3.85326">
        <ele>1440.19</ele>
        <time>2014-06-08T14:14:57Z</time>
      </trkpt>
      <trkpt lat="44.37104" lon="3.85328">
        <ele>1440.19</ele>
        <time>2014-06-08T14:14:58Z</time>
      </trkpt>
      <trkpt lat="44.37104" lon="3.85336">
        <ele>1440.67</ele>
        <time>2014-06-08T14:15:02Z</time>
      </trkpt>
      <trkpt lat="44.37103" lon="3.85338">
        <ele>1440.67</ele>
        <time>2014-06-08T14:15:03Z</time>
      </trkpt>
      <trkpt lat="44.37103" lon="3.8534">
        <ele>1440.67</ele>
        <time>2014-06-08T14:15:04Z</time>
      </trkpt>
      <trkpt lat="44.37102" lon="3.85342">
        <ele>1440.67</ele>
        <time>2014-06-08T14:15:05Z</time>
      </trkpt>
      <trkpt lat="44.37102" lon="3.85345">
        <ele>1441.15</ele>
        <time>2014-06-08T14:15:06Z</time>
      </trkpt>
      <trkpt lat="44.37101" lon="3.85347">
        <ele>1441.15</ele>
        <time>2014-06-08T14:15:07Z</time>
      </trkpt>
      <trkpt lat="44.371" lon="3.8536">
        <ele>1442.11</ele>
        <time>2014-06-08T14:15:13Z</time>
      </trkpt>
      <trkpt lat="44.37099" lon="3.85362">
        <ele>1442.11</ele>
        <time>2014-06-08T14:15:14Z</time>
      </trkpt>
      <trkpt lat="44.37099" lon="3.85364">
        <ele>1442.11</ele>
        <time>2014-06-08T14:15:15Z</time>
      </trkpt>
      <trkpt lat="44.37099" lon="3.85366">
        <ele>1442.6</ele>
        <time>2014-06-08T14:15:16Z</time>
      </trkpt>
      <trkpt lat="44.37099" lon="3.85368">
        <ele>1442.6</ele>
        <time>2014-06-08T14:15:17Z</time>
      </trkpt>
      <trkpt lat="44.37099" lon="3.8537">
        <ele>1442.6</ele>
        <time>2014-06-08T14:15:18Z</time>
      </trkpt>
      <trkpt lat="44.37098" lon="3.85372">
        <ele>1442.6</ele>
        <time>2014-06-08T14:15:19Z</time>
      </trkpt>
      <trkpt lat="44.37098" lon="3.85374">
        <ele>1443.08</ele>
        <time>2014-06-08T14:15:20Z</time>
      </trkpt>
      <trkpt lat="44.37098" lon="3.85376">
        <ele>1443.08</ele>
        <time>2014-06-08T14:15:21Z</time>
      </trkpt>
      <trkpt lat="44.37093" lon="3.85401">
        <ele>1445</ele>
        <time>2014-06-08T14:15:34Z</time>
      </trkpt>
      <trkpt lat="44.37094" lon="3.85406">
        <ele>1445</ele>
        <time>2014-06-08T14:15:37Z</time>
      </trkpt>
      <trkpt lat="44.37093" lon="3.8541">
        <ele>1445.48</ele>
        <time>2014-06-08T14:15:39Z</time>
      </trkpt>
      <trkpt lat="44.37088" lon="3.85436">
        <ele>1446.92</ele>
        <time>2014-06-08T14:15:52Z</time>
      </trkpt>
      <trkpt lat="44.37084" lon="3.85464">
        <ele>1449.32</ele>
        <time>2014-06-08T14:16:07Z</time>
      </trkpt>
      <trkpt lat="44.37081" lon="3.85483">
        <ele>1451.25</ele>
        <time>2014-06-08T14:16:19Z</time>
      </trkpt>
      <trkpt lat="44.3708" lon="3.85491">
        <ele>1452.69</ele>
        <time>2014-06-08T14:16:24Z</time>
      </trkpt>
      <trkpt lat="44.37079" lon="3.85493">
        <ele>1452.69</ele>
        <time>2014-06-08T14:16:25Z</time>
      </trkpt>
      <trkpt lat="44.37078" lon="3.85496">
        <ele>1452.69</ele>
        <time>2014-06-08T14:16:26Z</time>
      </trkpt>
      <trkpt lat="44.37078" lon="3.85499">
        <ele>1452.69</ele>
        <time>2014-06-08T14:16:27Z</time>
      </trkpt>
      <trkpt lat="44.37077" lon="3.85501">
        <ele>1452.69</ele>
        <time>2014-06-08T14:16:28Z</time>
      </trkpt>
      <trkpt lat="44.37073" lon="3.85518">
        <ele>1453.65</ele>
        <time>2014-06-08T14:16:37Z</time>
      </trkpt>
      <trkpt lat="44.37072" lon="3.8552">
        <ele>1453.65</ele>
        <time>2014-06-08T14:16:38Z</time>
      </trkpt>
      <trkpt lat="44.37059" lon="3.85545">
        <ele>1454.61</ele>
        <time>2014-06-08T14:16:52Z</time>
      </trkpt>
      <trkpt lat="44.3704" lon="3.85571">
        <ele>1456.53</ele>
        <time>2014-06-08T14:17:06Z</time>
      </trkpt>
      <trkpt lat="44.3702" lon="3.85587">
        <ele>1457.98</ele>
        <time>2014-06-08T14:17:19Z</time>
      </trkpt>
      <trkpt lat="44.36998" lon="3.85603">
        <ele>1458.94</ele>
        <time>2014-06-08T14:17:31Z</time>
      </trkpt>
      <trkpt lat="44.36978" lon="3.85622">
        <ele>1460.86</ele>
        <time>2014-06-08T14:17:43Z</time>
      </trkpt>
      <trkpt lat="44.36962" lon="3.85647">
        <ele>1462.3</ele>
        <time>2014-06-08T14:17:56Z</time>
      </trkpt>
      <trkpt lat="44.36959" lon="3.85651">
        <ele>1462.3</ele>
        <time>2014-06-08T14:17:58Z</time>
      </trkpt>
      <trkpt lat="44.36958" lon="3.85653">
        <ele>1462.3</ele>
        <time>2014-06-08T14:17:59Z</time>
      </trkpt>
      <trkpt lat="44.36956" lon="3.85655">
        <ele>1462.78</ele>
        <time>2014-06-08T14:18:00Z</time>
      </trkpt>
      <trkpt lat="44.36943" lon="3.85676">
        <ele>1464.71</ele>
        <time>2014-06-08T14:18:11Z</time>
      </trkpt>
      <trkpt lat="44.36928" lon="3.85707">
        <ele>1466.63</ele>
        <time>2014-06-08T14:18:25Z</time>
      </trkpt>
      <trkpt lat="44.3692" lon="3.85733">
        <ele>1467.59</ele>
        <time>2014-06-08T14:18:34Z</time>
      </trkpt>
      <trkpt lat="44.36919" lon="3.85736">
        <ele>1468.07</ele>
        <time>2014-06-08T14:18:35Z</time>
      </trkpt>
      <trkpt lat="44.36919" lon="3.85742">
        <ele>1468.55</ele>
        <time>2014-06-08T14:18:38Z</time>
      </trkpt>
      <trkpt lat="44.36919" lon="3.85744">
        <ele>1468.55</ele>
        <time>2014-06-08T14:18:39Z</time>
      </trkpt>
      <trkpt lat="44.3692" lon="3.85746">
        <ele>1468.55</ele>
        <time>2014-06-08T14:18:40Z</time>
      </trkpt>
      <trkpt lat="44.3692" lon="3.85748">
        <ele>1469.03</ele>
        <time>2014-06-08T14:18:41Z</time>
      </trkpt>
      <trkpt lat="44.3692" lon="3.8575">
        <ele>1469.03</ele>
        <time>2014-06-08T14:18:42Z</time>
      </trkpt>
      <trkpt lat="44.3692" lon="3.85752">
        <ele>1469.03</ele>
        <time>2014-06-08T14:18:43Z</time>
      </trkpt>
      <trkpt lat="44.36921" lon="3.85758">
        <ele>1469.51</ele>
        <time>2014-06-08T14:18:46Z</time>
      </trkpt>
      <trkpt lat="44.36922" lon="3.8576">
        <ele>1469.99</ele>
        <time>2014-06-08T14:18:47Z</time>
      </trkpt>
      <trkpt lat="44.36923" lon="3.85764">
        <ele>1469.99</ele>
        <time>2014-06-08T14:18:49Z</time>
      </trkpt>
      <trkpt lat="44.36922" lon="3.85767">
        <ele>1470.47</ele>
        <time>2014-06-08T14:18:50Z</time>
      </trkpt>
      <trkpt lat="44.36922" lon="3.85768">
        <ele>1470.95</ele>
        <time>2014-06-08T14:18:51Z</time>
      </trkpt>
      <trkpt lat="44.36921" lon="3.8577">
        <ele>1470.95</ele>
        <time>2014-06-08T14:18:52Z</time>
      </trkpt>
      <trkpt lat="44.3692" lon="3.85772">
        <ele>1471.44</ele>
        <time>2014-06-08T14:18:53Z</time>
      </trkpt>
      <trkpt lat="44.36901" lon="3.85775">
        <ele>1473.36</ele>
        <time>2014-06-08T14:19:05Z</time>
      </trkpt>
      <trkpt lat="44.36879" lon="3.85764">
        <ele>1474.8</ele>
        <time>2014-06-08T14:19:19Z</time>
      </trkpt>
      <trkpt lat="44.36876" lon="3.85762">
        <ele>1475.28</ele>
        <time>2014-06-08T14:19:21Z</time>
      </trkpt>
      <trkpt lat="44.36875" lon="3.85762">
        <ele>1475.28</ele>
        <time>2014-06-08T14:19:22Z</time>
      </trkpt>
      <trkpt lat="44.36855" lon="3.8574">
        <ele>1477.2</ele>
        <time>2014-06-08T14:19:38Z</time>
      </trkpt>
      <trkpt lat="44.36853" lon="3.85738">
        <ele>1477.68</ele>
        <time>2014-06-08T14:19:39Z</time>
      </trkpt>
      <trkpt lat="44.36852" lon="3.85737">
        <ele>1477.68</ele>
        <time>2014-06-08T14:19:40Z</time>
      </trkpt>
      <trkpt lat="44.3685" lon="3.85736">
        <ele>1478.16</ele>
        <time>2014-06-08T14:19:41Z</time>
      </trkpt>
      <trkpt lat="44.36849" lon="3.85734">
        <ele>1478.16</ele>
        <time>2014-06-08T14:19:42Z</time>
      </trkpt>
      <trkpt lat="44.36848" lon="3.85733">
        <ele>1478.16</ele>
        <time>2014-06-08T14:19:43Z</time>
      </trkpt>
      <trkpt lat="44.36846" lon="3.85732">
        <ele>1478.16</ele>
        <time>2014-06-08T14:19:44Z</time>
      </trkpt>
      <trkpt lat="44.36845" lon="3.85731">
        <ele>1478.16</ele>
        <time>2014-06-08T14:19:45Z</time>
      </trkpt>
      <trkpt lat="44.36843" lon="3.85729">
        <ele>1478.65</ele>
        <time>2014-06-08T14:19:46Z</time>
      </trkpt>
      <trkpt lat="44.36842" lon="3.85728">
        <ele>1478.65</ele>
        <time>2014-06-08T14:19:47Z</time>
      </trkpt>
      <trkpt lat="44.36821" lon="3.85705">
        <ele>1480.57</ele>
        <time>2014-06-08T14:20:03Z</time>
      </trkpt>
      <trkpt lat="44.36802" lon="3.85692">
        <ele>1482.01</ele>
        <time>2014-06-08T14:20:16Z</time>
      </trkpt>
      <trkpt lat="44.36781" lon="3.85678">
        <ele>1483.45</ele>
        <time>2014-06-08T14:20:29Z</time>
      </trkpt>
      <trkpt lat="44.36758" lon="3.85657">
        <ele>1483.45</ele>
        <time>2014-06-08T14:20:41Z</time>
      </trkpt>
      <trkpt lat="44.36729" lon="3.85626">
        <ele>1482.97</ele>
        <time>2014-06-08T14:20:53Z</time>
      </trkpt>
      <trkpt lat="44.36724" lon="3.85617">
        <ele>1482.97</ele>
        <time>2014-06-08T14:20:56Z</time>
      </trkpt>
      <trkpt lat="44.36721" lon="3.85601">
        <ele>1483.45</ele>
        <time>2014-06-08T14:21:05Z</time>
      </trkpt>
      <trkpt lat="44.36721" lon="3.85601">
        <ele>1482.97</ele>
        <time>2014-06-08T14:21:08Z</time>
      </trkpt>
      <trkpt lat="44.36723" lon="3.85607">
        <ele>1483.45</ele>
        <time>2014-06-08T14:24:31Z</time>
      </trkpt>
      <trkpt lat="44.36724" lon="3.85606">
        <ele>1483.45</ele>
        <time>2014-06-08T14:24:32Z</time>
      </trkpt>
      <trkpt lat="44.36719" lon="3.85609">
        <ele>1483.45</ele>
        <time>2014-06-08T14:24:36Z</time>
      </trkpt>
      <trkpt lat="44.36723" lon="3.85611">
        <ele>1483.45</ele>
        <time>2014-06-08T14:24:40Z</time>
      </trkpt>
      <trkpt lat="44.3672" lon="3.85622">
        <ele>1483.93</ele>
        <time>2014-06-08T14:24:45Z</time>
      </trkpt>
      <trkpt lat="44.36709" lon="3.85626">
        <ele>1483.45</ele>
        <time>2014-06-08T14:24:48Z</time>
      </trkpt>
      <trkpt lat="44.367" lon="3.85627">
        <ele>1482.49</ele>
        <time>2014-06-08T14:24:50Z</time>
      </trkpt>
      <trkpt lat="44.36696" lon="3.85628">
        <ele>1482.49</ele>
        <time>2014-06-08T14:24:51Z</time>
      </trkpt>
      <trkpt lat="44.36692" lon="3.8563">
        <ele>1482.49</ele>
        <time>2014-06-08T14:24:52Z</time>
      </trkpt>
      <trkpt lat="44.3669" lon="3.85634">
        <ele>1482.01</ele>
        <time>2014-06-08T14:24:53Z</time>
      </trkpt>
      <trkpt lat="44.3669" lon="3.85639">
        <ele>1481.53</ele>
        <time>2014-06-08T14:24:54Z</time>
      </trkpt>
      <trkpt lat="44.3669" lon="3.85645">
        <ele>1481.05</ele>
        <time>2014-06-08T14:24:55Z</time>
      </trkpt>
      <trkpt lat="44.3669" lon="3.85652">
        <ele>1480.57</ele>
        <time>2014-06-08T14:24:56Z</time>
      </trkpt>
      <trkpt lat="44.3669" lon="3.85658">
        <ele>1480.09</ele>
        <time>2014-06-08T14:24:57Z</time>
      </trkpt>
      <trkpt lat="44.3669" lon="3.85666">
        <ele>1479.61</ele>
        <time>2014-06-08T14:24:58Z</time>
      </trkpt>
      <trkpt lat="44.3669" lon="3.85673">
        <ele>1479.13</ele>
        <time>2014-06-08T14:24:59Z</time>
      </trkpt>
      <trkpt lat="44.36691" lon="3.85681">
        <ele>1478.65</ele>
        <time>2014-06-08T14:25:00Z</time>
      </trkpt>
      <trkpt lat="44.36691" lon="3.85689">
        <ele>1478.65</ele>
        <time>2014-06-08T14:25:01Z</time>
      </trkpt>
      <trkpt lat="44.36693" lon="3.85714">
        <ele>1476.72</ele>
        <time>2014-06-08T14:25:04Z</time>
      </trkpt>
      <trkpt lat="44.36691" lon="3.85722">
        <ele>1476.72</ele>
        <time>2014-06-08T14:25:05Z</time>
      </trkpt>
      <trkpt lat="44.3669" lon="3.85729">
        <ele>1476.72</ele>
        <time>2014-06-08T14:25:06Z</time>
      </trkpt>
      <trkpt lat="44.36687" lon="3.85736">
        <ele>1476.72</ele>
        <time>2014-06-08T14:25:07Z</time>
      </trkpt>
      <trkpt lat="44.36685" lon="3.85742">
        <ele>1476.72</ele>
        <time>2014-06-08T14:25:08Z</time>
      </trkpt>
      <trkpt lat="44.36682" lon="3.85749">
        <ele>1476.72</ele>
        <time>2014-06-08T14:25:09Z</time>
      </trkpt>
      <trkpt lat="44.36671" lon="3.85784">
        <ele>1476.24</ele>
        <time>2014-06-08T14:25:16Z</time>
      </trkpt>
      <trkpt lat="44.36674" lon="3.85806">
        <ele>1476.24</ele>
        <time>2014-06-08T14:25:23Z</time>
      </trkpt>
      <trkpt lat="44.36672" lon="3.85806">
        <ele>1475.76</ele>
        <time>2014-06-08T14:25:40Z</time>
      </trkpt>
      <trkpt lat="44.36672" lon="3.85808">
        <ele>1475.76</ele>
        <time>2014-06-08T14:26:07Z</time>
      </trkpt>
      <trkpt lat="44.36673" lon="3.85812">
        <ele>1475.76</ele>
        <time>2014-06-08T14:26:12Z</time>
      </trkpt>
      <trkpt lat="44.36674" lon="3.85814">
        <ele>1475.28</ele>
        <time>2014-06-08T14:26:13Z</time>
      </trkpt>
      <trkpt lat="44.3669" lon="3.85832">
        <ele>1474.32</ele>
        <time>2014-06-08T14:26:23Z</time>
      </trkpt>
      <trkpt lat="44.36691" lon="3.85833">
        <ele>1474.32</ele>
        <time>2014-06-08T14:26:41Z</time>
      </trkpt>
      <trkpt lat="44.36691" lon="3.85833">
        <ele>1473.84</ele>
        <time>2014-06-08T14:27:03Z</time>
      </trkpt>
      <trkpt lat="44.3669" lon="3.85835">
        <ele>1474.32</ele>
        <time>2014-06-08T14:27:16Z</time>
      </trkpt>
      <trkpt lat="44.36693" lon="3.85842">
        <ele>1473.84</ele>
        <time>2014-06-08T14:27:31Z</time>
      </trkpt>
      <trkpt lat="44.36704" lon="3.85858">
        <ele>1472.88</ele>
        <time>2014-06-08T14:27:35Z</time>
      </trkpt>
      <trkpt lat="44.36707" lon="3.85863">
        <ele>1472.4</ele>
        <time>2014-06-08T14:27:36Z</time>
      </trkpt>
      <trkpt lat="44.36709" lon="3.85869">
        <ele>1471.92</ele>
        <time>2014-06-08T14:27:37Z</time>
      </trkpt>
      <trkpt lat="44.36712" lon="3.85876">
        <ele>1471.44</ele>
        <time>2014-06-08T14:27:38Z</time>
      </trkpt>
      <trkpt lat="44.36714" lon="3.85884">
        <ele>1470.47</ele>
        <time>2014-06-08T14:27:39Z</time>
      </trkpt>
      <trkpt lat="44.36716" lon="3.85893">
        <ele>1469.99</ele>
        <time>2014-06-08T14:27:40Z</time>
      </trkpt>
      <trkpt lat="44.3672" lon="3.85921">
        <ele>1467.11</ele>
        <time>2014-06-08T14:27:43Z</time>
      </trkpt>
      <trkpt lat="44.36723" lon="3.85929">
        <ele>1465.19</ele>
        <time>2014-06-08T14:27:44Z</time>
      </trkpt>
      <trkpt lat="44.36727" lon="3.85936">
        <ele>1465.19</ele>
        <time>2014-06-08T14:27:45Z</time>
      </trkpt>
      <trkpt lat="44.3674" lon="3.8596">
        <ele>1461.34</ele>
        <time>2014-06-08T14:27:48Z</time>
      </trkpt>
      <trkpt lat="44.36745" lon="3.85968">
        <ele>1460.86</ele>
        <time>2014-06-08T14:27:49Z</time>
      </trkpt>
      <trkpt lat="44.3675" lon="3.85974">
        <ele>1460.38</ele>
        <time>2014-06-08T14:27:50Z</time>
      </trkpt>
      <trkpt lat="44.36762" lon="3.85987">
        <ele>1458.94</ele>
        <time>2014-06-08T14:27:52Z</time>
      </trkpt>
      <trkpt lat="44.36792" lon="3.86021">
        <ele>1456.53</ele>
        <time>2014-06-08T14:27:57Z</time>
      </trkpt>
      <trkpt lat="44.36797" lon="3.8603">
        <ele>1456.05</ele>
        <time>2014-06-08T14:27:58Z</time>
      </trkpt>
      <trkpt lat="44.36806" lon="3.86049">
        <ele>1454.61</ele>
        <time>2014-06-08T14:28:00Z</time>
      </trkpt>
      <trkpt lat="44.36811" lon="3.86057">
        <ele>1454.61</ele>
        <time>2014-06-08T14:28:01Z</time>
      </trkpt>
      <trkpt lat="44.36816" lon="3.86066">
        <ele>1454.13</ele>
        <time>2014-06-08T14:28:02Z</time>
      </trkpt>
      <trkpt lat="44.36828" lon="3.86094">
        <ele>1453.17</ele>
        <time>2014-06-08T14:28:05Z</time>
      </trkpt>
      <trkpt lat="44.36834" lon="3.86103">
        <ele>1451.73</ele>
        <time>2014-06-08T14:28:06Z</time>
      </trkpt>
      <trkpt lat="44.3684" lon="3.86112">
        <ele>1450.77</ele>
        <time>2014-06-08T14:28:07Z</time>
      </trkpt>
      <trkpt lat="44.36858" lon="3.86138">
        <ele>1447.88</ele>
        <time>2014-06-08T14:28:10Z</time>
      </trkpt>
      <trkpt lat="44.36863" lon="3.86149">
        <ele>1447.4</ele>
        <time>2014-06-08T14:28:11Z</time>
      </trkpt>
      <trkpt lat="44.36866" lon="3.8616">
        <ele>1447.4</ele>
        <time>2014-06-08T14:28:12Z</time>
      </trkpt>
      <trkpt lat="44.36867" lon="3.8617">
        <ele>1447.4</ele>
        <time>2014-06-08T14:28:13Z</time>
      </trkpt>
      <trkpt lat="44.36868" lon="3.8618">
        <ele>1447.88</ele>
        <time>2014-06-08T14:28:14Z</time>
      </trkpt>
      <trkpt lat="44.36869" lon="3.86188">
        <ele>1448.36</ele>
        <time>2014-06-08T14:28:15Z</time>
      </trkpt>
      <trkpt lat="44.3687" lon="3.86235">
        <ele>1449.81</ele>
        <time>2014-06-08T14:28:25Z</time>
      </trkpt>
      <trkpt lat="44.36873" lon="3.86263">
        <ele>1449.32</ele>
        <time>2014-06-08T14:28:30Z</time>
      </trkpt>
      <trkpt lat="44.36887" lon="3.86322">
        <ele>1448.84</ele>
        <time>2014-06-08T14:28:41Z</time>
      </trkpt>
      <trkpt lat="44.36899" lon="3.86341">
        <ele>1448.84</ele>
        <time>2014-06-08T14:28:45Z</time>
      </trkpt>
      <trkpt lat="44.36905" lon="3.86348">
        <ele>1448.36</ele>
        <time>2014-06-08T14:28:47Z</time>
      </trkpt>
      <trkpt lat="44.36908" lon="3.86352">
        <ele>1447.88</ele>
        <time>2014-06-08T14:28:48Z</time>
      </trkpt>
      <trkpt lat="44.36911" lon="3.86355">
        <ele>1447.88</ele>
        <time>2014-06-08T14:28:49Z</time>
      </trkpt>
      <trkpt lat="44.36914" lon="3.86358">
        <ele>1447.88</ele>
        <time>2014-06-08T14:28:50Z</time>
      </trkpt>
      <trkpt lat="44.36917" lon="3.86361">
        <ele>1447.88</ele>
        <time>2014-06-08T14:28:51Z</time>
      </trkpt>
      <trkpt lat="44.36921" lon="3.86364">
        <ele>1447.88</ele>
        <time>2014-06-08T14:28:52Z</time>
      </trkpt>
      <trkpt lat="44.36924" lon="3.86366">
        <ele>1447.88</ele>
        <time>2014-06-08T14:28:53Z</time>
      </trkpt>
      <trkpt lat="44.36928" lon="3.86369">
        <ele>1447.88</ele>
        <time>2014-06-08T14:28:54Z</time>
      </trkpt>
      <trkpt lat="44.36936" lon="3.86374">
        <ele>1448.36</ele>
        <time>2014-06-08T14:28:56Z</time>
      </trkpt>
      <trkpt lat="44.36972" lon="3.86387">
        <ele>1450.77</ele>
        <time>2014-06-08T14:29:07Z</time>
      </trkpt>
      <trkpt lat="44.37004" lon="3.86403">
        <ele>1453.17</ele>
        <time>2014-06-08T14:29:18Z</time>
      </trkpt>
      <trkpt lat="44.37036" lon="3.86415">
        <ele>1454.61</ele>
        <time>2014-06-08T14:29:29Z</time>
      </trkpt>
      <trkpt lat="44.37075" lon="3.864">
        <ele>1456.05</ele>
        <time>2014-06-08T14:29:42Z</time>
      </trkpt>
      <trkpt lat="44.37108" lon="3.86384">
        <ele>1457.98</ele>
        <time>2014-06-08T14:29:53Z</time>
      </trkpt>
      <trkpt lat="44.37157" lon="3.86354">
        <ele>1458.46</ele>
        <time>2014-06-08T14:30:09Z</time>
      </trkpt>
      <trkpt lat="44.37201" lon="3.86358">
        <ele>1459.9</ele>
        <time>2014-06-08T14:30:23Z</time>
      </trkpt>
      <trkpt lat="44.37246" lon="3.86375">
        <ele>1461.34</ele>
        <time>2014-06-08T14:30:37Z</time>
      </trkpt>
      <trkpt lat="44.37264" lon="3.86378">
        <ele>1460.38</ele>
        <time>2014-06-08T14:30:42Z</time>
      </trkpt>
      <trkpt lat="44.37269" lon="3.86377">
        <ele>1459.9</ele>
        <time>2014-06-08T14:30:43Z</time>
      </trkpt>
      <trkpt lat="44.37274" lon="3.86377">
        <ele>1459.42</ele>
        <time>2014-06-08T14:30:44Z</time>
      </trkpt>
      <trkpt lat="44.37343" lon="3.86381">
        <ele>1458.94</ele>
        <time>2014-06-08T14:30:57Z</time>
      </trkpt>
      <trkpt lat="44.37369" lon="3.86388">
        <ele>1459.42</ele>
        <time>2014-06-08T14:31:03Z</time>
      </trkpt>
      <trkpt lat="44.37382" lon="3.86389">
        <ele>1459.9</ele>
        <time>2014-06-08T14:31:06Z</time>
      </trkpt>
      <trkpt lat="44.37403" lon="3.86393">
        <ele>1459.9</ele>
        <time>2014-06-08T14:31:11Z</time>
      </trkpt>
      <trkpt lat="44.37408" lon="3.86393">
        <ele>1459.42</ele>
        <time>2014-06-08T14:31:12Z</time>
      </trkpt>
      <trkpt lat="44.37412" lon="3.86394">
        <ele>1459.42</ele>
        <time>2014-06-08T14:31:13Z</time>
      </trkpt>
      <trkpt lat="44.37416" lon="3.86393">
        <ele>1458.94</ele>
        <time>2014-06-08T14:31:14Z</time>
      </trkpt>
      <trkpt lat="44.3742" lon="3.86392">
        <ele>1458.94</ele>
        <time>2014-06-08T14:31:15Z</time>
      </trkpt>
      <trkpt lat="44.37422" lon="3.8639">
        <ele>1458.46</ele>
        <time>2014-06-08T14:31:23Z</time>
      </trkpt>
      <trkpt lat="44.37427" lon="3.86391">
        <ele>1458.46</ele>
        <time>2014-06-08T14:31:45Z</time>
      </trkpt>
      <trkpt lat="44.37431" lon="3.86391">
        <ele>1457.98</ele>
        <time>2014-06-08T14:31:46Z</time>
      </trkpt>
      <trkpt lat="44.37435" lon="3.86391">
        <ele>1457.5</ele>
        <time>2014-06-08T14:31:47Z</time>
      </trkpt>
      <trkpt lat="44.37441" lon="3.8639">
        <ele>1456.53</ele>
        <time>2014-06-08T14:31:48Z</time>
      </trkpt>
      <trkpt lat="44.37448" lon="3.8639">
        <ele>1456.05</ele>
        <time>2014-06-08T14:31:49Z</time>
      </trkpt>
      <trkpt lat="44.375" lon="3.86378">
        <ele>1454.13</ele>
        <time>2014-06-08T14:31:57Z</time>
      </trkpt>
      <trkpt lat="44.37506" lon="3.86375">
        <ele>1454.13</ele>
        <time>2014-06-08T14:31:58Z</time>
      </trkpt>
      <trkpt lat="44.37524" lon="3.86366">
        <ele>1453.65</ele>
        <time>2014-06-08T14:32:01Z</time>
      </trkpt>
      <trkpt lat="44.37551" lon="3.86348">
        <ele>1454.61</ele>
        <time>2014-06-08T14:32:06Z</time>
      </trkpt>
      <trkpt lat="44.3756" lon="3.86338">
        <ele>1455.09</ele>
        <time>2014-06-08T14:32:08Z</time>
      </trkpt>
      <trkpt lat="44.37565" lon="3.86335">
        <ele>1455.09</ele>
        <time>2014-06-08T14:32:09Z</time>
      </trkpt>
      <trkpt lat="44.37589" lon="3.86317">
        <ele>1456.05</ele>
        <time>2014-06-08T14:32:15Z</time>
      </trkpt>
      <trkpt lat="44.37593" lon="3.86315">
        <ele>1456.53</ele>
        <time>2014-06-08T14:32:16Z</time>
      </trkpt>
      <trkpt lat="44.3763" lon="3.86293">
        <ele>1458.46</ele>
        <time>2014-06-08T14:32:27Z</time>
      </trkpt>
      <trkpt lat="44.37676" lon="3.86234">
        <ele>1458.94</ele>
        <time>2014-06-08T14:32:42Z</time>
      </trkpt>
      <trkpt lat="44.37714" lon="3.86178">
        <ele>1459.9</ele>
        <time>2014-06-08T14:32:56Z</time>
      </trkpt>
      <trkpt lat="44.37727" lon="3.86163">
        <ele>1460.38</ele>
        <time>2014-06-08T14:33:00Z</time>
      </trkpt>
      <trkpt lat="44.37731" lon="3.86159">
        <ele>1459.9</ele>
        <time>2014-06-08T14:33:01Z</time>
      </trkpt>
      <trkpt lat="44.37734" lon="3.86155">
        <ele>1460.38</ele>
        <time>2014-06-08T14:33:02Z</time>
      </trkpt>
      <trkpt lat="44.37765" lon="3.86111">
        <ele>1460.86</ele>
        <time>2014-06-08T14:33:14Z</time>
      </trkpt>
      <trkpt lat="44.37781" lon="3.86091">
        <ele>1460.86</ele>
        <time>2014-06-08T14:33:24Z</time>
      </trkpt>
      <trkpt lat="44.37782" lon="3.86092">
        <ele>1460.86</ele>
        <time>2014-06-08T14:33:25Z</time>
      </trkpt>
      <trkpt lat="44.37783" lon="3.86092">
        <ele>1460.86</ele>
        <time>2014-06-08T14:33:26Z</time>
      </trkpt>
      <trkpt lat="44.37784" lon="3.86093">
        <ele>1460.86</ele>
        <time>2014-06-08T14:33:27Z</time>
      </trkpt>
      <trkpt lat="44.37785" lon="3.86092">
        <ele>1460.86</ele>
        <time>2014-06-08T14:33:28Z</time>
      </trkpt>
      <trkpt lat="44.37787" lon="3.86092">
        <ele>1460.86</ele>
        <time>2014-06-08T14:33:29Z</time>
      </trkpt>
      <trkpt lat="44.37788" lon="3.86092">
        <ele>1460.86</ele>
        <time>2014-06-08T14:33:30Z</time>
      </trkpt>
      <trkpt lat="44.3779" lon="3.86092">
        <ele>1460.38</ele>
        <time>2014-06-08T14:33:31Z</time>
      </trkpt>
      <trkpt lat="44.37792" lon="3.86091">
        <ele>1460.38</ele>
        <time>2014-06-08T14:33:32Z</time>
      </trkpt>
      <trkpt lat="44.37794" lon="3.86091">
        <ele>1460.38</ele>
        <time>2014-06-08T14:33:33Z</time>
      </trkpt>
      <trkpt lat="44.37795" lon="3.8609">
        <ele>1460.38</ele>
        <time>2014-06-08T14:33:34Z</time>
      </trkpt>
      <trkpt lat="44.37797" lon="3.86089">
        <ele>1460.38</ele>
        <time>2014-06-08T14:33:35Z</time>
      </trkpt>
      <trkpt lat="44.37809" lon="3.86078">
        <ele>1458.94</ele>
        <time>2014-06-08T14:33:40Z</time>
      </trkpt>
      <trkpt lat="44.37813" lon="3.86077">
        <ele>1458.46</ele>
        <time>2014-06-08T14:33:41Z</time>
      </trkpt>
      <trkpt lat="44.37817" lon="3.86077">
        <ele>1457.98</ele>
        <time>2014-06-08T14:33:42Z</time>
      </trkpt>
      <trkpt lat="44.3782" lon="3.86079">
        <ele>1457.5</ele>
        <time>2014-06-08T14:33:43Z</time>
      </trkpt>
      <trkpt lat="44.37822" lon="3.86081">
        <ele>1457.5</ele>
        <time>2014-06-08T14:33:53Z</time>
      </trkpt>
      <trkpt lat="44.37833" lon="3.86099">
        <ele>1455.57</ele>
        <time>2014-06-08T14:34:05Z</time>
      </trkpt>
      <trkpt lat="44.37854" lon="3.8614">
        <ele>1454.13</ele>
        <time>2014-06-08T14:34:12Z</time>
      </trkpt>
      <trkpt lat="44.37858" lon="3.86144">
        <ele>1454.13</ele>
        <time>2014-06-08T14:34:13Z</time>
      </trkpt>
      <trkpt lat="44.37863" lon="3.86147">
        <ele>1453.65</ele>
        <time>2014-06-08T14:34:14Z</time>
      </trkpt>
      <trkpt lat="44.37868" lon="3.86148">
        <ele>1453.17</ele>
        <time>2014-06-08T14:34:15Z</time>
      </trkpt>
      <trkpt lat="44.37873" lon="3.86149">
        <ele>1453.17</ele>
        <time>2014-06-08T14:34:16Z</time>
      </trkpt>
      <trkpt lat="44.37879" lon="3.86149">
        <ele>1452.69</ele>
        <time>2014-06-08T14:34:17Z</time>
      </trkpt>
      <trkpt lat="44.37885" lon="3.86148">
        <ele>1452.21</ele>
        <time>2014-06-08T14:34:18Z</time>
      </trkpt>
      <trkpt lat="44.3791" lon="3.86147">
        <ele>1450.77</ele>
        <time>2014-06-08T14:34:22Z</time>
      </trkpt>
      <trkpt lat="44.37921" lon="3.86142">
        <ele>1450.77</ele>
        <time>2014-06-08T14:34:24Z</time>
      </trkpt>
      <trkpt lat="44.37926" lon="3.86139">
        <ele>1450.77</ele>
        <time>2014-06-08T14:34:25Z</time>
      </trkpt>
      <trkpt lat="44.37931" lon="3.86134">
        <ele>1450.29</ele>
        <time>2014-06-08T14:34:26Z</time>
      </trkpt>
      <trkpt lat="44.37939" lon="3.86123">
        <ele>1450.29</ele>
        <time>2014-06-08T14:34:28Z</time>
      </trkpt>
      <trkpt lat="44.37943" lon="3.86116">
        <ele>1449.81</ele>
        <time>2014-06-08T14:34:29Z</time>
      </trkpt>
      <trkpt lat="44.37946" lon="3.8611">
        <ele>1449.81</ele>
        <time>2014-06-08T14:34:30Z</time>
      </trkpt>
      <trkpt lat="44.3795" lon="3.86104">
        <ele>1449.81</ele>
        <time>2014-06-08T14:34:31Z</time>
      </trkpt>
      <trkpt lat="44.37955" lon="3.86101">
        <ele>1449.32</ele>
        <time>2014-06-08T14:34:32Z</time>
      </trkpt>
      <trkpt lat="44.37961" lon="3.86099">
        <ele>1448.84</ele>
        <time>2014-06-08T14:34:33Z</time>
      </trkpt>
      <trkpt lat="44.37967" lon="3.861">
        <ele>1448.84</ele>
        <time>2014-06-08T14:34:34Z</time>
      </trkpt>
      <trkpt lat="44.37973" lon="3.86102">
        <ele>1448.84</ele>
        <time>2014-06-08T14:34:35Z</time>
      </trkpt>
      <trkpt lat="44.37978" lon="3.86104">
        <ele>1448.84</ele>
        <time>2014-06-08T14:34:36Z</time>
      </trkpt>
      <trkpt lat="44.37983" lon="3.86106">
        <ele>1448.84</ele>
        <time>2014-06-08T14:34:37Z</time>
      </trkpt>
      <trkpt lat="44.37988" lon="3.86109">
        <ele>1448.84</ele>
        <time>2014-06-08T14:34:38Z</time>
      </trkpt>
      <trkpt lat="44.37998" lon="3.86114">
        <ele>1449.32</ele>
        <time>2014-06-08T14:34:40Z</time>
      </trkpt>
      <trkpt lat="44.38041" lon="3.86123">
        <ele>1446.44</ele>
        <time>2014-06-08T14:34:47Z</time>
      </trkpt>
      <trkpt lat="44.38048" lon="3.86126">
        <ele>1445.48</ele>
        <time>2014-06-08T14:34:48Z</time>
      </trkpt>
      <trkpt lat="44.38055" lon="3.86129">
        <ele>1445</ele>
        <time>2014-06-08T14:34:49Z</time>
      </trkpt>
      <trkpt lat="44.38062" lon="3.86134">
        <ele>1444.04</ele>
        <time>2014-06-08T14:34:50Z</time>
      </trkpt>
      <trkpt lat="44.38069" lon="3.86139">
        <ele>1443.56</ele>
        <time>2014-06-08T14:34:51Z</time>
      </trkpt>
      <trkpt lat="44.38077" lon="3.86142">
        <ele>1442.6</ele>
        <time>2014-06-08T14:34:52Z</time>
      </trkpt>
      <trkpt lat="44.38084" lon="3.86145">
        <ele>1442.11</ele>
        <time>2014-06-08T14:34:53Z</time>
      </trkpt>
      <trkpt lat="44.3811" lon="3.86152">
        <ele>1439.71</ele>
        <time>2014-06-08T14:34:56Z</time>
      </trkpt>
      <trkpt lat="44.38119" lon="3.86151">
        <ele>1439.23</ele>
        <time>2014-06-08T14:34:57Z</time>
      </trkpt>
      <trkpt lat="44.38128" lon="3.86149">
        <ele>1438.75</ele>
        <time>2014-06-08T14:34:58Z</time>
      </trkpt>
      <trkpt lat="44.38137" lon="3.86147">
        <ele>1438.27</ele>
        <time>2014-06-08T14:34:59Z</time>
      </trkpt>
      <trkpt lat="44.38146" lon="3.86145">
        <ele>1437.31</ele>
        <time>2014-06-08T14:35:00Z</time>
      </trkpt>
      <trkpt lat="44.38198" lon="3.86136">
        <ele>1434.42</ele>
        <time>2014-06-08T14:35:06Z</time>
      </trkpt>
      <trkpt lat="44.38272" lon="3.86121">
        <ele>1433.94</ele>
        <time>2014-06-08T14:35:16Z</time>
      </trkpt>
      <trkpt lat="44.38277" lon="3.8612">
        <ele>1433.94</ele>
        <time>2014-06-08T14:35:17Z</time>
      </trkpt>
      <trkpt lat="44.38281" lon="3.8612">
        <ele>1434.42</ele>
        <time>2014-06-08T14:35:18Z</time>
      </trkpt>
      <trkpt lat="44.38286" lon="3.8612">
        <ele>1433.94</ele>
        <time>2014-06-08T14:35:19Z</time>
      </trkpt>
      <trkpt lat="44.3829" lon="3.8612">
        <ele>1433.94</ele>
        <time>2014-06-08T14:35:20Z</time>
      </trkpt>
      <trkpt lat="44.38294" lon="3.86118">
        <ele>1433.94</ele>
        <time>2014-06-08T14:35:21Z</time>
      </trkpt>
      <trkpt lat="44.38298" lon="3.86116">
        <ele>1434.42</ele>
        <time>2014-06-08T14:35:22Z</time>
      </trkpt>
      <trkpt lat="44.38302" lon="3.86115">
        <ele>1434.42</ele>
        <time>2014-06-08T14:35:23Z</time>
      </trkpt>
      <trkpt lat="44.38306" lon="3.86116">
        <ele>1433.94</ele>
        <time>2014-06-08T14:35:24Z</time>
      </trkpt>
      <trkpt lat="44.3831" lon="3.86118">
        <ele>1434.42</ele>
        <time>2014-06-08T14:35:25Z</time>
      </trkpt>
      <trkpt lat="44.38313" lon="3.8612">
        <ele>1434.42</ele>
        <time>2014-06-08T14:35:26Z</time>
      </trkpt>
      <trkpt lat="44.38316" lon="3.8612">
        <ele>1434.42</ele>
        <time>2014-06-08T14:35:27Z</time>
      </trkpt>
      <trkpt lat="44.38319" lon="3.86119">
        <ele>1434.42</ele>
        <time>2014-06-08T14:35:28Z</time>
      </trkpt>
      <trkpt lat="44.38322" lon="3.86117">
        <ele>1434.91</ele>
        <time>2014-06-08T14:35:29Z</time>
      </trkpt>
      <trkpt lat="44.38325" lon="3.86117">
        <ele>1434.91</ele>
        <time>2014-06-08T14:35:30Z</time>
      </trkpt>
      <trkpt lat="44.38327" lon="3.86117">
        <ele>1434.91</ele>
        <time>2014-06-08T14:35:31Z</time>
      </trkpt>
      <trkpt lat="44.3833" lon="3.86118">
        <ele>1434.91</ele>
        <time>2014-06-08T14:35:32Z</time>
      </trkpt>
      <trkpt lat="44.38353" lon="3.86134">
        <ele>1435.39</ele>
        <time>2014-06-08T14:35:43Z</time>
      </trkpt>
      <trkpt lat="44.38351" lon="3.86167">
        <ele>1437.31</ele>
        <time>2014-06-08T14:35:52Z</time>
      </trkpt>
      <trkpt lat="44.38338" lon="3.86219">
        <ele>1438.75</ele>
        <time>2014-06-08T14:36:04Z</time>
      </trkpt>
      <trkpt lat="44.3834" lon="3.86238">
        <ele>1439.23</ele>
        <time>2014-06-08T14:36:07Z</time>
      </trkpt>
      <trkpt lat="44.3834" lon="3.86244">
        <ele>1439.23</ele>
        <time>2014-06-08T14:36:08Z</time>
      </trkpt>
      <trkpt lat="44.38342" lon="3.86249">
        <ele>1439.23</ele>
        <time>2014-06-08T14:36:09Z</time>
      </trkpt>
      <trkpt lat="44.38343" lon="3.86254">
        <ele>1439.23</ele>
        <time>2014-06-08T14:36:10Z</time>
      </trkpt>
      <trkpt lat="44.38344" lon="3.86259">
        <ele>1439.23</ele>
        <time>2014-06-08T14:36:11Z</time>
      </trkpt>
      <trkpt lat="44.38346" lon="3.86265">
        <ele>1439.23</ele>
        <time>2014-06-08T14:36:12Z</time>
      </trkpt>
      <trkpt lat="44.38347" lon="3.8627">
        <ele>1439.71</ele>
        <time>2014-06-08T14:36:13Z</time>
      </trkpt>
      <trkpt lat="44.38349" lon="3.86274">
        <ele>1439.71</ele>
        <time>2014-06-08T14:36:14Z</time>
      </trkpt>
      <trkpt lat="44.38351" lon="3.86278">
        <ele>1439.71</ele>
        <time>2014-06-08T14:36:15Z</time>
      </trkpt>
      <trkpt lat="44.38353" lon="3.86282">
        <ele>1439.71</ele>
        <time>2014-06-08T14:36:16Z</time>
      </trkpt>
      <trkpt lat="44.38356" lon="3.86285">
        <ele>1439.23</ele>
        <time>2014-06-08T14:36:17Z</time>
      </trkpt>
      <trkpt lat="44.38359" lon="3.86289">
        <ele>1439.23</ele>
        <time>2014-06-08T14:36:18Z</time>
      </trkpt>
      <trkpt lat="44.38368" lon="3.86316">
        <ele>1438.27</ele>
        <time>2014-06-08T14:36:23Z</time>
      </trkpt>
      <trkpt lat="44.3837" lon="3.86323">
        <ele>1437.79</ele>
        <time>2014-06-08T14:36:24Z</time>
      </trkpt>
      <trkpt lat="44.38373" lon="3.8633">
        <ele>1437.31</ele>
        <time>2014-06-08T14:36:25Z</time>
      </trkpt>
      <trkpt lat="44.38376" lon="3.86337">
        <ele>1437.31</ele>
        <time>2014-06-08T14:36:26Z</time>
      </trkpt>
      <trkpt lat="44.38377" lon="3.86344">
        <ele>1436.83</ele>
        <time>2014-06-08T14:36:27Z</time>
      </trkpt>
      <trkpt lat="44.38378" lon="3.86352">
        <ele>1437.31</ele>
        <time>2014-06-08T14:36:28Z</time>
      </trkpt>
      <trkpt lat="44.38379" lon="3.86359">
        <ele>1437.31</ele>
        <time>2014-06-08T14:36:29Z</time>
      </trkpt>
      <trkpt lat="44.38381" lon="3.86368">
        <ele>1436.83</ele>
        <time>2014-06-08T14:36:30Z</time>
      </trkpt>
      <trkpt lat="44.38384" lon="3.86377">
        <ele>1436.83</ele>
        <time>2014-06-08T14:36:31Z</time>
      </trkpt>
      <trkpt lat="44.38387" lon="3.86385">
        <ele>1436.35</ele>
        <time>2014-06-08T14:36:32Z</time>
      </trkpt>
      <trkpt lat="44.3839" lon="3.86393">
        <ele>1435.87</ele>
        <time>2014-06-08T14:36:33Z</time>
      </trkpt>
      <trkpt lat="44.38393" lon="3.86401">
        <ele>1435.87</ele>
        <time>2014-06-08T14:36:34Z</time>
      </trkpt>
      <trkpt lat="44.38396" lon="3.86409">
        <ele>1435.39</ele>
        <time>2014-06-08T14:36:35Z</time>
      </trkpt>
      <trkpt lat="44.384" lon="3.86416">
        <ele>1435.39</ele>
        <time>2014-06-08T14:36:36Z</time>
      </trkpt>
      <trkpt lat="44.38405" lon="3.86423">
        <ele>1434.91</ele>
        <time>2014-06-08T14:36:37Z</time>
      </trkpt>
      <trkpt lat="44.38409" lon="3.86429">
        <ele>1434.91</ele>
        <time>2014-06-08T14:36:38Z</time>
      </trkpt>
      <trkpt lat="44.38412" lon="3.86436">
        <ele>1434.91</ele>
        <time>2014-06-08T14:36:39Z</time>
      </trkpt>
      <trkpt lat="44.38414" lon="3.86445">
        <ele>1434.91</ele>
        <time>2014-06-08T14:36:40Z</time>
      </trkpt>
      <trkpt lat="44.38416" lon="3.86452">
        <ele>1434.42</ele>
        <time>2014-06-08T14:36:41Z</time>
      </trkpt>
      <trkpt lat="44.38418" lon="3.8646">
        <ele>1434.42</ele>
        <time>2014-06-08T14:36:42Z</time>
      </trkpt>
      <trkpt lat="44.3842" lon="3.86467">
        <ele>1433.94</ele>
        <time>2014-06-08T14:36:43Z</time>
      </trkpt>
      <trkpt lat="44.38422" lon="3.86475">
        <ele>1433.94</ele>
        <time>2014-06-08T14:36:44Z</time>
      </trkpt>
      <trkpt lat="44.38424" lon="3.86491">
        <ele>1433.46</ele>
        <time>2014-06-08T14:36:46Z</time>
      </trkpt>
      <trkpt lat="44.38423" lon="3.865">
        <ele>1432.98</ele>
        <time>2014-06-08T14:36:47Z</time>
      </trkpt>
      <trkpt lat="44.38421" lon="3.86508">
        <ele>1432.98</ele>
        <time>2014-06-08T14:36:48Z</time>
      </trkpt>
      <trkpt lat="44.38419" lon="3.86515">
        <ele>1432.98</ele>
        <time>2014-06-08T14:36:49Z</time>
      </trkpt>
      <trkpt lat="44.38415" lon="3.86522">
        <ele>1432.5</ele>
        <time>2014-06-08T14:36:50Z</time>
      </trkpt>
      <trkpt lat="44.38412" lon="3.8653">
        <ele>1432.02</ele>
        <time>2014-06-08T14:36:51Z</time>
      </trkpt>
      <trkpt lat="44.3841" lon="3.86538">
        <ele>1432.02</ele>
        <time>2014-06-08T14:36:52Z</time>
      </trkpt>
      <trkpt lat="44.38408" lon="3.86546">
        <ele>1432.02</ele>
        <time>2014-06-08T14:36:53Z</time>
      </trkpt>
      <trkpt lat="44.38407" lon="3.86555">
        <ele>1432.02</ele>
        <time>2014-06-08T14:36:54Z</time>
      </trkpt>
      <trkpt lat="44.38409" lon="3.86564">
        <ele>1432.02</ele>
        <time>2014-06-08T14:36:55Z</time>
      </trkpt>
      <trkpt lat="44.38411" lon="3.86572">
        <ele>1431.54</ele>
        <time>2014-06-08T14:36:56Z</time>
      </trkpt>
      <trkpt lat="44.38415" lon="3.86579">
        <ele>1431.54</ele>
        <time>2014-06-08T14:36:57Z</time>
      </trkpt>
      <trkpt lat="44.38419" lon="3.86587">
        <ele>1431.06</ele>
        <time>2014-06-08T14:36:58Z</time>
      </trkpt>
      <trkpt lat="44.38426" lon="3.86601">
        <ele>1431.06</ele>
        <time>2014-06-08T14:37:00Z</time>
      </trkpt>
      <trkpt lat="44.3843" lon="3.86609">
        <ele>1430.58</ele>
        <time>2014-06-08T14:37:01Z</time>
      </trkpt>
      <trkpt lat="44.38433" lon="3.86617">
        <ele>1430.58</ele>
        <time>2014-06-08T14:37:02Z</time>
      </trkpt>
      <trkpt lat="44.38436" lon="3.86624">
        <ele>1430.58</ele>
        <time>2014-06-08T14:37:03Z</time>
      </trkpt>
      <trkpt lat="44.3844" lon="3.86631">
        <ele>1430.58</ele>
        <time>2014-06-08T14:37:04Z</time>
      </trkpt>
      <trkpt lat="44.38449" lon="3.86644">
        <ele>1430.58</ele>
        <time>2014-06-08T14:37:06Z</time>
      </trkpt>
      <trkpt lat="44.38467" lon="3.86662">
        <ele>1431.06</ele>
        <time>2014-06-08T14:37:10Z</time>
      </trkpt>
      <trkpt lat="44.38471" lon="3.86665">
        <ele>1431.06</ele>
        <time>2014-06-08T14:37:11Z</time>
      </trkpt>
      <trkpt lat="44.38485" lon="3.86678">
        <ele>1431.54</ele>
        <time>2014-06-08T14:37:16Z</time>
      </trkpt>
      <trkpt lat="44.38487" lon="3.86682">
        <ele>1431.54</ele>
        <time>2014-06-08T14:37:17Z</time>
      </trkpt>
      <trkpt lat="44.3849" lon="3.86687">
        <ele>1431.54</ele>
        <time>2014-06-08T14:37:18Z</time>
      </trkpt>
      <trkpt lat="44.38494" lon="3.86692">
        <ele>1431.54</ele>
        <time>2014-06-08T14:37:19Z</time>
      </trkpt>
      <trkpt lat="44.38499" lon="3.86697">
        <ele>1431.06</ele>
        <time>2014-06-08T14:37:20Z</time>
      </trkpt>
      <trkpt lat="44.38503" lon="3.86702">
        <ele>1431.06</ele>
        <time>2014-06-08T14:37:21Z</time>
      </trkpt>
      <trkpt lat="44.38509" lon="3.86706">
        <ele>1431.06</ele>
        <time>2014-06-08T14:37:22Z</time>
      </trkpt>
      <trkpt lat="44.38515" lon="3.86712">
        <ele>1431.06</ele>
        <time>2014-06-08T14:37:23Z</time>
      </trkpt>
      <trkpt lat="44.38521" lon="3.86719">
        <ele>1431.06</ele>
        <time>2014-06-08T14:37:24Z</time>
      </trkpt>
      <trkpt lat="44.38526" lon="3.86725">
        <ele>1431.54</ele>
        <time>2014-06-08T14:37:25Z</time>
      </trkpt>
      <trkpt lat="44.38531" lon="3.86731">
        <ele>1431.54</ele>
        <time>2014-06-08T14:37:26Z</time>
      </trkpt>
      <trkpt lat="44.38544" lon="3.86747">
        <ele>1431.54</ele>
        <time>2014-06-08T14:37:29Z</time>
      </trkpt>
      <trkpt lat="44.38548" lon="3.86754">
        <ele>1432.02</ele>
        <time>2014-06-08T14:37:30Z</time>
      </trkpt>
      <trkpt lat="44.3855" lon="3.86761">
        <ele>1432.5</ele>
        <time>2014-06-08T14:37:31Z</time>
      </trkpt>
      <trkpt lat="44.38552" lon="3.86769">
        <ele>1432.5</ele>
        <time>2014-06-08T14:37:32Z</time>
      </trkpt>
      <trkpt lat="44.38553" lon="3.86777">
        <ele>1432.02</ele>
        <time>2014-06-08T14:37:33Z</time>
      </trkpt>
      <trkpt lat="44.38554" lon="3.86784">
        <ele>1432.5</ele>
        <time>2014-06-08T14:37:34Z</time>
      </trkpt>
      <trkpt lat="44.38556" lon="3.86792">
        <ele>1432.98</ele>
        <time>2014-06-08T14:37:35Z</time>
      </trkpt>
      <trkpt lat="44.38559" lon="3.86799">
        <ele>1432.98</ele>
        <time>2014-06-08T14:37:36Z</time>
      </trkpt>
      <trkpt lat="44.38566" lon="3.86823">
        <ele>1432.98</ele>
        <time>2014-06-08T14:37:39Z</time>
      </trkpt>
      <trkpt lat="44.38568" lon="3.86832">
        <ele>1432.5</ele>
        <time>2014-06-08T14:37:40Z</time>
      </trkpt>
      <trkpt lat="44.3857" lon="3.86859">
        <ele>1432.5</ele>
        <time>2014-06-08T14:37:43Z</time>
      </trkpt>
      <trkpt lat="44.38571" lon="3.86866">
        <ele>1432.98</ele>
        <time>2014-06-08T14:37:44Z</time>
      </trkpt>
      <trkpt lat="44.38571" lon="3.86874">
        <ele>1432.5</ele>
        <time>2014-06-08T14:37:45Z</time>
      </trkpt>
      <trkpt lat="44.38578" lon="3.86927">
        <ele>1436.35</ele>
        <time>2014-06-08T14:37:55Z</time>
      </trkpt>
      <trkpt lat="44.38578" lon="3.86955">
        <ele>1437.31</ele>
        <time>2014-06-08T14:38:04Z</time>
      </trkpt>
      <trkpt lat="44.38578" lon="3.86957">
        <ele>1436.83</ele>
        <time>2014-06-08T14:38:05Z</time>
      </trkpt>
      <trkpt lat="44.38578" lon="3.86959">
        <ele>1436.83</ele>
        <time>2014-06-08T14:38:06Z</time>
      </trkpt>
      <trkpt lat="44.38578" lon="3.86962">
        <ele>1436.83</ele>
        <time>2014-06-08T14:38:07Z</time>
      </trkpt>
      <trkpt lat="44.38577" lon="3.86967">
        <ele>1436.35</ele>
        <time>2014-06-08T14:38:08Z</time>
      </trkpt>
      <trkpt lat="44.38576" lon="3.86972">
        <ele>1436.35</ele>
        <time>2014-06-08T14:38:09Z</time>
      </trkpt>
      <trkpt lat="44.38576" lon="3.86977">
        <ele>1435.87</ele>
        <time>2014-06-08T14:38:10Z</time>
      </trkpt>
      <trkpt lat="44.38576" lon="3.86984">
        <ele>1435.87</ele>
        <time>2014-06-08T14:38:11Z</time>
      </trkpt>
      <trkpt lat="44.38577" lon="3.86991">
        <ele>1434.91</ele>
        <time>2014-06-08T14:38:12Z</time>
      </trkpt>
      <trkpt lat="44.38583" lon="3.87024">
        <ele>1432.5</ele>
        <time>2014-06-08T14:38:16Z</time>
      </trkpt>
      <trkpt lat="44.38589" lon="3.87051">
        <ele>1430.58</ele>
        <time>2014-06-08T14:38:19Z</time>
      </trkpt>
      <trkpt lat="44.3859" lon="3.8706">
        <ele>1430.1</ele>
        <time>2014-06-08T14:38:20Z</time>
      </trkpt>
      <trkpt lat="44.3859" lon="3.87078">
        <ele>1430.58</ele>
        <time>2014-06-08T14:38:22Z</time>
      </trkpt>
      <trkpt lat="44.3859" lon="3.87087">
        <ele>1430.1</ele>
        <time>2014-06-08T14:38:23Z</time>
      </trkpt>
      <trkpt lat="44.38591" lon="3.87095">
        <ele>1430.1</ele>
        <time>2014-06-08T14:38:24Z</time>
      </trkpt>
      <trkpt lat="44.38593" lon="3.87103">
        <ele>1430.1</ele>
        <time>2014-06-08T14:38:25Z</time>
      </trkpt>
      <trkpt lat="44.38595" lon="3.87111">
        <ele>1430.58</ele>
        <time>2014-06-08T14:38:26Z</time>
      </trkpt>
      <trkpt lat="44.38596" lon="3.87118">
        <ele>1430.1</ele>
        <time>2014-06-08T14:38:27Z</time>
      </trkpt>
      <trkpt lat="44.38599" lon="3.87125">
        <ele>1431.06</ele>
        <time>2014-06-08T14:38:28Z</time>
      </trkpt>
      <trkpt lat="44.38603" lon="3.8713">
        <ele>1431.06</ele>
        <time>2014-06-08T14:38:29Z</time>
      </trkpt>
      <trkpt lat="44.38607" lon="3.87134">
        <ele>1431.06</ele>
        <time>2014-06-08T14:38:30Z</time>
      </trkpt>
      <trkpt lat="44.38611" lon="3.87137">
        <ele>1431.54</ele>
        <time>2014-06-08T14:38:31Z</time>
      </trkpt>
      <trkpt lat="44.38615" lon="3.87139">
        <ele>1431.54</ele>
        <time>2014-06-08T14:38:32Z</time>
      </trkpt>
      <trkpt lat="44.38619" lon="3.87142">
        <ele>1431.54</ele>
        <time>2014-06-08T14:38:33Z</time>
      </trkpt>
      <trkpt lat="44.38622" lon="3.87146">
        <ele>1432.02</ele>
        <time>2014-06-08T14:38:34Z</time>
      </trkpt>
      <trkpt lat="44.38624" lon="3.87148">
        <ele>1432.02</ele>
        <time>2014-06-08T14:38:35Z</time>
      </trkpt>
      <trkpt lat="44.38626" lon="3.87151">
        <ele>1432.02</ele>
        <time>2014-06-08T14:38:39Z</time>
      </trkpt>
      <trkpt lat="44.38626" lon="3.87153">
        <ele>1432.02</ele>
        <time>2014-06-08T14:38:40Z</time>
      </trkpt>
      <trkpt lat="44.38625" lon="3.87155">
        <ele>1431.54</ele>
        <time>2014-06-08T14:38:41Z</time>
      </trkpt>
      <trkpt lat="44.38625" lon="3.87158">
        <ele>1431.54</ele>
        <time>2014-06-08T14:38:42Z</time>
      </trkpt>
      <trkpt lat="44.38626" lon="3.87161">
        <ele>1431.06</ele>
        <time>2014-06-08T14:38:43Z</time>
      </trkpt>
      <trkpt lat="44.38627" lon="3.87162">
        <ele>1431.54</ele>
        <time>2014-06-08T14:38:44Z</time>
      </trkpt>
      <trkpt lat="44.38629" lon="3.87163">
        <ele>1431.06</ele>
        <time>2014-06-08T14:38:45Z</time>
      </trkpt>
      <trkpt lat="44.3863" lon="3.87164">
        <ele>1431.06</ele>
        <time>2014-06-08T14:38:46Z</time>
      </trkpt>
      <trkpt lat="44.38632" lon="3.87169">
        <ele>1431.06</ele>
        <time>2014-06-08T14:38:48Z</time>
      </trkpt>
      <trkpt lat="44.38633" lon="3.87172">
        <ele>1430.58</ele>
        <time>2014-06-08T14:38:49Z</time>
      </trkpt>
      <trkpt lat="44.38635" lon="3.87175">
        <ele>1431.06</ele>
        <time>2014-06-08T14:38:50Z</time>
      </trkpt>
      <trkpt lat="44.38635" lon="3.8718">
        <ele>1430.58</ele>
        <time>2014-06-08T14:38:51Z</time>
      </trkpt>
      <trkpt lat="44.38635" lon="3.87203">
        <ele>1429.14</ele>
        <time>2014-06-08T14:38:57Z</time>
      </trkpt>
      <trkpt lat="44.38638" lon="3.87209">
        <ele>1428.66</ele>
        <time>2014-06-08T14:38:58Z</time>
      </trkpt>
      <trkpt lat="44.3864" lon="3.87215">
        <ele>1428.66</ele>
        <time>2014-06-08T14:38:59Z</time>
      </trkpt>
      <trkpt lat="44.38641" lon="3.87221">
        <ele>1428.66</ele>
        <time>2014-06-08T14:39:00Z</time>
      </trkpt>
      <trkpt lat="44.38642" lon="3.87227">
        <ele>1428.18</ele>
        <time>2014-06-08T14:39:01Z</time>
      </trkpt>
      <trkpt lat="44.38643" lon="3.87234">
        <ele>1428.18</ele>
        <time>2014-06-08T14:39:02Z</time>
      </trkpt>
      <trkpt lat="44.38644" lon="3.8724">
        <ele>1428.18</ele>
        <time>2014-06-08T14:39:03Z</time>
      </trkpt>
      <trkpt lat="44.38644" lon="3.87247">
        <ele>1428.18</ele>
        <time>2014-06-08T14:39:04Z</time>
      </trkpt>
      <trkpt lat="44.38643" lon="3.87274">
        <ele>1429.14</ele>
        <time>2014-06-08T14:39:09Z</time>
      </trkpt>
      <trkpt lat="44.38643" lon="3.87277">
        <ele>1429.14</ele>
        <time>2014-06-08T14:39:10Z</time>
      </trkpt>
      <trkpt lat="44.38636" lon="3.87332">
        <ele>1429.14</ele>
        <time>2014-06-08T14:39:22Z</time>
      </trkpt>
      <trkpt lat="44.38635" lon="3.87336">
        <ele>1429.14</ele>
        <time>2014-06-08T14:39:23Z</time>
      </trkpt>
      <trkpt lat="44.38632" lon="3.87337">
        <ele>1429.14</ele>
        <time>2014-06-08T14:39:24Z</time>
      </trkpt>
      <trkpt lat="44.38614" lon="3.87349">
        <ele>1427.7</ele>
        <time>2014-06-08T14:39:29Z</time>
      </trkpt>
      <trkpt lat="44.38611" lon="3.87354">
        <ele>1427.21</ele>
        <time>2014-06-08T14:39:30Z</time>
      </trkpt>
      <trkpt lat="44.38608" lon="3.8736">
        <ele>1427.21</ele>
        <time>2014-06-08T14:39:31Z</time>
      </trkpt>
      <trkpt lat="44.38606" lon="3.87366">
        <ele>1427.21</ele>
        <time>2014-06-08T14:39:32Z</time>
      </trkpt>
      <trkpt lat="44.38604" lon="3.87373">
        <ele>1426.73</ele>
        <time>2014-06-08T14:39:33Z</time>
      </trkpt>
      <trkpt lat="44.38601" lon="3.8738">
        <ele>1426.73</ele>
        <time>2014-06-08T14:39:34Z</time>
      </trkpt>
      <trkpt lat="44.38598" lon="3.87386">
        <ele>1426.25</ele>
        <time>2014-06-08T14:39:35Z</time>
      </trkpt>
      <trkpt lat="44.38595" lon="3.8739">
        <ele>1426.73</ele>
        <time>2014-06-08T14:39:36Z</time>
      </trkpt>
      <trkpt lat="44.38594" lon="3.87395">
        <ele>1426.73</ele>
        <time>2014-06-08T14:39:37Z</time>
      </trkpt>
      <trkpt lat="44.38592" lon="3.87401">
        <ele>1427.21</ele>
        <time>2014-06-08T14:39:38Z</time>
      </trkpt>
      <trkpt lat="44.38592" lon="3.87406">
        <ele>1426.73</ele>
        <time>2014-06-08T14:39:39Z</time>
      </trkpt>
      <trkpt lat="44.38591" lon="3.87411">
        <ele>1427.21</ele>
        <time>2014-06-08T14:39:40Z</time>
      </trkpt>
      <trkpt lat="44.3859" lon="3.87416">
        <ele>1427.21</ele>
        <time>2014-06-08T14:39:41Z</time>
      </trkpt>
      <trkpt lat="44.38589" lon="3.87421">
        <ele>1427.21</ele>
        <time>2014-06-08T14:39:42Z</time>
      </trkpt>
      <trkpt lat="44.38582" lon="3.87443">
        <ele>1426.73</ele>
        <time>2014-06-08T14:39:47Z</time>
      </trkpt>
      <trkpt lat="44.3858" lon="3.87445">
        <ele>1426.73</ele>
        <time>2014-06-08T14:39:48Z</time>
      </trkpt>
      <trkpt lat="44.38578" lon="3.87446">
        <ele>1426.73</ele>
        <time>2014-06-08T14:39:49Z</time>
      </trkpt>
      <trkpt lat="44.38574" lon="3.87447">
        <ele>1425.77</ele>
        <time>2014-06-08T14:39:50Z</time>
      </trkpt>
      <trkpt lat="44.38571" lon="3.87446">
        <ele>1425.77</ele>
        <time>2014-06-08T14:39:51Z</time>
      </trkpt>
      <trkpt lat="44.38568" lon="3.87445">
        <ele>1425.77</ele>
        <time>2014-06-08T14:39:52Z</time>
      </trkpt>
      <trkpt lat="44.38565" lon="3.87445">
        <ele>1425.29</ele>
        <time>2014-06-08T14:39:53Z</time>
      </trkpt>
      <trkpt lat="44.38556" lon="3.87442">
        <ele>1425.29</ele>
        <time>2014-06-08T14:39:55Z</time>
      </trkpt>
      <trkpt lat="44.38551" lon="3.87438">
        <ele>1424.81</ele>
        <time>2014-06-08T14:39:56Z</time>
      </trkpt>
      <trkpt lat="44.38544" lon="3.87432">
        <ele>1424.33</ele>
        <time>2014-06-08T14:39:58Z</time>
      </trkpt>
      <trkpt lat="44.38541" lon="3.87432">
        <ele>1423.85</ele>
        <time>2014-06-08T14:39:59Z</time>
      </trkpt>
      <trkpt lat="44.38533" lon="3.87432">
        <ele>1422.89</ele>
        <time>2014-06-08T14:40:01Z</time>
      </trkpt>
      <trkpt lat="44.38529" lon="3.87436">
        <ele>1422.41</ele>
        <time>2014-06-08T14:40:02Z</time>
      </trkpt>
      <trkpt lat="44.38527" lon="3.87442">
        <ele>1421.45</ele>
        <time>2014-06-08T14:40:03Z</time>
      </trkpt>
      <trkpt lat="44.38526" lon="3.87449">
        <ele>1420.97</ele>
        <time>2014-06-08T14:40:04Z</time>
      </trkpt>
      <trkpt lat="44.38524" lon="3.87456">
        <ele>1420.49</ele>
        <time>2014-06-08T14:40:05Z</time>
      </trkpt>
      <trkpt lat="44.38521" lon="3.87464">
        <ele>1420.49</ele>
        <time>2014-06-08T14:40:06Z</time>
      </trkpt>
      <trkpt lat="44.38519" lon="3.87471">
        <ele>1420.49</ele>
        <time>2014-06-08T14:40:07Z</time>
      </trkpt>
      <trkpt lat="44.38504" lon="3.87511">
        <ele>1422.89</ele>
        <time>2014-06-08T14:40:16Z</time>
      </trkpt>
      <trkpt lat="44.38503" lon="3.87515">
        <ele>1422.89</ele>
        <time>2014-06-08T14:40:17Z</time>
      </trkpt>
      <trkpt lat="44.38502" lon="3.87519">
        <ele>1422.89</ele>
        <time>2014-06-08T14:40:18Z</time>
      </trkpt>
      <trkpt lat="44.38503" lon="3.87523">
        <ele>1422.89</ele>
        <time>2014-06-08T14:40:19Z</time>
      </trkpt>
      <trkpt lat="44.38508" lon="3.87537">
        <ele>1423.37</ele>
        <time>2014-06-08T14:40:23Z</time>
      </trkpt>
      <trkpt lat="44.3851" lon="3.87536">
        <ele>1423.85</ele>
        <time>2014-06-08T14:40:24Z</time>
      </trkpt>
      <trkpt lat="44.38512" lon="3.87535">
        <ele>1423.85</ele>
        <time>2014-06-08T14:40:25Z</time>
      </trkpt>
      <trkpt lat="44.38512" lon="3.87533">
        <ele>1423.85</ele>
        <time>2014-06-08T14:40:26Z</time>
      </trkpt>
      <trkpt lat="44.3851" lon="3.8753">
        <ele>1424.33</ele>
        <time>2014-06-08T14:40:35Z</time>
      </trkpt>
    </trkseg>
  </trk>
</gpx>